[[{"header":{"parameterUnit":"m.s-1","parameterCategory":1,"la1":31.0,"la2":29.5877,"lo1":-88.7671,"lo2":-86.6584,"dx":0.0162,"dy":0.0185,"nx":115,"ny":88,"refTime":"2022-11-29T18:00:00:Z","depth":0,"parameterNumber":2,"parameterNumberName":"U-component_of_WINDS"},"data":[0.0,0.0,0.0,0.0,0.0,0.0,0.0,0.0,0.0,0.0,0.0,0.0,0.0,0.0,0.0,0.0,0.0,0.0,0.0,0.0,0.0,0.0,0.0,0.0,0.0,0.0,0.0,0.0,0.0,0.0,0.0,0.0,0.0,0.0,0.0,0.0,0.0,0.0,0.0,0.0,0.0,0.0,0.0,0.0,0.0,0.0,0.0,0.0,0.0,0.0,0.0,0.0,0.0,0.0,0.0,0.0,0.0,0.0,0.0,0.0,0.0,0.0,0.0,0.0,0.0,0.0,0.0,0.0,0.0,0.0,0.0,0.0,0.0,0.0,0.0,0.0,0.0,0.0,0.0,0.0,0.0,0.0,0.0,0.0,0.0,0.0,0.0,0.0,0.0,0.0,0.0,0.0,0.0,0.0,0.0,0.0,0.0,0.0,0.0,0.0,0.0,0.0,0.0,0.0,0.0,0.0,0.0,0.0,0.0,0.0,0.0,0.0,0.0,0.0,0.0,0.0,0.0,0.0,0.0,0.0,0.0,0.0,0.0,0.0,0.0,0.0,0.0,0.0,0.0,0.0,0.0,0.0,0.0,0.0,0.0,0.0,0.0,0.0,0.0,0.0,0.0,0.0,0.0,0.0,0.0,0.0,0.0,0.0,0.0,0.0,0.0,0.0,0.0,0.0,0.0,0.0,0.0,0.0,0.0,0.0,0.0,0.0,0.0,0.0,0.0,0.0,0.0,0.0,0.0,0.0,0.0,0.0,0.0,0.0,0.0,0.0,0.0,0.0,0.0,0.0,0.0,0.0,0.0,0.0,0.0,0.0,0.0,0.0,0.0,0.0,0.0,0.0,0.0,0.0,0.0,0.0,0.0,0.0,0.0,0.0,0.0,0.0,0.0,0.0,0.0,0.0,0.0,0.0,0.0,0.0,0.0,0.0,0.0,0.0,0.0,0.0,0.0,0.0,0.0,0.0,0.0,0.0,0.0,0.0,0.0,0.0,0.0,0.0,0.0,0.0,0.0,0.0,0.0,0.0,0.0,0.0,0.0,0.0,0.0,0.0,0.0,0.0,0.0,0.0,0.0,0.0,0.0,0.0,0.0,0.0,0.0,0.0,0.0,0.0,0.0,0.0,0.0,0.0,0.0,0.0,0.0,0.0,0.0,0.0,0.0,0.0,0.0,0.0,0.0,0.0,0.0,0.0,0.0,0.0,0.0,0.0,0.0,0.0,0.0,0.0,0.0,0.0,0.0,0.0,0.0,0.0,0.0,0.0,0.0,0.0,0.0,0.0,0.0,0.0,0.0,0.0,0.0,0.0,0.0,0.0,0.0,0.0,0.0,0.0,0.0,0.0,0.0,0.0,0.0,0.0,0.0,0.0,0.0,0.0,0.0,0.0,0.0,0.0,0.0,0.0,0.0,0.0,0.0,0.0,0.0,0.0,0.0,0.0,0.0,0.0,0.0,0.0,0.0,0.0,0.0,0.0,0.0,0.0,0.0,0.0,0.0,0.0,0.0,0.0,0.0,0.0,0.0,0.0,0.0,0.0,0.0,0.0,0.0,0.0,0.0,0.0,0.0,0.0,0.0,0.0,0.0,0.0,0.0,0.0,0.0,0.0,0.0,0.0,0.0,0.0,0.0,0.0,0.0,0.0,0.0,0.0,0.0,0.0,0.0,0.0,0.0,0.0,0.0,0.0,0.0,0.0,0.0,0.0,0.0,0.0,0.0,0.0,0.0,0.0,0.0,0.0,0.0,0.0,0.0,0.0,0.0,0.0,0.0,0.0,0.0,0.0,0.0,0.0,0.0,0.0,0.0,0.0,0.0,0.0,0.0,0.0,0.0,0.0,0.0,0.0,0.0,0.0,0.0,0.0,0.0,0.0,0.0,0.0,0.0,0.0,0.0,0.0,0.0,0.0,0.0,0.0,0.0,0.0,0.0,0.0,0.0,0.0,0.0,0.0,0.0,0.0,0.0,0.0,0.0,0.0,0.0,0.0,0.0,0.0,0.0,0.0,0.0,0.0,0.0,0.0,0.0,0.0,0.0,0.0,0.0,0.0,0.0,0.0,0.0,0.0,0.0,0.0,0.0,0.0,0.0,0.0,0.0,0.0,0.0,0.0,0.0,0.0,0.0,0.0,0.0,0.0,0.0,0.0,0.0,0.0,0.0,0.0,0.0,0.0,0.0,0.0,0.0,0.0,0.0,0.0,0.0,0.0,0.0,0.0,0.0,0.0,0.0,0.0,0.0,0.0,0.0,0.0,0.0,0.0,0.0,0.0,0.0,0.0,0.0,0.0,0.0,0.0,0.0,0.0,0.0,0.0,0.0,0.0,0.0,0.0,0.0,0.0,0.0,0.0,0.0,0.0,0.0,0.0,0.0,0.0,0.0,0.0,0.0,0.0,0.0,0.0,0.0,0.0,0.0,0.0,0.0,0.0,0.0,0.0,0.0,0.0,0.0,0.0,0.0,0.0,0.0,0.0,0.0,0.0,0.0,0.0,0.0,0.0,0.0,0.0,0.0,0.0,0.0,0.0,0.0,0.0,0.0,0.0,0.0,0.0,0.0,0.0,0.0,0.0,0.0,0.0,0.0,0.0,0.0,0.0,0.0,0.0,0.0,0.0,0.0,0.0,0.0,0.0,0.0,0.0,0.0,0.0,0.0,0.0,0.0,0.0,0.0,0.0,0.0,0.0,0.0,0.0,0.0,0.0,0.0,0.0,0.0,0.0,0.0,0.0,0.0,0.0,0.0,0.0,0.0,0.0,0.0,0.0,0.0,0.0,0.0,0.0,0.0,0.0,0.0,0.0,0.0,0.0,0.0,0.0,0.0,0.0,0.0,0.0,0.0,0.0,0.0,0.0,0.0,0.0,0.0,0.0,0.0,0.0,0.0,0.0,0.0,0.0,0.0,0.0,0.0,0.0,0.0,0.0,0.0,0.0,0.0,0.0,0.0,0.0,0.0,0.0,0.0,0.0,0.0,0.0,0.0,0.0,0.0,0.0,0.0,0.0,0.0,0.0,0.0,0.0,0.0,0.0,0.0,0.0,0.0,0.0,0.0,0.0,0.0,0.0,0.0,0.0,0.0,0.0,0.0,0.0,0.0,0.0,0.0,0.0,0.0,0.0,0.0,0.0,0.0,0.0,0.0,0.0,0.0,0.0,0.0,0.0,0.0,0.0,0.0,0.0,0.0,0.0,0.0,0.0,0.0,0.0,0.0,0.0,0.0,0.0,0.0,0.0,0.0,0.0,0.0,0.0,0.0,0.0,0.0,0.0,0.0,0.0,0.0,0.0,0.0,0.0,0.0,0.0,0.0,0.0,0.0,0.0,0.0,0.0,0.0,0.0,0.0,0.0,0.0,0.0,0.0,0.0,0.0,0.0,0.0,0.0,0.0,0.0,0.0,0.0,0.0,0.0,0.0,0.0,0.0,0.0,0.0,0.0,0.0,0.0,0.0,0.0,0.0,0.0,0.0,0.0,0.0,0.0,0.0,0.0,0.0,0.0,0.0,0.0,0.0,0.0,0.0,0.0,0.0,0.0,0.0,0.0,0.0,0.0,0.0,0.0,0.0,0.0,0.0,0.0,0.0,0.0,0.0,0.0,0.0,0.0,0.0,0.0,0.0,0.0,0.0,0.0,0.0,0.0,0.0,0.0,0.0,0.0,0.0,0.0,0.0,0.0,0.0,0.0,0.0,0.0,0.0,0.0,0.0,0.0,0.0,0.0,0.0,0.0,0.0,0.0,0.0,0.0,0.0,0.0,0.0,0.0,0.0,0.0,0.0,0.0,0.0,0.0,0.0,0.0,0.0,0.0,0.0,0.0,0.0,0.0,0.0,0.0,0.0,0.0,0.0,0.0,0.0,0.0,0.0,0.0,0.0,0.0,0.0,0.0,0.0,0.0,0.0,0.0,0.0,0.0,0.0,0.0,0.0,0.0,0.0,0.0,0.0,0.0,0.0,0.0,0.0,0.0,0.0,0.0,0.0,0.0,0.0,0.0,0.0,0.0,0.0,0.0,0.0,0.0,0.0,0.0,0.0,0.0,0.0,0.0,0.0,0.0,0.0,0.0,0.0,0.0,0.0,0.0,0.0,0.0,0.0,0.0,0.0,0.0,0.0,0.0,0.0,0.0,0.0,0.0,0.0,0.0,0.0,0.0,0.0,0.0,0.0,0.0,0.0,0.0,0.0,0.0,0.0,0.0,0.0,0.0,0.0,0.0,0.0,0.0,0.0,0.0,0.0,0.0,-2.1269,0.0,0.0,0.0,-2.0389,0.0,0.0,0.0,0.0,0.0,0.0,0.0,0.0,0.0,0.0,0.0,0.0,0.0,0.0,0.0,0.0,0.0,0.0,0.0,0.0,0.0,0.0,0.0,0.0,0.0,0.0,0.0,0.0,0.0,0.0,0.0,0.0,0.0,0.0,0.0,0.0,0.0,0.0,0.0,0.0,0.0,0.0,0.0,0.0,0.0,0.0,0.0,0.0,0.0,0.0,0.0,0.0,0.0,0.0,0.0,0.0,0.0,0.0,0.0,0.0,0.0,0.0,0.0,0.0,0.0,0.0,0.0,0.0,0.0,0.0,0.0,0.0,0.0,0.0,0.0,0.0,0.0,0.0,0.0,0.0,0.0,0.0,0.0,0.0,0.0,0.0,0.0,0.0,0.0,0.0,0.0,0.0,0.0,0.0,0.0,0.0,0.0,0.0,0.0,0.0,0.0,0.0,0.0,0.0,0.0,0.0,0.0,0.0,0.0,0.0,-2.0752,-2.0362,-2.0386,-2.0379,-2.0379,0.0,0.0,0.0,0.0,0.0,0.0,0.0,0.0,0.0,0.0,0.0,0.0,0.0,0.0,0.0,0.0,0.0,0.0,0.0,0.0,0.0,0.0,0.0,0.0,0.0,0.0,0.0,0.0,0.0,0.0,0.0,0.0,0.0,0.0,0.0,0.0,0.0,0.0,0.0,0.0,0.0,0.0,0.0,0.0,0.0,0.0,0.0,0.0,0.0,0.0,0.0,0.0,0.0,0.0,0.0,0.0,0.0,0.0,0.0,0.0,0.0,0.0,0.0,0.0,0.0,0.0,0.0,0.0,0.0,0.0,0.0,0.0,0.0,0.0,0.0,0.0,0.0,0.0,0.0,0.0,0.0,0.0,0.0,0.0,0.0,0.0,0.0,0.0,0.0,0.0,0.0,0.0,0.0,0.0,0.0,0.0,0.0,0.0,0.0,0.0,0.0,0.0,0.0,0.0,0.0,0.0,0.0,0.0,0.0,0.0,0.0,0.0,-2.036,-2.0392,-2.0366,0.0,0.0,0.0,0.0,0.0,0.0,0.0,0.0,0.0,0.0,0.0,0.0,0.0,0.0,0.0,0.0,0.0,0.0,0.0,0.0,0.0,0.0,0.0,0.0,0.0,0.0,0.0,0.0,0.0,0.0,0.0,0.0,0.0,0.0,0.0,0.0,0.0,0.0,0.0,0.0,0.0,0.0,0.0,0.0,0.0,0.0,0.0,0.0,0.0,0.0,0.0,0.0,0.0,0.0,0.0,0.0,0.0,0.0,0.0,0.0,0.0,0.0,0.0,0.0,0.0,0.0,0.0,0.0,0.0,0.0,0.0,0.0,0.0,0.0,0.0,0.0,0.0,0.0,0.0,0.0,0.0,0.0,0.0,0.0,0.0,0.0,0.0,0.0,0.0,0.0,0.0,0.0,0.0,0.0,0.0,0.0,0.0,0.0,0.0,0.0,0.0,0.0,0.0,0.0,0.0,0.0,0.0,0.0,0.0,0.0,-2.0392,-2.0392,-2.0376,0.0,-2.0283,0.0,0.0,0.0,0.0,0.0,0.0,0.0,0.0,0.0,0.0,0.0,0.0,0.0,0.0,0.0,0.0,0.0,0.0,0.0,0.0,0.0,0.0,0.0,0.0,0.0,0.0,0.0,0.0,0.0,0.0,0.0,0.0,0.0,0.0,0.0,0.0,0.0,0.0,0.0,0.0,0.0,0.0,0.0,0.0,0.0,0.0,0.0,0.0,0.0,0.0,0.0,0.0,0.0,0.0,0.0,0.0,0.0,0.0,0.0,0.0,0.0,0.0,0.0,0.0,0.0,0.0,0.0,0.0,0.0,0.0,0.0,0.0,0.0,0.0,0.0,0.0,0.0,0.0,0.0,0.0,0.0,0.0,0.0,0.0,0.0,0.0,0.0,0.0,0.0,0.0,0.0,0.0,0.0,0.0,0.0,0.0,0.0,0.0,0.0,0.0,0.0,0.0,0.0,0.0,0.0,0.0,0.0,0.0,0.0,0.0,-2.0269,-2.0289,-2.0318,-2.0078,0.0,0.0,0.0,0.0,0.0,0.0,0.0,0.0,0.0,0.0,0.0,0.0,0.0,0.0,0.0,0.0,0.0,0.0,0.0,0.0,0.0,0.0,0.0,0.0,0.0,0.0,0.0,0.0,0.0,0.0,0.0,0.0,0.0,0.0,0.0,0.0,0.0,0.0,0.0,0.0,0.0,0.0,0.0,0.0,0.0,0.0,0.0,0.0,0.0,0.0,0.0,0.0,0.0,0.0,0.0,0.0,0.0,0.0,0.0,0.0,0.0,0.0,0.0,0.0,0.0,0.0,0.0,0.0,0.0,0.0,0.0,0.0,0.0,0.0,0.0,0.0,0.0,0.0,0.0,0.0,0.0,0.0,0.0,0.0,0.0,0.0,0.0,0.0,0.0,0.0,0.0,0.0,0.0,0.0,0.0,0.0,0.0,0.0,0.0,0.0,0.0,0.0,0.0,0.0,0.0,0.0,0.0,0.0,0.0,0.0,-2.0212,-2.0212,-2.0193,-2.0234,-1.9858,-1.9002,0.0,0.0,0.0,0.0,0.0,0.0,0.0,0.0,0.0,0.0,0.0,0.0,0.0,0.0,0.0,0.0,0.0,0.0,0.0,0.0,0.0,0.0,0.0,0.0,0.0,0.0,0.0,0.0,0.0,0.0,0.0,0.0,0.0,0.0,0.0,0.0,0.0,0.0,0.0,0.0,0.0,0.0,0.0,0.0,0.0,0.0,0.0,0.0,0.0,0.0,0.0,0.0,0.0,0.0,0.0,0.0,0.0,0.0,0.0,0.0,0.0,0.0,0.0,0.0,0.0,0.0,0.0,0.0,0.0,0.0,0.0,0.0,0.0,0.0,0.0,0.0,0.0,0.0,0.0,0.0,0.0,0.0,0.0,0.0,0.0,0.0,0.0,0.0,0.0,0.0,0.0,0.0,0.0,0.0,0.0,0.0,0.0,0.0,0.0,0.0,0.0,0.0,0.0,0.0,0.0,0.0,0.0,0.0,-2.0208,-2.0227,-2.0212,-2.0227,-2.0197,-1.9798,0.0,0.0,0.0,0.0,0.0,0.0,0.0,0.0,0.0,0.0,0.0,0.0,0.0,0.0,0.0,0.0,0.0,0.0,0.0,0.0,0.0,0.0,0.0,0.0,0.0,0.0,0.0,0.0,0.0,0.0,0.0,0.0,0.0,0.0,0.0,0.0,0.0,0.0,0.0,0.0,0.0,0.0,0.0,0.0,0.0,0.0,0.0,0.0,0.0,0.0,0.0,0.0,0.0,0.0,0.0,0.0,0.0,0.0,0.0,0.0,0.0,0.0,0.0,0.0,0.0,0.0,0.0,0.0,0.0,0.0,0.0,0.0,0.0,0.0,0.0,0.0,0.0,0.0,0.0,0.0,0.0,0.0,0.0,0.0,0.0,0.0,0.0,0.0,0.0,0.0,0.0,0.0,0.0,0.0,0.0,0.0,0.0,0.0,0.0,0.0,0.0,0.0,0.0,0.0,0.0,0.0,0.0,0.0,0.0,-2.0752,-2.0823,-2.0845,-2.089,-2.0408,-1.9485,0.0,0.0,0.0,0.0,0.0,0.0,0.0,0.0,0.0,0.0,0.0,0.0,0.0,0.0,0.0,0.0,0.0,0.0,0.0,0.0,0.0,0.0,0.0,0.0,0.0,0.0,0.0,0.0,0.0,0.0,0.0,0.0,0.0,0.0,0.0,0.0,0.0,0.0,0.0,0.0,0.0,0.0,0.0,0.0,0.0,0.0,0.0,0.0,0.0,0.0,0.0,0.0,0.0,0.0,0.0,0.0,0.0,0.0,0.0,0.0,0.0,0.0,0.0,0.0,0.0,0.0,0.0,0.0,0.0,0.0,0.0,0.0,0.0,0.0,0.0,0.0,0.0,0.0,0.0,0.0,0.0,0.0,0.0,0.0,0.0,0.0,0.0,0.0,0.0,0.0,0.0,0.0,0.0,0.0,0.0,0.0,0.0,0.0,0.0,0.0,0.0,0.0,0.0,0.0,0.0,0.0,0.0,0.0,0.0,-2.1412,-2.1507,-2.143,-2.1233,-2.0693,-1.9511,0.0,0.0,0.0,0.0,0.0,0.0,0.0,0.0,0.0,0.0,0.0,0.0,0.0,0.0,0.0,0.0,0.0,0.0,0.0,0.0,0.0,0.0,0.0,0.0,0.0,0.0,0.0,0.0,0.0,0.0,0.0,0.0,0.0,0.0,0.0,0.0,0.0,0.0,0.0,0.0,0.0,0.0,0.0,0.0,0.0,0.0,0.0,0.0,0.0,0.0,0.0,0.0,0.0,0.0,0.0,0.0,0.0,0.0,0.0,0.0,0.0,0.0,0.0,0.0,0.0,0.0,0.0,0.0,0.0,0.0,0.0,0.0,0.0,0.0,0.0,0.0,0.0,0.0,0.0,0.0,0.0,0.0,0.0,0.0,0.0,0.0,0.0,0.0,0.0,0.0,0.0,0.0,0.0,0.0,0.0,0.0,0.0,0.0,0.0,0.0,0.0,0.0,0.0,0.0,0.0,0.0,0.0,0.0,-2.134,-2.2157,-2.222,-2.1905,-2.1155,-2.1111,-1.9958,0.0,0.0,0.0,0.0,0.0,0.0,0.0,0.0,0.0,0.0,0.0,0.0,0.0,0.0,0.0,0.0,0.0,0.0,0.0,0.0,0.0,0.0,0.0,0.0,0.0,0.0,0.0,0.0,0.0,0.0,0.0,0.0,0.0,0.0,0.0,0.0,0.0,0.0,0.0,0.0,0.0,0.0,0.0,0.0,0.0,0.0,0.0,0.0,0.0,0.0,0.0,0.0,0.0,0.0,0.0,0.0,0.0,0.0,0.0,0.0,0.0,0.0,0.0,0.0,0.0,0.0,0.0,0.0,0.0,0.0,0.0,0.0,0.0,0.0,0.0,0.0,0.0,0.0,0.0,0.0,0.0,0.0,0.0,0.0,0.0,0.0,0.0,0.0,0.0,0.0,0.0,0.0,0.0,0.0,0.0,0.0,0.0,0.0,0.0,0.0,0.0,0.0,0.0,0.0,0.0,0.0,0.0,0.0,0.0,-2.3138,-2.3119,-2.3002,-2.2809,-2.1708,-2.0463,0.0,0.0,0.0,0.0,0.0,0.0,0.0,0.0,0.0,0.0,0.0,0.0,0.0,0.0,0.0,0.0,0.0,0.0,0.0,0.0,0.0,0.0,0.0,0.0,0.0,0.0,0.0,0.0,0.0,0.0,0.0,0.0,0.0,0.0,0.0,0.0,0.0,0.0,0.0,0.0,0.0,0.0,0.0,0.0,0.0,0.0,0.0,0.0,0.0,0.0,0.0,0.0,0.0,0.0,0.0,0.0,0.0,0.0,0.0,0.0,0.0,0.0,0.0,0.0,0.0,0.0,0.0,0.0,0.0,0.0,0.0,0.0,0.0,0.0,0.0,0.0,0.0,0.0,0.0,0.0,0.0,0.0,0.0,0.0,0.0,0.0,0.0,0.0,0.0,0.0,0.0,0.0,0.0,0.0,0.0,0.0,0.0,0.0,0.0,0.0,0.0,0.0,0.0,0.0,0.0,0.0,0.0,0.0,0.0,-2.4304,-2.403,-2.3746,-2.3509,-2.2188,-2.0966,-1.9842,0.0,0.0,0.0,0.0,0.0,0.0,0.0,0.0,0.0,0.0,0.0,0.0,0.0,0.0,0.0,0.0,0.0,0.0,0.0,0.0,0.0,0.0,0.0,0.0,0.0,0.0,0.0,0.0,0.0,0.0,0.0,0.0,0.0,0.0,0.0,0.0,0.0,0.0,0.0,0.0,0.0,0.0,0.0,0.0,0.0,0.0,0.0,0.0,0.0,0.0,0.0,0.0,0.0,0.0,0.0,0.0,0.0,0.0,0.0,0.0,0.0,0.0,0.0,0.0,0.0,0.0,0.0,0.0,0.0,0.0,0.0,0.0,0.0,0.0,0.0,0.0,0.0,0.0,0.0,0.0,0.0,0.0,0.0,0.0,0.0,0.0,0.0,0.0,0.0,0.0,0.0,0.0,0.0,0.0,0.0,0.0,0.0,0.0,0.0,0.0,0.0,0.0,0.0,0.0,0.0,0.0,0.0,0.0,-2.5597,-2.493,-2.4248,-2.3492,-2.2757,-2.1584,0.0,0.0,0.0,0.0,0.0,0.0,0.0,0.0,0.0,0.0,0.0,0.0,0.0,0.0,0.0,0.0,0.0,0.0,0.0,0.0,0.0,0.0,0.0,0.0,0.0,0.0,0.0,0.0,0.0,0.0,0.0,0.0,0.0,0.0,0.0,0.0,0.0,0.0,0.0,0.0,0.0,0.0,0.0,0.0,0.0,0.0,0.0,0.0,0.0,0.0,0.0,0.0,0.0,0.0,0.0,0.0,0.0,0.0,0.0,0.0,0.0,0.0,0.0,0.0,0.0,0.0,0.0,0.0,0.0,0.0,0.0,0.0,0.0,0.0,0.0,0.0,0.0,0.0,0.0,0.0,0.0,0.0,0.0,0.0,0.0,0.0,0.0,0.0,0.0,0.0,0.0,0.0,0.0,0.0,0.0,0.0,0.0,0.0,0.0,0.0,0.0,0.0,0.0,0.0,0.0,0.0,0.0,0.0,0.0,-2.5267,-2.5649,-2.5619,-2.5134,-2.4401,-2.3217,0.0,0.0,0.0,0.0,0.0,0.0,0.0,0.0,0.0,0.0,0.0,0.0,0.0,0.0,0.0,0.0,0.0,0.0,0.0,0.0,0.0,0.0,0.0,0.0,0.0,0.0,0.0,0.0,0.0,0.0,0.0,0.0,0.0,0.0,0.0,0.0,0.0,0.0,0.0,0.0,0.0,0.0,0.0,0.0,0.0,0.0,0.0,0.0,0.0,0.0,0.0,0.0,0.0,0.0,0.0,0.0,0.0,0.0,0.0,0.0,0.0,0.0,0.0,0.0,0.0,0.0,0.0,0.0,0.0,0.0,0.0,0.0,0.0,0.0,0.0,0.0,0.0,0.0,0.0,0.0,0.0,0.0,0.0,0.0,0.0,0.0,0.0,0.0,0.0,0.0,0.0,0.0,0.0,0.0,0.0,0.0,0.0,0.0,0.0,0.0,0.0,0.0,0.0,0.0,0.0,0.0,0.0,0.0,-2.5528,-2.5534,-2.6725,-2.7105,-2.6557,-2.5116,-2.364,0.0,0.0,0.0,0.0,0.0,0.0,0.0,0.0,0.0,0.0,0.0,0.0,0.0,0.0,0.0,0.0,0.0,0.0,0.0,0.0,0.0,0.0,0.0,0.0,0.0,0.0,0.0,0.0,0.0,0.0,0.0,0.0,0.0,0.0,0.0,0.0,0.0,0.0,0.0,0.0,0.0,0.0,0.0,0.0,0.0,0.0,0.0,0.0,0.0,0.0,0.0,0.0,0.0,0.0,0.0,0.0,0.0,0.0,0.0,0.0,0.0,0.0,0.0,0.0,0.0,0.0,0.0,0.0,0.0,0.0,0.0,0.0,0.0,0.0,0.0,0.0,0.0,0.0,0.0,0.0,0.0,0.0,0.0,0.0,0.0,0.0,0.0,0.0,0.0,0.0,0.0,0.0,0.0,0.0,0.0,0.0,0.0,0.0,0.0,0.0,0.0,0.0,0.0,0.0,0.0,0.0,0.0,0.0,-2.7039,-2.6043,-2.7767,-2.833,-2.753,-2.5403,-2.3538,0.0,0.0,0.0,0.0,0.0,0.0,0.0,0.0,0.0,0.0,0.0,0.0,0.0,0.0,0.0,0.0,0.0,0.0,0.0,0.0,0.0,0.0,0.0,0.0,0.0,0.0,0.0,0.0,0.0,0.0,0.0,0.0,0.0,0.0,0.0,0.0,0.0,0.0,0.0,0.0,0.0,0.0,0.0,0.0,0.0,0.0,0.0,0.0,0.0,0.0,0.0,0.0,0.0,0.0,0.0,0.0,0.0,0.0,0.0,0.0,0.0,0.0,0.0,0.0,0.0,0.0,0.0,0.0,0.0,0.0,0.0,0.0,0.0,0.0,0.0,0.0,0.0,0.0,0.0,0.0,0.0,0.0,0.0,0.0,0.0,0.0,0.0,0.0,0.0,0.0,0.0,0.0,0.0,0.0,0.0,0.0,0.0,0.0,0.0,0.0,0.0,0.0,0.0,0.0,0.0,0.0,0.0,0.0,-2.6135,-2.6632,-2.7638,-2.7839,-2.7143,-2.6322,-2.4878,0.0,0.0,0.0,0.0,0.0,0.0,0.0,0.0,0.0,0.0,0.0,0.0,0.0,0.0,0.0,0.0,0.0,0.0,0.0,0.0,0.0,0.0,0.0,0.0,0.0,0.0,0.0,0.0,0.0,0.0,0.0,0.0,0.0,0.0,0.0,0.0,0.0,0.0,0.0,0.0,0.0,0.0,0.0,0.0,0.0,0.0,0.0,0.0,-1.6094,0.0,0.0,0.0,0.0,0.0,0.0,0.0,0.0,0.0,0.0,0.0,0.0,0.0,0.0,0.0,0.0,0.0,0.0,0.0,0.0,0.0,0.0,0.0,0.0,0.0,0.0,0.0,0.0,0.0,0.0,0.0,0.0,0.0,0.0,0.0,0.0,0.0,0.0,0.0,0.0,0.0,0.0,0.0,0.0,0.0,0.0,0.0,0.0,0.0,0.0,0.0,0.0,0.0,0.0,0.0,0.0,0.0,0.0,0.0,-2.5901,-2.6606,-2.7433,-2.7681,-2.7323,-2.6777,-2.5301,0.0,0.0,0.0,0.0,0.0,0.0,0.0,0.0,0.0,0.0,0.0,0.0,0.0,0.0,0.0,0.0,0.0,0.0,0.0,0.0,0.0,0.0,0.0,0.0,0.0,0.0,0.0,0.0,0.0,0.0,0.0,0.0,0.0,0.0,0.0,0.0,0.0,0.0,0.0,0.0,0.0,0.0,0.0,0.0,0.0,0.0,0.0,0.0,0.0,0.0,0.0,0.0,0.0,0.0,0.0,0.0,0.0,0.0,0.0,0.0,0.0,0.0,0.0,0.0,0.0,0.0,0.0,0.0,0.0,0.0,0.0,0.0,0.0,0.0,0.0,0.0,0.0,0.0,0.0,0.0,0.0,0.0,0.0,0.0,0.0,0.0,0.0,0.0,0.0,0.0,0.0,0.0,0.0,0.0,0.0,0.0,0.0,0.0,0.0,0.0,0.0,0.0,0.0,0.0,0.0,0.0,0.0,-2.4457,-2.5965,-2.6725,-2.7335,-2.7672,-2.7683,-2.6981,-2.5362,-2.2711,0.0,0.0,0.0,0.0,0.0,0.0,0.0,0.0,0.0,0.0,0.0,0.0,0.0,0.0,0.0,0.0,0.0,0.0,0.0,0.0,0.0,0.0,0.0,0.0,0.0,0.0,0.0,0.0,0.0,0.0,0.0,0.0,0.0,0.0,0.0,0.0,0.0,0.0,-1.5191,-1.6277,0.0,0.0,0.0,0.0,0.0,0.0,0.0,0.0,-1.7163,0.0,0.0,0.0,0.0,0.0,0.0,0.0,0.0,0.0,0.0,0.0,0.0,0.0,0.0,0.0,0.0,0.0,0.0,0.0,0.0,0.0,0.0,0.0,0.0,0.0,0.0,0.0,0.0,0.0,0.0,0.0,0.0,0.0,0.0,0.0,0.0,0.0,0.0,0.0,0.0,0.0,0.0,0.0,0.0,0.0,0.0,0.0,0.0,0.0,0.0,0.0,0.0,0.0,0.0,0.0,0.0,-2.443,-2.4901,-2.6117,-2.8175,-2.7788,-2.7585,-2.7683,-2.6996,-2.5513,-2.3253,0.0,0.0,0.0,0.0,0.0,0.0,0.0,0.0,0.0,0.0,0.0,0.0,0.0,0.0,0.0,0.0,0.0,0.0,0.0,0.0,0.0,0.0,0.0,0.0,0.0,0.0,0.0,0.0,0.0,0.0,0.0,0.0,0.0,0.0,0.0,0.0,0.0,0.0,0.0,-1.7163,-1.7742,0.0,0.0,0.0,0.0,0.0,0.0,0.0,0.0,-1.7294,0.0,0.0,0.0,0.0,0.0,0.0,0.0,0.0,0.0,0.0,0.0,0.0,0.0,0.0,0.0,0.0,0.0,0.0,0.0,0.0,0.0,0.0,0.0,0.0,0.0,0.0,0.0,0.0,0.0,0.0,0.0,0.0,0.0,0.0,0.0,0.0,0.0,0.0,0.0,0.0,0.0,0.0,0.0,0.0,0.0,0.0,0.0,0.0,0.0,0.0,0.0,0.0,0.0,0.0,0.0,-2.4284,-2.5146,-2.6344,-2.7858,-2.758,-2.761,-2.802,-2.6956,-2.5485,0.0,0.0,0.0,0.0,0.0,0.0,0.0,0.0,0.0,0.0,0.0,0.0,0.0,0.0,0.0,0.0,0.0,0.0,0.0,0.0,0.0,0.0,0.0,0.0,0.0,0.0,0.0,0.0,0.0,0.0,0.0,0.0,0.0,0.0,0.0,0.0,0.0,0.0,0.0,0.0,-1.8365,-1.8851,-1.9951,0.0,0.0,0.0,0.0,0.0,0.0,-1.9411,-1.8555,0.0,0.0,0.0,0.0,0.0,0.0,0.0,0.0,0.0,0.0,0.0,0.0,0.0,0.0,0.0,0.0,0.0,0.0,0.0,0.0,0.0,0.0,0.0,0.0,0.0,0.0,0.0,0.0,0.0,0.0,0.0,0.0,0.0,0.0,0.0,0.0,0.0,0.0,0.0,0.0,0.0,0.0,0.0,0.0,0.0,0.0,0.0,0.0,0.0,0.0,0.0,0.0,0.0,0.0,0.0,-2.4371,-2.5468,-2.6535,-2.7482,-2.7389,-2.7645,-2.8251,-2.6733,-2.5291,0.0,0.0,0.0,0.0,0.0,0.0,0.0,0.0,0.0,0.0,0.0,0.0,0.0,0.0,0.0,0.0,0.0,0.0,0.0,0.0,0.0,0.0,0.0,0.0,0.0,0.0,0.0,0.0,0.0,0.0,0.0,0.0,0.0,0.0,0.0,0.0,0.0,0.0,0.0,0.0,0.0,-1.9914,-2.0696,-2.199,0.0,0.0,0.0,0.0,-2.1558,-2.0619,0.0,0.0,0.0,0.0,0.0,0.0,0.0,0.0,0.0,0.0,0.0,0.0,0.0,0.0,0.0,0.0,0.0,0.0,0.0,0.0,0.0,0.0,0.0,0.0,0.0,0.0,0.0,0.0,0.0,0.0,0.0,0.0,0.0,0.0,0.0,0.0,0.0,0.0,0.0,0.0,0.0,0.0,0.0,0.0,0.0,0.0,0.0,0.0,0.0,0.0,0.0,0.0,0.0,0.0,0.0,0.0,-2.6281,-2.5991,-2.6606,-2.8321,-2.7673,-2.7531,-2.8015,-2.6141,-2.4755,0.0,0.0,0.0,0.0,0.0,0.0,0.0,0.0,0.0,0.0,0.0,0.0,0.0,0.0,0.0,0.0,0.0,0.0,0.0,0.0,0.0,0.0,0.0,0.0,0.0,0.0,0.0,0.0,0.0,0.0,0.0,0.0,0.0,0.0,0.0,0.0,0.0,0.0,0.0,0.0,0.0,-2.0366,-2.194,-2.2084,-2.2291,0.0,0.0,-2.2872,-2.2697,-2.2038,0.0,0.0,0.0,0.0,0.0,0.0,0.0,0.0,0.0,0.0,0.0,0.0,0.0,0.0,0.0,0.0,0.0,0.0,0.0,0.0,0.0,0.0,0.0,0.0,0.0,0.0,0.0,0.0,0.0,0.0,0.0,0.0,0.0,0.0,0.0,0.0,0.0,0.0,0.0,0.0,0.0,0.0,0.0,0.0,0.0,0.0,0.0,0.0,0.0,0.0,0.0,0.0,0.0,0.0,0.0,-2.2723,-2.5597,-2.5763,-2.6539,-2.8028,-2.7138,-2.7094,-2.8146,-2.583,-2.4399,0.0,0.0,0.0,0.0,0.0,0.0,0.0,0.0,0.0,0.0,0.0,0.0,0.0,0.0,0.0,0.0,0.0,0.0,0.0,0.0,0.0,0.0,0.0,0.0,0.0,0.0,0.0,0.0,0.0,0.0,0.0,0.0,0.0,0.0,0.0,0.0,0.0,0.0,0.0,0.0,0.0,0.0,-2.1693,-2.2871,0.0,0.0,0.0,-2.3933,-2.3247,0.0,0.0,0.0,0.0,0.0,0.0,0.0,0.0,0.0,0.0,0.0,0.0,0.0,0.0,0.0,0.0,0.0,0.0,0.0,0.0,0.0,0.0,0.0,0.0,0.0,0.0,0.0,0.0,0.0,0.0,0.0,0.0,0.0,0.0,0.0,0.0,0.0,0.0,0.0,0.0,0.0,0.0,0.0,0.0,0.0,0.0,0.0,0.0,0.0,0.0,0.0,0.0,0.0,0.0,0.0,0.0,0.0,-2.4946,-2.5466,-2.6398,-2.7769,-2.6656,-2.6772,-2.8244,-2.5904,0.0,0.0,0.0,0.0,0.0,0.0,0.0,0.0,0.0,0.0,0.0,0.0,0.0,0.0,0.0,0.0,0.0,0.0,0.0,0.0,0.0,0.0,0.0,0.0,0.0,0.0,0.0,-1.3009,0.0,0.0,0.0,0.0,0.0,0.0,0.0,0.0,0.0,0.0,0.0,0.0,0.0,0.0,-2.1943,-2.1861,-2.3619,-2.4682,0.0,0.0,-2.459,-2.3697,-2.3298,-2.275,0.0,0.0,0.0,0.0,0.0,0.0,0.0,0.0,0.0,0.0,0.0,0.0,0.0,0.0,0.0,0.0,0.0,0.0,0.0,0.0,0.0,0.0,0.0,0.0,0.0,0.0,0.0,0.0,0.0,0.0,0.0,0.0,0.0,0.0,0.0,0.0,0.0,0.0,0.0,0.0,0.0,0.0,0.0,0.0,0.0,0.0,0.0,0.0,0.0,0.0,0.0,0.0,0.0,0.0,-2.2311,-2.5166,-2.537,-2.6262,-2.786,-2.6555,-2.6684,-2.8377,-2.6607,-2.5358,0.0,0.0,0.0,0.0,0.0,0.0,0.0,0.0,0.0,0.0,0.0,0.0,0.0,0.0,0.0,0.0,0.0,0.0,0.0,0.0,0.0,0.0,0.0,0.0,0.0,0.0,0.0,0.0,0.0,0.0,0.0,0.0,0.0,0.0,0.0,0.0,0.0,0.0,0.0,0.0,0.0,-2.2894,-2.3373,-2.3955,-2.4328,0.0,-2.4313,-2.4349,-2.4241,-2.4225,-2.3722,-2.2439,0.0,0.0,0.0,0.0,0.0,0.0,0.0,0.0,0.0,0.0,0.0,0.0,0.0,0.0,0.0,0.0,0.0,0.0,0.0,0.0,0.0,0.0,0.0,0.0,0.0,0.0,0.0,0.0,0.0,0.0,0.0,0.0,0.0,0.0,0.0,0.0,0.0,0.0,0.0,0.0,0.0,0.0,0.0,0.0,0.0,0.0,0.0,0.0,0.0,0.0,0.0,0.0,0.0,-2.1923,-2.4808,-2.4775,-2.5873,-2.8062,-2.663,-2.6254,-2.7377,-2.6379,-2.5342,0.0,0.0,0.0,0.0,0.0,0.0,0.0,0.0,0.0,0.0,0.0,0.0,0.0,0.0,0.0,0.0,0.0,0.0,0.0,0.0,0.0,0.0,0.0,0.0,0.0,0.0,0.0,0.0,-1.5244,-1.5211,-1.44,0.0,0.0,0.0,0.0,0.0,0.0,0.0,0.0,0.0,0.0,-2.2994,-2.32,-2.3728,0.0,0.0,-2.4114,-2.413,-2.4109,-2.4208,-2.3928,-2.2942,-2.2624,0.0,0.0,0.0,0.0,0.0,0.0,0.0,0.0,0.0,0.0,0.0,0.0,0.0,0.0,0.0,0.0,0.0,0.0,0.0,0.0,0.0,0.0,0.0,0.0,0.0,0.0,0.0,0.0,0.0,0.0,0.0,0.0,0.0,0.0,0.0,0.0,0.0,0.0,0.0,0.0,0.0,0.0,0.0,0.0,0.0,0.0,0.0,0.0,0.0,0.0,0.0,0.0,-2.1886,-2.4477,-2.4565,-2.5841,-2.835,-2.6769,-2.6308,-2.7146,-2.6673,-2.5827,0.0,0.0,0.0,0.0,0.0,0.0,0.0,0.0,0.0,0.0,0.0,0.0,0.0,0.0,0.0,0.0,0.0,0.0,0.0,0.0,0.0,0.0,0.0,0.0,0.0,0.0,0.0,0.0,-1.5839,-1.5839,-1.486,0.0,0.0,0.0,0.0,0.0,0.0,0.0,0.0,0.0,0.0,-2.3132,-2.3485,-2.3961,-2.4383,-2.4559,-2.4429,-2.4307,-2.4307,-2.4204,-2.3895,-2.3173,0.0,0.0,0.0,0.0,0.0,0.0,0.0,0.0,0.0,0.0,0.0,0.0,0.0,0.0,0.0,0.0,0.0,0.0,0.0,0.0,0.0,0.0,0.0,0.0,0.0,0.0,0.0,-1.4218,0.0,0.0,-1.4256,0.0,0.0,0.0,0.0,0.0,0.0,0.0,0.0,0.0,0.0,0.0,0.0,0.0,0.0,0.0,0.0,0.0,0.0,0.0,0.0,0.0,0.0,-2.2255,-2.4271,-2.4943,-2.628,-2.8273,-2.7003,-2.6934,-2.8227,-2.7703,-2.711,-2.6514,0.0,0.0,0.0,0.0,0.0,0.0,0.0,0.0,0.0,0.0,0.0,0.0,0.0,0.0,0.0,0.0,0.0,0.0,0.0,0.0,0.0,0.0,0.0,0.0,0.0,0.0,-1.3455,-1.5024,-1.6136,0.0,0.0,0.0,0.0,0.0,0.0,0.0,0.0,0.0,-2.0756,-2.2052,-2.344,-2.458,-2.4887,-2.5196,-2.5826,-2.5379,-2.4976,-2.496,-2.4429,-2.3775,0.0,0.0,0.0,0.0,0.0,0.0,0.0,0.0,0.0,0.0,0.0,0.0,0.0,0.0,0.0,0.0,0.0,0.0,0.0,0.0,0.0,0.0,0.0,0.0,0.0,0.0,0.0,-1.6783,-1.6753,0.0,0.0,0.0,0.0,0.0,0.0,0.0,0.0,0.0,0.0,0.0,-2.1,-2.1784,0.0,0.0,0.0,0.0,0.0,0.0,0.0,0.0,0.0,0.0,0.0,0.0,-2.2615,-2.4198,-2.5238,-2.6329,-2.742,-2.7094,-2.7125,-2.7585,-2.7902,-2.7542,-2.6416,0.0,0.0,0.0,0.0,0.0,0.0,0.0,0.0,0.0,0.0,0.0,0.0,0.0,0.0,0.0,0.0,0.0,0.0,0.0,0.0,0.0,0.0,0.0,0.0,0.0,-1.4868,0.0,0.0,0.0,0.0,0.0,0.0,0.0,0.0,0.0,0.0,-1.9864,-2.1458,-2.2049,-2.3257,-2.4221,-2.4612,-2.507,-2.5476,0.0,0.0,0.0,0.0,0.0,0.0,0.0,0.0,0.0,0.0,0.0,0.0,0.0,0.0,-2.0307,-2.022,-1.9653,-1.9284,-1.9517,0.0,0.0,0.0,0.0,0.0,0.0,0.0,0.0,0.0,0.0,0.0,0.0,0.0,0.0,-1.8522,-1.8448,-1.7829,0.0,0.0,0.0,0.0,0.0,0.0,0.0,0.0,-2.1351,-2.2044,-2.2043,-2.2782,-2.2841,-2.2309,-2.2081,-2.0902,0.0,0.0,0.0,0.0,0.0,0.0,0.0,0.0,-2.3336,-2.4475,-2.5727,-2.6684,-2.7315,-2.7448,-2.7472,-2.7472,-2.8012,-2.7607,-2.6244,-2.4754,-2.3077,0.0,0.0,0.0,0.0,0.0,0.0,0.0,0.0,0.0,0.0,0.0,0.0,0.0,0.0,0.0,0.0,0.0,0.0,0.0,0.0,0.0,0.0,0.0,-1.6158,0.0,0.0,0.0,0.0,0.0,0.0,0.0,0.0,0.0,-1.9592,-2.1284,-2.2626,-2.3026,-2.3946,-2.4769,-2.5232,0.0,0.0,0.0,0.0,0.0,0.0,0.0,-2.4935,-2.4499,-2.449,-2.442,-2.3975,-2.3474,-2.311,-2.311,0.0,0.0,-2.1416,-2.0831,-2.0545,-2.056,-2.11,-2.1526,-2.1541,-2.2267,-2.3011,0.0,0.0,0.0,0.0,-1.9418,0.0,0.0,0.0,-1.9705,-1.946,0.0,-1.8869,0.0,0.0,0.0,0.0,-1.9227,-2.0356,0.0,0.0,-2.2994,-2.331,-2.2395,-2.2975,-2.2619,-2.142,-2.2011,-2.2228,-2.2074,-2.074,0.0,0.0,0.0,0.0,0.0,0.0,-2.4355,-2.5052,-2.6327,-2.7328,-2.7904,-2.7965,-2.798,-2.7965,-2.794,-2.7309,-2.6046,-2.5396,-2.3822,-2.1103,-1.9901,0.0,0.0,0.0,0.0,0.0,0.0,0.0,0.0,0.0,0.0,0.0,0.0,0.0,0.0,0.0,0.0,0.0,0.0,0.0,0.0,-1.6472,0.0,0.0,0.0,0.0,0.0,0.0,0.0,0.0,0.0,-2.054,-2.084,-2.2549,-2.3734,-2.3625,0.0,0.0,0.0,0.0,-2.6841,-2.748,-2.7061,-2.6602,-2.6572,-2.6033,-2.563,-2.56,0.0,0.0,-2.5585,-2.5585,-2.551,-2.5585,-2.5465,-2.4807,-2.2323,-2.1984,-2.1984,-2.1984,-2.2049,-2.1938,-2.1968,-2.2662,-2.3205,-2.1947,0.0,0.0,0.0,0.0,-2.1378,-2.1693,-2.217,-2.2025,-2.1955,-2.1941,-2.1759,0.0,0.0,0.0,0.0,0.0,0.0,-2.1821,-2.1839,-2.2859,-2.3617,-2.4112,-2.4379,-2.446,-2.4402,-2.4597,-2.4413,-2.3949,-2.3541,-2.2898,-2.2052,0.0,0.0,0.0,0.0,-2.4889,-2.5606,-2.6778,-2.7295,-2.7009,-2.7549,-2.7675,-2.7342,-2.6927,-2.6337,-2.5598,-2.5319,-2.4383,-2.2669,-2.1384,0.0,0.0,0.0,0.0,0.0,0.0,0.0,0.0,0.0,0.0,0.0,0.0,0.0,0.0,0.0,0.0,0.0,0.0,0.0,-1.712,-1.8137,-1.8792,0.0,0.0,0.0,0.0,0.0,0.0,0.0,0.0,0.0,-2.2406,-2.3246,-2.3847,0.0,0.0,-2.6168,-2.6527,-2.7016,-2.7375,-2.7555,-2.7435,0.0,-2.6662,-2.6437,-2.6153,-2.5666,-2.56,-2.56,-2.56,-2.56,-2.56,-2.563,-2.56,-2.533,-2.4717,-2.4515,-2.4507,-2.4507,-2.4485,-2.4507,-2.4537,-2.4687,-2.4837,-2.2511,-2.2597,-2.1736,-2.1838,-2.2579,-2.2579,-2.2922,-2.3388,-2.2949,-2.2758,-2.2744,-2.2513,-2.1882,-2.1018,-2.1337,0.0,0.0,0.0,-2.2275,-2.2493,-2.3148,-2.3716,-2.4204,-2.4245,-2.4422,-2.4712,-2.4669,-2.473,-2.4805,-2.4526,-2.4163,-2.3707,0.0,-2.348,-2.4268,-2.5099,-2.5708,-2.6152,-2.7085,-2.754,-2.7395,-2.7642,-2.7639,-2.7322,-2.6504,-2.5769,-2.5225,-2.5149,-2.4535,-2.3229,-2.2454,-2.1002,0.0,0.0,0.0,0.0,0.0,0.0,0.0,0.0,0.0,0.0,0.0,-1.3441,-1.3407,0.0,0.0,0.0,-1.6884,-1.7636,-1.8684,-1.9335,0.0,0.0,0.0,0.0,0.0,0.0,0.0,-2.1075,-2.2426,-2.3136,-2.2733,-2.3596,-2.4222,-2.4183,-2.5319,-2.6242,-2.6518,0.0,-2.7953,-2.8004,-2.8151,-2.814,-2.7727,-2.7667,-2.7558,-2.726,-2.7186,-2.7186,-2.7186,-2.7171,-2.7186,-2.7186,-2.7186,-2.7186,-2.7186,-2.7186,-2.6782,-2.5839,-2.56,-2.56,-2.56,-2.56,-2.5674,-2.2897,-2.3263,-2.223,-2.2361,-2.3248,-2.3261,-2.3602,-2.4005,-2.3003,-2.2545,-2.2505,-2.1969,-2.142,-2.0986,-2.0751,0.0,-2.1457,-2.1943,-2.2512,-2.3195,-2.3711,-2.3737,-2.33,-2.3297,-2.3324,-2.3476,-2.3352,-2.3933,-2.5059,-2.4459,-2.4351,-2.4878,-2.4821,-2.4768,-2.477,-2.5894,-2.651,-2.6629,-2.721,-2.785,-2.8479,-2.7929,-2.7615,-2.7601,-2.641,-2.5437,-2.4865,-2.4887,-2.4341,-2.3114,-2.3029,-2.2203,-2.039,0.0,0.0,0.0,0.0,0.0,0.0,0.0,0.0,0.0,0.0,0.0,0.0,0.0,0.0,-1.8068,-1.9489,0.0,-1.9961,-2.0307,0.0,0.0,0.0,-2.0466,-2.0378,-2.0998,-2.1339,-2.1101,0.0,0.0,-2.2244,-2.3744,-2.4786,-2.4639,-2.5236,-2.5923,-2.6541,-2.7618,-2.8388,-2.8373,-2.8796,-2.9068,-2.8781,-2.8935,-2.9015,-2.919,-2.9537,-2.9472,-2.9415,-2.9457,-2.9562,-2.9415,-2.9592,-2.952,-2.9564,-2.9427,-2.8843,-2.6467,-2.6033,-2.6004,-2.6123,-2.6138,-2.6348,-2.4455,-2.456,-2.4285,-2.406,-2.3861,-2.3874,-2.3952,-2.4057,-2.3825,-2.3707,-2.3665,-2.3563,-2.342,-2.3276,-2.3145,-2.291,-2.2582,-2.2615,-2.2739,-2.291,-2.345,-2.3835,-2.4124,-2.4559,-2.4997,-2.5408,-2.5395,-2.5595,-2.6039,-2.5875,-2.5445,-2.48,-2.519,-2.5218,-2.4871,-2.5166,-2.5759,-2.6673,-2.6829,-2.7228,-2.7783,-2.7262,-2.6939,-2.6939,-2.5805,-2.4906,-2.4319,-2.431,-2.3964,-2.3189,-2.2776,-2.2154,-2.1226,-1.9612,0.0,0.0,0.0,0.0,0.0,0.0,0.0,0.0,0.0,-1.5446,-1.5647,0.0,-1.7693,0.0,-2.0013,-2.0711,-2.1003,-2.154,0.0,0.0,-2.2553,-2.2658,-2.1771,-2.2179,-2.2312,-2.1755,-2.2639,-2.3298,-2.3254,-2.4355,-2.5106,-2.4957,-2.6413,-2.7542,-2.7723,-2.7939,-2.7982,-2.7554,-2.7565,-2.7548,-2.7707,-2.8111,-2.8652,-2.8791,-2.9265,-2.9594,-2.9594,-2.9621,-2.9621,-2.9621,-2.9621,-2.9621,-2.9609,-2.9621,-2.9415,-2.8798,-2.8622,-2.8652,-2.8663,-2.8607,-2.8678,-2.5125,-2.5099,-2.4853,-2.4538,-2.4253,-2.4432,-2.4347,-2.407,-2.3738,-2.3605,-2.3605,-2.3547,-2.3518,-2.3518,-2.3444,-2.3193,-2.2897,-2.3055,-2.3295,-2.3522,-2.4072,-2.4507,-2.4814,-2.5153,-2.5568,-2.608,-2.5876,-2.5908,-2.6251,-2.6046,-2.5615,-2.4988,-2.5301,-2.5336,-2.5091,-2.5177,-2.57,-2.6694,-2.7003,-2.7409,-2.7966,-2.7437,-2.7145,-2.7087,-2.5747,-2.4848,-2.4504,-2.4243,-2.3838,-2.325,-2.3171,-2.2635,-2.1538,-2.0522,-1.9352,0.0,0.0,0.0,0.0,0.0,0.0,0.0,0.0,0.0,0.0,0.0,-1.8933,-2.0016,-2.1043,-2.1642,-2.1614,-2.193,-2.2115,-2.2128,-2.2657,-2.2738,-2.2074,-2.2708,-2.3048,-2.262,-2.3606,-2.4316,-2.4241,-2.4997,-2.5621,-2.5832,-2.7018,-2.7695,-2.7268,-2.7579,-2.7923,-2.7893,-2.8086,-2.8358,-2.8642,-2.9115,-2.9493,-2.971,-3.001,-3.0266,-3.0266,-3.0266,-3.0266,-3.0266,-3.0266,-3.0294,-3.0335,-3.0363,-3.0391,-3.0419,-3.0447,-3.0238,-2.9714,-2.9621,-2.9621,-2.5525,-2.5473,-2.4955,-2.4694,-2.4648,-2.4987,-2.4758,-2.4103,-2.3373,-2.3124,-2.316,-2.3122,-2.3145,-2.3116,-2.3074,-2.3074,-2.3029,-2.3526,-2.4024,-2.4478,-2.5046,-2.5346,-2.5346,-2.5409,-2.5716,-2.6118,-2.5691,-2.5716,-2.6164,-2.571,-2.5454,-2.5378,-2.5365,-2.5378,-2.539,-2.5475,-2.5867,-2.6563,-2.7259,-2.7871,-2.8355,-2.7834,-2.7525,-2.7454,-2.5845,-2.4931,-2.4918,-2.4367,-2.379,-2.3295,-2.3686,-2.3284,-2.185,-2.1536,-2.0707,0.0,-1.8488,0.0,0.0,0.0,0.0,0.0,0.0,0.0,0.0,-1.9326,-2.0105,-2.1038,-2.2063,-2.2485,-2.2063,-2.2074,-2.2137,-2.2214,-2.2278,-2.2316,-2.2339,-2.3169,-2.3726,-2.3576,-2.4562,-2.5192,-2.5096,-2.5556,-2.613,-2.6654,-2.7099,-2.7072,-2.6359,-2.7033,-2.7937,-2.8643,-2.9089,-2.9066,-2.9681,-3.0119,-3.03,-3.0644,-3.0748,-3.0984,-3.1028,-3.1058,-3.1087,-3.1073,-3.1028,-3.1073,-3.1248,-3.1248,-3.1277,-3.1319,-3.1304,-3.102,-3.0223,-2.9953,-2.9861,-2.6691,-2.6691,-2.6542,-2.6222,-2.5787,-2.5852,-2.5306,-2.4299,-2.3735,-2.3731,-2.4166,-2.4628,-2.482,-2.482,-2.4645,-2.4595,-2.4551,-2.4583,-2.462,-2.4746,-2.5295,-2.5534,-2.5572,-2.6059,-2.6337,-2.6425,-2.6324,-2.6358,-2.6595,-2.6481,-2.6202,-2.579,-2.579,-2.5777,-2.5764,0.0,0.0,0.0,-2.6854,-2.7466,-2.7657,-2.7013,-2.6634,-2.6608,-2.5319,0.0,-2.4571,-2.4013,-2.3636,-2.3521,-2.3228,0.0,0.0,0.0,0.0,0.0,0.0,0.0,0.0,0.0,0.0,0.0,-2.074,-2.0666,-1.9977,-2.0821,-2.1511,-2.1716,-2.192,-2.2217,-2.2521,-2.301,-2.3458,-2.3888,-2.4354,-2.4617,-2.4443,-2.4589,-2.4684,-2.457,-2.4759,-2.5048,-2.5451,-2.5613,-2.5914,-2.6489,-2.6663,-2.6625,-2.6417,-2.7044,-2.74,-2.7121,-2.7319,-2.7297,-2.7417,-2.8065,-2.878,-2.9237,-2.9903,-3.0418,-3.0925,-3.1087,-3.1087,-3.1087,-3.1087,-3.1087,-3.1132,-3.1132,-3.1132,-3.1176,-3.1176,-3.1175,-3.1139,-3.1122,-3.1137,-2.6739,-2.6748,-2.6422,-2.613,0.0,-2.5565,-2.5286,-2.4969,-2.4487,-2.4411,-2.4627,-2.4906,-2.5065,-2.5065,-2.4949,-2.5055,-2.5295,-2.5229,-2.536,-2.5636,-2.5912,-2.6059,-2.6072,-2.6361,-2.6487,-2.6487,-2.6487,-2.6521,-2.6577,-2.6602,-2.6485,-2.6207,-2.6194,-2.6207,-2.6194,-2.5895,-2.5782,-2.5859,-2.6425,-2.6884,-2.7209,-2.6884,-2.6696,-2.667,-2.5762,0.0,0.0,0.0,0.0,0.0,0.0,0.0,0.0,-2.2735,0.0,-2.1812,-2.1477,-2.1257,-2.1255,-2.1483,-2.1607,-2.1564,-2.2068,-2.2087,-2.1295,-2.1989,-2.2609,-2.293,-2.3153,-2.3432,-2.3697,-2.4006,-2.431,-2.4589,-2.4855,-2.5,-2.4929,-2.5144,-2.5262,-2.5234,-2.546,-2.5737,-2.6009,-2.6047,-2.6172,-2.6436,-2.6487,-2.6487,-2.6533,-2.6782,-2.6939,-2.696,-2.7317,-2.7504,-2.7571,-2.7835,-2.8168,-2.8748,-2.9331,-2.9886,-3.0296,-3.0642,-3.0866,-3.0866,-3.0866,-3.0866,-3.0925,-3.0955,-3.0984,-3.1073,-3.1087,-3.1132,-3.1278,-3.1366,-3.1438,-2.6487,-2.6449,-2.5984,-2.5783,-2.5711,-2.5297,-2.536,-2.5757,-2.5383,0.0,0.0,-2.5026,-2.5076,-2.5121,-2.5121,-2.5347,-2.5737,-2.5749,-2.6034,-2.6487,-2.6487,-2.6487,-2.6487,-2.6487,-2.6487,-2.6487,-2.6487,-2.6487,-2.6487,-2.6487,-2.6487,-2.6487,-2.6487,-2.6487,-2.6487,-2.6487,-2.6396,-2.6174,-2.6194,-2.6458,-2.6964,-2.6875,-2.679,-2.6803,-2.6194,-2.5868,-2.5855,-2.5454,-2.5211,-2.5211,-2.4733,-2.4269,-2.3828,-2.3293,-2.2765,-2.228,-2.2128,-2.2272,-2.2681,-2.2719,-2.2719,-2.2761,-2.3145,-2.317,-2.2619,-2.3083,-2.3597,-2.4104,-2.4556,-2.4813,-2.4913,-2.4926,-2.4976,-2.5096,-2.5109,-2.5121,-2.5146,-2.5473,-2.5783,-2.5799,-2.6172,-2.6487,-2.6461,-2.6461,-2.6487,-2.6487,-2.6487,-2.6487,-2.6487,-2.6521,-2.6726,-2.7129,-2.7517,-2.8019,-2.8117,-2.8019,-2.8168,-2.8266,-2.8807,-2.9233,-2.9467,-2.987,-3.0176,-3.0146,-3.0221,-3.0251,-3.0372,-3.0447,-3.0642,-3.0806,-3.094,-3.1028,-3.1043,-3.1117,-3.1263,-2.6487,-2.6487,-2.6399,-2.6373,-2.6361,-2.6298,-2.6311,-2.6361,-2.6319,-2.5984,-2.5523,-2.6047,-2.6273,-2.626,-2.626,-2.6311,-2.6373,-2.6373,-2.6424,-2.6487,-2.6487,-2.6487,-2.6487,-2.6487,-2.6487,-2.6487,-2.6487,-2.6487,-2.6487,-2.6487,-2.6487,-2.6499,-2.6487,-2.6499,-2.6487,-2.6487,-2.6483,-2.6429,-2.6544,-2.6752,-2.6977,-2.6391,-2.607,-2.6011,-2.5365,-2.4998,-2.4998,-2.4947,-2.4885,-2.4885,-2.4777,-2.4721,-2.4658,-2.4525,-2.4463,-2.4387,-2.4356,-2.4362,-2.4412,-2.4437,-2.4437,-2.4449,-2.4512,-2.4356,-2.3841,-2.4268,-2.4587,-2.4675,-2.4775,-2.5008,-2.541,-2.5485,-2.5674,-2.6113,-2.6248,-2.626,-2.6197,-2.6273,-2.6336,-2.6336,-2.6424,-2.6487,-2.6487,-2.6487,-2.6487,-2.6487,-2.6487,-2.6499,-2.6537,-2.6487,-2.6521,-2.6624,-2.6714,-2.6769,-2.7003,-2.6829,-2.7159,-2.7571,-2.7848,-2.8264,-2.8719,-2.8977,-2.9091,-2.8899,-2.9091,-2.9017,-2.899,-2.9345,-2.9891,-3.0088,-3.047,-3.0819,-3.0967,-3.1013,-3.1073,-2.6487,-2.6487,-2.6487,-2.6487,-2.6487,-2.6487,-2.6487,-2.6487,-2.6487,-2.6348,-2.6147,-2.6373,-2.6487,-2.6487,-2.6487,-2.6487,-2.6487,-2.6487,-2.6487,-2.6487,-2.6487,-2.6487,-2.6487,-2.6487,-2.6487,-2.6487,-2.6487,-2.6487,-2.6487,-2.6487,-2.665,-2.6927,-2.7228,-2.7392,-2.7356,-2.7392,-2.7392,-2.7344,-2.687,-2.6624,-2.6739,-2.6418,-2.6198,-2.6245,-2.5858,-2.5711,-2.5711,-2.5711,-2.5711,-2.5711,-2.541,-2.5247,-2.5234,-2.4983,-2.48,-2.48,-2.48,-2.48,-2.48,-2.48,-2.4913,-2.5209,-2.5247,-2.5285,-2.538,-2.5272,-2.5247,-2.5259,-2.5511,-2.5799,-2.6072,-2.6109,-2.621,-2.6461,-2.6487,-2.6487,-2.6487,-2.6487,-2.6487,-2.6487,-2.6487,-2.6487,-2.6487,-2.6487,-2.6487,-2.6487,-2.6487,-2.6587,-2.6889,-2.6939,-2.6813,-2.6562,-2.6487,-2.6637,-2.6876,-2.6939,-2.7192,-2.7748,-2.8148,-2.8446,-2.883,-2.9067,-2.9369,-2.9416,-2.9402,-2.9416,-2.9388,-3.0024,-3.0415,-3.059,-3.1128,-3.1582,-3.172,-3.1782,-3.1687,-2.6487,-2.6487,-2.6487,-2.6487,-2.6487,-2.6487,-2.6487,-2.6487,-2.6487,-2.6487,-2.6487,-2.6487,-2.6487,-2.6487,-2.6487,-2.6487,-2.6487,-2.6487,-2.6487,-2.6487,-2.6487,-2.6487,-2.6487,-2.6487,-2.6562,-2.6663,-2.6688,-2.6738,-2.6851,-2.6864,-2.7077,-2.7482,-2.7896,-2.8109,-2.8109,-2.8109,-2.8109,-2.8059,-2.7268,-2.6801,-2.6688,-2.6675,-2.6625,-2.6499,-2.6487,-2.6487,-2.6487,-2.6487,-2.6487,-2.6474,-2.6072,-2.5787,-2.5774,-2.541,-2.5184,-2.5184,-2.5197,-2.5184,-2.5197,-2.5197,-2.5372,-2.5749,-2.5787,-2.5988,-2.6399,-2.6084,-2.5799,-2.5871,-2.621,-2.6461,-2.6461,-2.6474,-2.6487,-2.6487,-2.6487,-2.6487,-2.6487,-2.6487,-2.6487,-2.6487,-2.6487,-2.6487,-2.6487,-2.6487,-2.6562,-2.6675,-2.6675,-2.6901,-2.7344,-2.7469,-2.7291,-2.7027,-2.6864,-2.7052,-2.7442,-2.7469,-2.7668,-2.8059,-2.8482,-2.8679,-2.8857,-2.9333,-2.964,-2.9525,-2.96,-2.949,-2.9696,-3.0221,-3.0554,-3.0567,-3.1114,-3.185,-3.2015,-3.2336,-3.2428,-2.6487,-2.6487,-2.6487,-2.6487,-2.6487,-2.6487,-2.6487,-2.6487,-2.6487,-2.6487,-2.6487,-2.6487,-2.6487,-2.6487,-2.6487,-2.6487,-2.6487,-2.6487,-2.6487,-2.6487,-2.6487,-2.6487,-2.6512,-2.6512,-2.6751,-2.719,-2.7205,-2.7444,-2.7846,-2.7921,-2.7971,-2.8021,-2.8097,-2.8147,-2.8134,-2.8147,-2.8134,-2.8109,-2.7996,-2.772,-2.7243,-2.7205,-2.7002,-2.6499,-2.6499,-2.6487,-2.6524,-2.6487,-2.6499,-2.6487,-2.6436,-2.6411,-2.6399,-2.6348,-2.6323,-2.6311,-2.6311,-2.6348,-2.6323,-2.6348,-2.6323,-2.6411,-2.6386,-2.6399,-2.6487,-2.6436,-2.6411,-2.6399,-2.6449,-2.6487,-2.6487,-2.6487,-2.6487,-2.6487,-2.6487,-2.6487,-2.6487,-2.6487,-2.6487,-2.6487,-2.6487,-2.6487,-2.6537,-2.66,-2.6763,-2.7155,-2.7241,-2.7406,-2.7921,-2.8034,-2.8072,-2.7971,-2.7946,-2.7959,-2.8047,-2.8034,-2.8122,-2.816,-2.8184,-2.8405,-2.8542,-2.8491,-2.8377,-2.9021,-2.8624,-2.8698,-2.872,-2.8818,-2.9451,-2.9949,-3.0375,-3.0767,-3.1329,-3.2068,-3.2466,-2.6487,-2.6487,-2.6487,-2.6487,-2.6487,-2.6487,-2.6487,-2.6487,-2.6487,-2.6487,-2.6487,-2.6487,-2.6487,-2.6487,-2.6487,-2.6487,-2.6487,-2.6487,-2.6487,-2.6487,-2.6487,-2.6675,-2.6964,-2.6977,-2.7278,-2.7733,-2.777,-2.7883,-2.8134,-2.8423,-2.8549,-2.8637,-2.8925,-2.9101,-2.9114,-2.9101,-2.9101,-2.9101,-2.9101,-2.8825,-2.8285,-2.7934,-2.767,-2.7457,-2.7444,-2.7268,-2.7014,-2.6977,-2.6826,-2.6524,-2.6487,-2.6487,-2.6487,-2.6487,-2.6487,-2.6487,-2.6487,-2.6487,-2.6487,-2.6487,-2.6487,-2.6487,-2.6487,-2.6487,-2.6487,-2.6487,-2.6487,-2.6487,-2.6487,-2.6487,-2.6487,-2.6487,-2.6487,-2.6487,-2.6487,-2.6487,-2.6487,-2.6487,-2.6487,-2.6487,-2.6487,-2.665,-2.6952,-2.7231,-2.7494,-2.7733,-2.777,-2.7984,-2.8486,-2.8599,-2.8712,-2.9026,-2.9101,-2.8938,-2.8662,-2.8562,-2.8725,-2.8976,-2.9101,-2.9101,-2.9051,-2.9089,-2.9152,-2.9076,-2.9013,-2.9026,-2.924,-2.9675,-3.0153,-3.0223,-3.072,-3.1425,-3.1742,-3.238,-3.2905,-2.6487,-2.6487,-2.6487,-2.6487,-2.6487,-2.6487,-2.6487,-2.6487,-2.6487,-2.6487,-2.6487,-2.6487,-2.6587,-2.6688,-2.6575,-2.6487,-2.6512,-2.665,-2.6725,-2.6738,-2.6864,-2.7165,-2.7482,-2.7519,-2.7795,-2.8247,-2.8335,-2.8411,-2.8599,-2.8913,-2.9126,-2.9227,-2.9578,-2.9779,-2.9779,-2.9779,-2.9779,-2.9779,-2.9779,-2.9578,-2.9164,-2.8775,-2.8423,-2.8147,-2.8109,-2.7921,-2.7568,-2.7519,-2.7256,-2.6751,-2.6725,-2.6637,-2.6512,-2.6487,-2.6487,-2.6487,-2.6487,-2.6487,-2.6487,-2.6487,-2.6487,-2.6487,-2.6487,-2.6487,-2.6487,-2.6487,-2.6487,-2.6487,-2.6487,-2.6487,-2.6487,-2.6487,-2.6487,-2.6487,-2.6487,-2.6487,-2.6487,-2.66,-2.6725,-2.6725,-2.6939,-2.709,-2.7469,-2.7821,-2.8084,-2.8273,-2.8348,-2.8524,-2.9013,-2.9139,-2.9327,-2.9716,-2.9767,-2.9616,-2.9214,-2.9126,-2.9402,-2.9578,-2.9704,-2.9679,-2.9779,-2.9779,-2.9779,-2.9465,-2.9704,-2.9741,-2.9578,-3.0189,-3.0556,-3.0745,-3.118,-3.1642,-3.1585,-3.2464,-3.3045,-2.6487,-2.6512,-2.6512,-2.6562,-2.6512,-2.6537,-2.6524,-2.66,-2.6549,-2.6524,-2.6575,-2.6562,-2.6801,-2.7193,-2.6801,-2.6537,-2.6587,-2.7065,-2.7278,-2.7293,-2.7745,-2.8034,-2.8072,-2.8084,-2.836,-2.8825,-2.885,-2.9151,-2.9616,-2.9704,-2.9754,-2.9741,-2.9767,-2.9779,-2.9779,-2.9779,-2.9779,-2.9779,-2.9779,-2.9767,-2.9729,-2.9691,-2.9151,-2.831,-2.811,-2.8074,-2.8059,-2.8072,-2.7821,-2.7268,-2.7278,-2.7052,-2.66,-2.6524,-2.6524,-2.6465,-2.6452,-2.6452,-2.6383,-2.6336,-2.6349,-2.6383,-2.6267,-2.6418,-2.6211,-2.6317,-2.6389,-2.6443,-2.6496,-2.6578,-2.6565,-2.6515,-2.6524,-2.6549,-2.6537,-2.6537,-2.6562,-2.7052,-2.7253,-2.7331,-2.7634,-2.791,-2.8023,-2.8097,-2.8399,-2.8725,-2.885,-2.9076,-2.9503,-2.9704,-2.9741,-2.9754,-2.9779,-2.9767,-2.9741,-2.9616,-2.9666,-2.9779,-2.9779,-2.9779,-2.9779,-2.9779,-2.9779,-2.9779,-2.9779,-2.9792,-2.9792,-2.9856,-2.9908,-3.0139,-3.0558,-3.0908,-3.0959,-3.2241,-3.2741,-2.7507,-2.7519,-2.7519,-2.7507,-2.7519,-2.7507,-2.7507,-2.7507,-2.7507,-2.7519,-2.7542,-2.7519,-2.7632,-2.7795,-2.7607,-2.7519,-2.7532,-2.7733,-2.7795,-2.7833,-2.8021,-2.8285,-2.8574,-2.8587,-2.8925,-2.9415,-2.949,-2.9578,-2.9754,-2.965,-2.965,-2.9753,-2.9611,-2.9599,-2.974,-2.9779,-2.9779,-2.9779,-2.9779,-2.9779,-2.9779,-2.9779,-2.9578,-2.9189,-2.8656,-2.8445,-2.8599,-2.8075,-2.7779,-2.7797,-2.7808,-2.772,-2.7519,-2.7203,-2.6594,-2.5865,-2.5734,-2.5523,-2.5028,-2.485,-2.4767,-2.4755,-2.4648,-2.4731,-2.4718,-2.5326,-2.5865,-2.5997,-2.671,-2.7087,-2.7047,-2.6751,-2.6637,-2.6952,-2.7027,-2.7118,-2.7444,-2.7695,-2.7784,-2.7714,-2.8002,-2.8325,-2.8587,-2.88,-2.9074,-2.9389,-2.9478,-2.9566,-2.9691,-2.9779,-2.9779,-2.9779,-2.9779,-2.9779,-2.9779,-2.9779,-2.9779,-2.9779,-2.9779,-2.9779,-2.9779,-2.9779,-2.9779,-2.9779,-2.9779,-2.9779,-2.9792,-2.9753,-2.9753,-2.9856,-3.0241,-3.0266,-3.0216,-3.1392,-3.1769,-2.8109,-2.8109,-2.8109,-2.8109,-2.8109,-2.8109,-2.8109,-2.8109,-2.8109,-2.8109,-2.8109,-2.8109,-2.8197,-2.8348,-2.8373,-2.8499,-2.8612,-2.8486,-2.8373,-2.8398,-2.8561,-2.885,-2.9151,-2.9176,-2.9377,-2.96,-2.9624,-2.9585,-2.9611,-2.9404,-2.9404,-2.9546,-2.9443,-2.9457,-2.965,-2.9753,-2.9779,-2.9779,-2.9779,-2.9779,-2.9779,-2.9779,-2.9779,-2.9624,-2.8621,-2.8227,-2.8731,-2.8476,-2.8142,-2.8027,-2.8213,-2.8298,-2.8084,-2.748,-2.6735,-2.5901,-2.5527,-2.5091,-2.4565,-2.4565,-2.4687,-2.4554,-2.4454,-2.4331,-2.4391,-2.4949,-2.5223,-2.5527,-2.6312,-2.7037,-2.7028,-2.6904,-2.7014,-2.7387,-2.7413,-2.7551,-2.795,-2.8076,-2.8201,-2.8262,-2.8445,-2.8706,-2.9036,-2.9234,-2.9485,-2.974,-2.9779,-2.9779,-2.9779,-2.9779,-2.9779,-2.9779,-2.9779,-2.9779,-2.9779,-2.9779,-2.9779,-2.9779,-2.9779,-2.9779,-2.9779,-2.9779,-2.9779,-2.9779,-2.9779,-2.9779,-2.9779,-2.9753,-2.9753,-2.974,-2.9767,-2.9819,-3.005,-3.0457,-3.0908,-2.8172,-2.821,-2.8147,-2.8235,-2.8273,-2.8285,-2.8185,-2.8247,-2.8222,-2.8298,-2.8348,-2.8222,-2.8462,-2.8813,-2.8812,-2.9176,-2.9439,-2.9101,-2.89,-2.8938,-2.9428,-2.9654,-2.9704,-2.9691,-2.9575,-2.9419,-2.9209,-2.9236,-2.938,-2.9197,-2.9131,-2.917,-2.9314,-2.9341,-2.9392,-2.9611,-2.9792,-2.9792,-2.9779,-2.9779,-2.9779,-2.9702,-2.9624,-2.9456,-2.7891,-2.7331,-2.8323,-2.9003,-2.8694,-2.7845,-2.8295,-2.8562,-2.7866,-2.7186,-2.6714,-2.6368,-2.5834,-2.5347,-2.5081,-2.5559,-2.5578,-2.5451,-2.5723,-2.5325,-2.5111,-2.4965,-2.4759,-2.4876,-2.5615,-2.615,-2.63,-2.6784,-2.7397,-2.7767,-2.7681,-2.7669,-2.7916,-2.8112,-2.8478,-2.887,-2.8954,-2.9133,-2.9328,-2.9355,-2.9431,-2.9611,-2.9753,-2.9779,-2.974,-2.974,-2.9779,-2.9779,-2.9779,-2.9779,-2.9779,-2.9779,-2.9779,-2.9779,-2.9779,-2.9779,-2.9779,-2.9779,-2.974,-2.9689,-2.9585,-2.9585,-2.965,-2.9611,-2.9534,-2.9534,-2.9482,-2.9509,-2.9806,-3.0139,-3.0507,-2.9264,-2.9277,-2.9264,-2.9264,-2.9264,-2.9264,-2.9277,-2.9264,-2.9264,-2.9264,-2.9226,-2.9074,-2.9098,-2.9171,-2.9105,-2.9192,-2.9496,-2.9322,-2.9324,-2.9439,-2.9704,-2.9779,-2.9779,-2.9779,-2.9663,-2.9392,-2.9197,-2.9131,-2.9131,-2.9013,-2.8922,-2.9079,-2.9,-2.9079,-2.9197,-2.9404,-2.9521,-2.956,-2.9702,-2.9779,-2.9714,-2.9028,-2.8636,-2.8478,-2.729,-2.6513,-2.6213,-2.6595,-2.6989,-2.7168,-2.7392,-2.7147,-2.6519,-2.6297,-2.5812,-2.4999,-2.4653,-2.4151,-2.3615,-2.3596,-2.3687,-2.3465,-2.3384,-2.3213,-2.3335,-2.387,-2.4089,-2.4223,-2.5153,-2.5891,-2.5931,-2.6105,-2.6825,-2.7997,-2.8074,-2.8107,-2.8402,-2.857,-2.8817,-2.9003,-2.8855,-2.8855,-2.9079,-2.9197,-2.9248,-2.9339,-2.9585,-2.974,-2.9611,-2.9663,-2.9779,-2.9779,-2.9779,-2.9779,-2.974,-2.9702,-2.9702,-2.9702,-2.974,-2.9779,-2.9779,-2.9779,-2.9689,-2.9573,-2.9456,-2.9417,-2.9456,-2.9404,-2.9326,-2.9326,-2.9314,-2.9392,-2.9548,-2.9767,-3.0101,-2.9779,-2.9779,-2.9779,-2.9779,-2.9779,-2.9779,-2.974,-2.965,-2.965,-2.9611,-2.9482,-2.9353,-2.9314,-2.9225,-2.8961,-2.8707,-2.858,-2.8409,-2.8234,-2.8382,-2.937,-2.9638,-2.9611,-2.9495,-2.9417,-2.9248,-2.9013,-2.8934,-2.8973,-2.8803,-2.8724,-2.8816,-2.8803,-2.887,-2.9,-2.9275,-2.938,-2.9419,-2.9663,-2.9779,-2.9573,-2.8688,-2.8084,-2.7884,-2.6655,-2.5672,-2.5115,-2.4935,-2.5242,-2.6182,-2.6513,-2.6427,-2.5983,-2.588,-2.5381,-2.4635,-2.4163,-2.3784,-2.3172,-2.3338,-2.3121,-2.3047,-2.2932,-2.2942,-2.2972,-2.3488,-2.3505,-2.3703,-2.4587,-2.5326,-2.5358,-2.5641,-2.6285,-2.7205,-2.7277,-2.7668,-2.8176,-2.8275,-2.8435,-2.8618,-2.8669,-2.8709,-2.8895,-2.9,-2.9052,-2.9131,-2.9339,-2.9507,-2.9392,-2.9482,-2.956,-2.9702,-2.9753,-2.9702,-2.965,-2.9611,-2.9611,-2.9624,-2.9663,-2.974,-2.9779,-2.9779,-2.974,-2.9521,-2.9353,-2.9248,-2.9287,-2.9131,-2.904,-2.9079,-2.9256,-2.9197,-2.9275,-2.9365,-2.9586,-2.9624,-2.9624,-2.9663,-2.9624,-2.9624,-2.9714,-2.9611,-2.9419,-2.9419,-2.9302,-2.917,-2.9091,-2.9013,-2.889,-2.839,-2.7858,-2.7152,-2.6717,-2.6283,-2.6469,-2.7717,-2.8841,-2.8802,-2.856,-2.8581,-2.8803,-2.8538,-2.8526,-2.8764,-2.8618,-2.851,-2.855,-2.8697,-2.8712,-2.8673,-2.9067,-2.9133,-2.9015,-2.9326,-2.9456,-2.9378,-2.8398,-2.7804,-2.7631,-2.5817,-2.4745,-2.467,-2.4059,-2.4026,-2.4967,-2.5724,-2.6005,-2.6077,-2.5694,-2.5115,-2.4767,-2.4392,-2.3975,-2.3757,-2.3884,-2.4246,-2.4012,-2.4012,-2.4413,-2.401,-2.3484,-2.3221,-2.3231,-2.392,-2.4413,-2.4573,-2.4946,-2.5462,-2.5652,-2.5939,-2.6438,-2.7069,-2.7296,-2.7765,-2.8339,-2.851,-2.859,-2.8764,-2.8803,-2.8882,-2.8961,-2.9091,-2.917,-2.917,-2.9236,-2.9341,-2.9443,-2.9546,-2.9534,-2.9443,-2.9404,-2.9404,-2.9417,-2.9456,-2.9546,-2.9585,-2.9573,-2.9722,-2.9489,-2.9268,-2.9165,-2.9221,-2.926,-2.9245,-2.9358,-2.9325,-2.9056,-2.9184,-2.9499,-2.9603,-2.7718,-2.7637,-2.8263,-2.853,-2.8636,-2.9184,-2.9431,-2.9367,-2.9341,-2.9145,-2.904,-2.8922,-2.8435,-2.7896,-2.7589,-2.7077,-2.6346,-2.587,-2.578,-2.5735,-2.6103,-2.6593,-2.6737,-2.6863,-2.725,-2.781,-2.7834,-2.7886,-2.8538,-2.8498,-2.8471,-2.851,-2.8419,-2.8207,-2.7794,-2.8011,-2.7839,-2.7424,-2.7678,-2.7851,-2.7678,-2.6625,-2.59,-2.5744,-2.4425,-2.3681,-2.3637,-2.3343,-2.3396,-2.382,-2.4122,-2.4198,-2.4145,-2.4112,-2.4122,-2.3993,-2.3841,-2.3677,-2.3537,-2.357,-2.356,-2.3474,-2.356,-2.3474,-2.344,-2.3266,-2.3101,-2.3144,-2.3396,-2.3517,-2.3517,-2.3724,-2.3844,-2.3983,-2.4904,-2.6038,-2.6887,-2.7214,-2.7563,-2.8299,-2.8471,-2.855,-2.8578,-2.8697,-2.8764,-2.8736,-2.8895,-2.9013,-2.8961,-2.904,-2.9157,-2.9157,-2.9209,-2.9209,-2.9197,-2.917,-2.917,-2.917,-2.9209,-2.9221,-2.9209,-2.917,-2.9428,-2.957,-2.9358,-2.9225,-2.9675,-2.9944,-2.9913,-2.9682,-2.9772,-2.9727,-2.9939,-3.0233,-3.0241,-2.6905,-2.6823,-2.7261,-2.7424,-2.7493,-2.7988,-2.8108,-2.8004,-2.8004,-2.7907,-2.7718,-2.7609,-2.7273,-2.676,-2.6404,-2.5853,-2.5126,-2.4481,-2.4049,-2.3841,-2.393,-2.4656,-2.5617,-2.6248,-2.6864,-2.7313,-2.7592,-2.8018,-2.8339,-2.8167,-2.7966,-2.7805,-2.7551,-2.708,-2.6712,-2.7028,-2.7017,-2.6648,-2.6812,-2.6976,-2.6853,-2.5672,-2.5073,-2.4745,-2.3767,-2.3101,-2.3091,-2.3101,-2.3188,-2.3319,-2.3319,-2.3276,-2.3135,-2.3363,-2.346,-2.3373,-2.3416,-2.346,-2.3319,-2.3188,-2.3091,-2.3091,-2.3101,-2.3101,-2.3135,-2.3101,-2.3101,-2.3101,-2.3101,-2.3101,-2.3101,-2.3101,-2.3101,-2.3309,-2.4059,-2.52,-2.6464,-2.6588,-2.7214,-2.8047,-2.851,-2.851,-2.851,-2.8618,-2.8578,-2.8578,-2.8669,-2.8736,-2.8697,-2.8855,-2.8973,-2.8973,-2.9013,-2.904,-2.9,-2.8961,-2.8895,-2.8895,-2.8934,-2.8934,-2.8998,-2.8931,-2.9276,-2.9516,-2.9383,-2.9472,-3.0025,-3.0332,-3.0073,-3.0018,-3.0199,-3.0302,-3.0422,-3.0622,-3.0657,-2.6472,-2.6431,-2.6348,-2.6307,-2.6348,-2.6442,-2.6543,-2.6191,-2.6315,-2.6171,-2.6027,-2.5861,-2.5944,-2.563,-2.5296,-2.4573,-2.3752,-2.3124,-2.2312,-2.2119,-2.2296,-2.3338,-2.5145,-2.5786,-2.6423,-2.6917,-2.7805,-2.8007,-2.7926,-2.747,-2.7092,-2.6928,-2.6287,-2.583,-2.5788,-2.6069,-2.6235,-2.6027,-2.6069,-2.6152,-2.5986,-2.5094,-2.4585,-2.4382,-2.3671,-2.3135,-2.3101,-2.3101,-2.3101,-2.3101,-2.3101,-2.3101,-2.3135,-2.3363,-2.3319,-2.3232,-2.3276,-2.3319,-2.3144,-2.3144,-2.3101,-2.3101,-2.3101,-2.3101,-2.3101,-2.3101,-2.3101,-2.3101,-2.3101,-2.3101,-2.3101,-2.3101,-2.3101,-2.3135,-2.3212,-2.3973,-2.52,-2.5746,-2.6494,-2.8167,-2.8471,-2.851,-2.851,-2.851,-2.851,-2.8498,-2.859,-2.859,-2.8578,-2.8697,-2.8736,-2.8776,-2.8843,-2.8922,-2.8843,-2.8764,-2.8697,-2.863,-2.863,-2.8721,-2.8876,-2.8974,-2.9213,-2.9423,-2.9747,-3.005,-3.0453,-3.0501,-3.0362,-3.0434,-3.0748,-3.0549,-3.0405,-3.0755,-3.0913,-2.4337,-2.4251,-2.4925,-2.5147,-2.5294,-2.588,-2.6119,-2.6025,-2.6025,-2.5797,-2.5777,-2.5735,-2.5368,-2.4787,-2.4576,-2.4141,-2.3322,-2.275,-2.2362,-2.2298,-2.2305,-2.2775,-2.3697,-2.4112,-2.4861,-2.5704,-2.5537,-2.6174,-2.6887,-2.6629,-2.608,-2.6038,-2.5746,-2.5453,-2.4914,-2.5041,-2.4787,-2.4327,-2.4423,-2.4584,-2.4584,-2.4198,-2.382,-2.3777,-2.3353,-2.3135,-2.3101,-2.3101,-2.3101,-2.3101,-2.3101,-2.3101,-2.3135,-2.3178,-2.3178,-2.3144,-2.3144,-2.3188,-2.3101,-2.3101,-2.3101,-2.3101,-2.3101,-2.3101,-2.3101,-2.3101,-2.3101,-2.3101,-2.3101,-2.3101,-2.3101,-2.3101,-2.3101,-2.3101,-2.3135,-2.3517,-2.4573,-2.54,-2.6577,-2.7886,-2.8471,-2.851,-2.8471,-2.8471,-2.8471,-2.851,-2.8471,-2.8471,-2.8471,-2.8419,-2.8538,-2.8538,-2.8657,-2.8697,-2.8315,-2.8155,-2.7903,-2.7834,-2.7926,-2.8219,-2.8427,-2.8984,-2.9251,-2.9773,-3.0344,-3.0681,-3.0934,-3.1187,-3.1175,-3.1247,-3.1259,-3.1151,-3.1079,-3.1187,-3.1151,-2.358,-2.3537,-2.3864,-2.4026,-2.4092,-2.45,-2.4702,-2.4702,-2.4713,-2.4628,-2.4563,-2.452,-2.4274,-2.3854,-2.382,-2.3507,-2.3124,-2.2705,-2.25,-2.249,-2.2519,-2.2744,-2.3023,-2.3178,-2.3854,-2.4988,-2.5242,-2.5746,-2.608,-2.5704,-2.52,-2.5115,-2.4819,-2.4284,-2.3983,-2.4079,-2.395,-2.3711,-2.359,-2.3677,-2.3624,-2.345,-2.3319,-2.3319,-2.3188,-2.3101,-2.3101,-2.3101,-2.3101,-2.3101,-2.3101,-2.3101,-2.3101,-2.3101,-2.3101,-2.3101,-2.3101,-2.3101,-2.3101,-2.3101,-2.3101,-2.3101,-2.3101,-2.3101,-2.3101,-2.3101,-2.3101,-2.3101,-2.3101,-2.3101,-2.3101,-2.3101,-2.3101,-2.3101,-2.3101,-2.3527,-2.437,-2.5284,-2.6276,-2.7592,-2.8219,-2.8139,-2.8139,-2.8099,-2.7672,-2.7377,-2.7713,-2.7765,-2.7765,-2.7805,-2.8179,-2.8299,-2.8471,-2.8339,-2.7834,-2.7418,-2.6946,-2.6876,-2.6794,-2.7255,-2.7655,-2.8433,-2.9266,-2.9881,-3.0537,-3.1043,-3.132,-3.1609,-3.1705,-3.1585,-3.1536,-3.1657,-3.1657,-3.1488,-3.1464,-2.346,-2.3416,-2.3188,-2.3101,-2.3101,-2.3178,-2.3222,-2.3178,-2.3101,-2.3343,-2.3135,-2.3101,-2.3309,-2.3135,-2.3178,-2.3135,-2.3003,-2.2852,-2.2643,-2.2633,-2.2633,-2.2861,-2.3052,-2.3178,-2.3474,-2.4327,-2.4744,-2.5242,-2.5284,-2.4787,-2.4284,-2.4155,-2.3604,-2.3353,-2.3266,-2.3319,-2.345,-2.3406,-2.3406,-2.345,-2.3406,-2.3222,-2.3144,-2.3135,-2.3135,-2.3101,-2.3101,-2.3101,-2.3101,-2.3101,-2.3101,-2.3101,-2.3101,-2.3101,-2.3101,-2.3101,-2.3101,-2.3101,-2.3101,-2.3101,-2.3101,-2.3101,-2.3101,-2.3101,-2.3101,-2.3101,-2.3101,-2.3101,-2.3101,-2.3101,-2.3101,-2.3101,-2.3101,-2.3101,-2.3101,-2.3474,-2.4198,-2.5073,-2.5913,-2.6846,-2.7551,-2.7713,-2.7458,-2.7244,-2.67,-2.6329,-2.6712,-2.6969,-2.6969,-2.7115,-2.7452,-2.7679,-2.7766,-2.7707,-2.7254,-2.6794,-2.6287,-2.6121,-2.5955,-2.634,-2.688,-2.7546,-2.8403,-2.9838,-3.0567,-3.1052,-3.1424,-3.1645,-3.1705,-3.1705,-3.1705,-3.1705,-3.1705,-3.1705,-3.1661,-2.3144,-2.3144,-2.3101,-2.3101,-2.3101,-2.3101,-2.3101,-2.3101,-2.3101,-2.3101,-2.3101,-2.3101,-2.3101,-2.3101,-2.3101,-2.3101,-2.3062,-2.2955,-2.2945,-2.2945,-2.2945,-2.3042,-2.3062,-2.3091,-2.3212,-2.3256,-2.3681,-2.4112,-2.436,-2.382,-2.3527,-2.3353,-2.3222,-2.3101,-2.3101,-2.3144,-2.3188,-2.3232,-2.3232,-2.3222,-2.3178,-2.3135,-2.3101,-2.3101,-2.3101,-2.3101,-2.3101,-2.3101,-2.3101,-2.3101,-2.3101,-2.3101,-2.3101,-2.3101,-2.3101,-2.3101,-2.3101,-2.3101,-2.3101,-2.3101,-2.3101,-2.3101,-2.3101,-2.3101,-2.3101,-2.3101,-2.3101,-2.3101,-2.3101,-2.3101,-2.3101,-2.3101,-2.3101,-2.3101,-2.3135,-2.3178,-2.3517,-2.4231,-2.5031,-2.5799,-2.6588,-2.7133,-2.667,-2.6329,-2.5986,-2.5663,-2.5788,-2.5997,-2.6038,-2.6249,-2.6542,-2.6771,-2.6981,-2.6863,-2.6634,-2.6143,-2.5704,-2.5579,-2.5453,-2.5537,-2.6045,-2.6512,-2.7467,-2.8943,-3.019,-3.0893,-3.1243,-3.1371,-3.1282,-3.1003,-3.1282,-3.1617,-3.1294,-3.1003,-3.1427,-2.3101,-2.3101,-2.3101,-2.3101,-2.3101,-2.3101,-2.3101,-2.3101,-2.3101,-2.3101,-2.3101,-2.3101,-2.3101,-2.3101,-2.3101,-2.3101,-2.3101,-2.3101,-2.3101,-2.3101,-2.3101,-2.3101,-2.3101,-2.3101,-2.3101,-2.3135,-2.3144,-2.3309,-2.3681,-2.3396,-2.3101,-2.3101,-2.3101,-2.3101,-2.3101,-2.3101,-2.3101,-2.3101,-2.3101,-2.3101,-2.3101,-2.3101,-2.3101,-2.3101,-2.3101,-2.3101,-2.3101,-2.3101,-2.3101,-2.3101,-2.3101,-2.3101,-2.3101,-2.3101,-2.3101,-2.3101,-2.3101,-2.3101,-2.3101,-2.3101,-2.3101,-2.3101,-2.3101,-2.3101,-2.3101,-2.3101,-2.3101,-2.3101,-2.3101,-2.3101,-2.3101,-2.3101,-2.3101,-2.3101,-2.3101,-2.3101,-2.3309,-2.3983,-2.436,-2.4734,-2.5568,-2.5913,-2.5495,-2.5284,-2.52,-2.5073,-2.4946,-2.5052,-2.5147,-2.5391,-2.5679,-2.6141,-2.6357,-2.6109,-2.5815,-2.5304,-2.4914,-2.4787,-2.4776,-2.4861,-2.5105,-2.5551,-2.6606,-2.7981,-2.9164,-2.9836,-3.0067,-2.9841,-3.0022,-3.0249,-3.017,-3.0125,-3.026,-3.0396,-3.0722,-2.3101,-2.3101,-2.3101,-2.3101,-2.3101,-2.3101,-2.3101,-2.3101,-2.3101,-2.3101,-2.3101,-2.3101,-2.3101,-2.3101,-2.3101,-2.3101,-2.3101,-2.3101,-2.3101,-2.3101,-2.3101,-2.3101,-2.3101,-2.3101,-2.3101,-2.3101,-2.3101,-2.3101,-2.3222,-2.3144,-2.3101,-2.3101,-2.3101,-2.3101,-2.3101,-2.3101,-2.3101,-2.3101,-2.3101,-2.3101,-2.3101,-2.3101,-2.3101,-2.3101,-2.3101,-2.3101,-2.3101,-2.3101,-2.3101,-2.3101,-2.3101,-2.3101,-2.3101,-2.3101,-2.3101,-2.3101,-2.3101,-2.3101,-2.3101,-2.3101,-2.3101,-2.3101,-2.3101,-2.3101,-2.3101,-2.3101,-2.3101,-2.3101,-2.3101,-2.3101,-2.3101,-2.3101,-2.3101,-2.3101,-2.3101,-2.3144,-2.3266,-2.3517,-2.3647,-2.4102,-2.4766,-2.4787,-2.4476,-2.4327,-2.4231,-2.4145,-2.4069,-2.4306,-2.4433,-2.4628,-2.5001,-2.5612,-2.5782,-2.5433,-2.4975,-2.4344,-2.3978,-2.3777,-2.381,-2.3897,-2.4171,-2.4508,-2.5662,-2.6646,-2.6856,-2.7407,-2.7828,-2.868,-2.9143,-2.928,-2.8866,-2.8912,-2.9326,-2.9567,-2.9795,-2.3101,-2.3101,-2.3101,-2.3101,-2.3101,-2.3101,-2.3101,-2.3101,-2.3101,-2.3101,-2.3101,-2.3101,-2.3101,-2.3101,-2.3101,-2.3101,-2.3101,-2.3101,-2.3101,-2.3101,-2.3101,-2.3101,-2.3101,-2.3101,-2.3101,-2.3101,-2.3101,-2.3101,-2.3101,-2.3101,-2.3101,-2.3101,-2.3101,-2.3101,-2.3101,-2.3101,-2.3101,-2.3101,-2.3101,-2.3101,-2.3101,-2.3101,-2.3101,-2.3101,-2.3101,-2.3101,-2.3101,-2.3101,-2.3101,-2.3101,-2.3101,-2.3101,-2.3101,-2.3101,-2.3101,-2.3101,-2.3101,-2.3101,-2.3101,-2.3101,-2.3101,-2.3101,-2.3101,-2.3101,-2.3101,-2.3101,-2.3101,-2.3101,-2.3101,-2.3101,-2.3101,-2.3101,-2.3101,-2.3101,-2.3101,-2.3101,-2.3178,-2.3266,-2.3353,-2.3353,-2.393,-2.3807,-2.3553,-2.3426,-2.3309,-2.3222,-2.3227,-2.3565,-2.3945,-2.4262,-2.4695,-2.5406,-2.5446,-2.5032,-2.4611,-2.389,-2.3452,-2.312,-2.3144,-2.3178,-2.3499,-2.3867,-2.4058,-2.4806,-2.5072,-2.5987,-2.7285,-2.8075,-2.8495,-2.8355,-2.7945,-2.8226,-2.8773,-2.8866,-2.8866,-2.3101,-2.3101,-2.3101,-2.3101,-2.3101,-2.3101,-2.3101,-2.3101,-2.3101,-2.3101,-2.3101,-2.3101,-2.3101,-2.3101,-2.3101,-2.3101,-2.3101,-2.3101,-2.3101,-2.3101,-2.3101,-2.3101,-2.3101,-2.3101,-2.3101,-2.3101,-2.3101,-2.3101,-2.3101,-2.3101,-2.3101,-2.3101,-2.3101,-2.3101,-2.3101,-2.3101,-2.3101,-2.3101,-2.3101,-2.3101,-2.3101,-2.3101,-2.3101,-2.3101,-2.3101,-2.3101,-2.3101,-2.3101,-2.3101,-2.3101,-2.3101,-2.3101,-2.3101,-2.3101,-2.3101,-2.3101,-2.3101,-2.3101,-2.3101,-2.3101,-2.3101,-2.3101,-2.3101,-2.3101,-2.3101,-2.3101,-2.3101,-2.3101,-2.3101,-2.3101,-2.3101,-2.3101,-2.3101,-2.3101,-2.3101,-2.3101,-2.3101,-2.3101,-2.3135,-2.3091,-2.314,-2.3266,-2.3354,-2.3359,-2.3394,-2.3384,-2.3447,-2.3742,-2.412,-2.4464,-2.4925,-2.5446,-2.5191,-2.4733,-2.4335,-2.3779,-2.3389,-2.312,-2.3101,-2.3135,-2.3135,-2.332,-2.3617,-2.4023,-2.4595,-2.5668,-2.6882,-2.7115,-2.7115,-2.7067,-2.6982,-2.7258,-2.7531,-2.7804,-2.7934,-2.3101,-2.3101,-2.3101,-2.3101,-2.3101,-2.3101,-2.3101,-2.3101,-2.3101,-2.3101,-2.3101,-2.3101,-2.3101,-2.3101,-2.3101,-2.3101,-2.3101,-2.3101,-2.3101,-2.3101,-2.3101,-2.3101,-2.3101,-2.3101,-2.3101,-2.3101,-2.3101,-2.3101,-2.3101,-2.3101,-2.3101,-2.3101,-2.3101,-2.3101,-2.3101,-2.3101,-2.3101,-2.3101,-2.3101,-2.3101,-2.3101,-2.3101,-2.3101,-2.3101,-2.3101,-2.3101,-2.3101,-2.3101,-2.3101,-2.3101,-2.3101,-2.3101,-2.3101,-2.3101,-2.3101,-2.3101,-2.3101,-2.3101,-2.3101,-2.3101,-2.3101,-2.3101,-2.3101,-2.3101,-2.3101,-2.3101,-2.3101,-2.3101,-2.3101,-2.3101,-2.3101,-2.3101,-2.3101,-2.3101,-2.3101,-2.3101,-2.312,-2.3179,-2.3276,-2.3383,-2.3506,-2.3643,-2.3682,-2.3569,-2.3539,-2.351,-2.3701,-2.3945,-2.4336,-2.4775,-2.5137,-2.5615,-2.5409,-2.4876,-2.434,-2.3851,-2.3432,-2.312,-2.3101,-2.3101,-2.3101,-2.3227,-2.3545,-2.3916,-2.4355,-2.509,-2.6179,-2.5915,-2.5732,-2.6052,-2.6284,-2.6004,-2.6139,-2.6552,-2.6877,-2.3101,-2.3101,-2.3101,-2.3101,-2.3101,-2.3101,-2.3101,-2.3101,-2.3101,-2.3101,-2.3101,-2.3101,-2.3101,-2.3101,-2.3101,-2.3101,-2.3101,-2.3101,-2.3101,-2.3101,-2.3101,-2.3101,-2.3101,-2.3101,-2.3101,-2.3101,-2.3101,-2.3101,-2.3101,-2.3101,-2.3101,-2.3101,-2.3101,-2.3101,-2.3101,-2.3101,-2.3101,-2.3101,-2.3101,-2.3101,-2.3101,-2.3101,-2.3101,-2.3101,-2.3101,-2.3101,-2.3101,-2.3101,-2.3101,-2.3101,-2.3101,-2.3101,-2.3101,-2.3101,-2.3101,-2.3101,-2.3101,-2.3101,-2.3101,-2.3101,-2.3101,-2.3101,-2.3101,-2.3101,-2.3101,-2.3101,-2.3101,-2.3101,-2.3101,-2.3101,-2.3101,-2.3101,-2.3101,-2.313,-2.3169,-2.3257,-2.3286,-2.3335,-2.3452,-2.3682,-2.3838,-2.3994,-2.4189,-2.417,-2.4014,-2.3939,-2.4199,-2.4434,-2.4844,-2.5254,-2.5439,-2.5645,-2.5606,-2.5195,-2.4512,-2.4036,-2.3627,-2.3266,-2.3101,-2.3101,-2.3101,-2.3266,-2.3428,-2.3984,-2.4473,-2.4953,-2.5401,-2.5567,-2.5684,-2.5684,-2.5684,-2.5684,-2.5684,-2.6052,-2.6091,-2.3101,-2.3101,-2.3101,-2.3101,-2.3101,-2.3101,-2.3101,-2.3101,-2.3101,-2.3101,-2.3101,-2.3101,-2.3101,-2.3101,-2.3101,-2.3101,-2.3101,-2.3101,-2.3101,-2.3101,-2.3101,-2.3101,-2.3101,-2.3101,-2.3101,-2.3101,-2.3101,-2.3101,-2.3101,-2.3101,-2.3101,-2.3101,-2.3101,-2.3101,-2.3101,-2.3101,-2.3101,-2.3101,-2.3101,-2.3101,-2.3101,-2.3101,-2.3101,-2.3101,-2.3101,-2.3101,-2.3101,-2.3101,-2.3101,-2.3101,-2.3101,-2.3101,-2.3101,-2.3101,-2.3101,-2.3101,-2.3101,-2.3101,-2.3101,-2.3101,-2.3101,-2.3101,-2.3101,-2.3101,-2.3101,-2.3101,-2.3101,-2.3101,-2.3101,-2.3101,-2.3101,-2.3101,-2.311,-2.3159,-2.3286,-2.3477,-2.3574,-2.3662,-2.3857,-2.4111,-2.4248,-2.4365,-2.459,-2.4795,-2.46,-2.4453,-2.4687,-2.4941,-2.5303,-2.5537,-2.5615,-2.5635,-2.5596,-2.5322,-2.4648,-2.4228,-2.3867,-2.3516,-2.314,-2.313,-2.314,-2.311,-2.3325,-2.3975,-2.4521,-2.4904,-2.5274,-2.5567,-2.5684,-2.5684,-2.5684,-2.5684,-2.5684,-2.5684,-2.5684,-2.3101,-2.3101,-2.3101,-2.3101,-2.3101,-2.3101,-2.3101,-2.3101,-2.3101,-2.3101,-2.3101,-2.3101,-2.3101,-2.3101,-2.3101,-2.3101,-2.3101,-2.3101,-2.3101,-2.3101,-2.3101,-2.3101,-2.3101,-2.3101,-2.3101,-2.3101,-2.3101,-2.3101,-2.3101,-2.3101,-2.3101,-2.3101,-2.3101,-2.3101,-2.3101,-2.3101,-2.3101,-2.3101,-2.3101,-2.3101,-2.3101,-2.3101,-2.3101,-2.3101,-2.3101,-2.3101,-2.3101,-2.3101,-2.3101,-2.3101,-2.3101,-2.3101,-2.3101,-2.3101,-2.3101,-2.3101,-2.3101,-2.3101,-2.3101,-2.3101,-2.3101,-2.3101,-2.3101,-2.3101,-2.3101,-2.3101,-2.3101,-2.3101,-2.3101,-2.311,-2.313,-2.3218,-2.3379,-2.3496,-2.3764,-2.3975,-2.4023,-2.4102,-2.4336,-2.458,-2.4678,-2.4766,-2.5039,-2.5254,-2.5156,-2.5019,-2.5156,-2.5322,-2.5478,-2.5606,-2.5645,-2.5615,-2.5586,-2.5176,-2.4707,-2.4531,-2.4307,-2.373,-2.3437,-2.3227,-2.3198,-2.3149,-2.3393,-2.4111,-2.459,-2.4855,-2.5216,-2.5596,-2.5684,-2.5684,-2.5684,-2.5684,-2.5684,-2.5684,-2.5684,-2.3101,-2.3101,-2.3101,-2.3101,-2.3101,-2.3101,-2.3101,-2.3101,-2.3101,-2.3101,-2.3101,-2.3101,-2.3101,-2.3101,-2.3101,-2.3101,-2.3101,-2.3101,-2.3101,-2.3101,-2.3101,-2.3101,-2.3101,-2.3101,-2.3101,-2.3101,-2.3101,-2.3101,-2.3101,-2.3101,-2.3101,-2.3101,-2.3101,-2.3101,-2.3101,-2.3101,-2.3101,-2.3101,-2.3101,-2.3101,-2.3101,-2.3101,-2.3101,-2.3101,-2.3101,-2.3101,-2.3101,-2.3101,-2.3101,-2.3101,-2.3101,-2.3101,-2.3101,-2.3101,-2.3101,-2.3101,-2.3101,-2.3101,-2.3101,-2.3101,-2.314,-2.311,-2.3101,-2.3101,-2.3101,-2.3101,-2.3159,-2.3218,-2.3198,-2.3188,-2.333,-2.3525,-2.3701,-2.3887,-2.4189,-2.4424,-2.4463,-2.4639,-2.4893,-2.5029,-2.5088,-2.5185,-2.5478,-2.5635,-2.5606,-2.5577,-2.5635,-2.5684,-2.5684,-2.5684,-2.5684,-2.5654,-2.5605,-2.5312,-2.499,-2.5,-2.4736,-2.4111,-2.3682,-2.3506,-2.3276,-2.3179,-2.3569,-2.4258,-2.456,-2.4729,-2.5196,-2.5684,-2.5684,-2.5684,-2.5684,-2.5684,-2.5684,-2.5684,-2.5684,-2.3101,-2.3101,-2.3101,-2.3101,-2.3101,-2.3101,-2.3101,-2.3101,-2.3101,-2.3101,-2.3101,-2.3101,-2.3101,-2.3101,-2.3101,-2.3101,-2.3101,-2.3101,-2.3101,-2.3101,-2.3101,-2.3101,-2.3101,-2.3101,-2.3101,-2.3101,-2.3101,-2.3101,-2.3101,-2.3101,-2.3101,-2.3101,-2.3101,-2.3101,-2.3101,-2.3101,-2.3101,-2.3101,-2.3101,-2.3101,-2.3101,-2.3101,-2.3101,-2.3101,-2.3101,-2.3101,-2.3101,-2.3101,-2.3101,-2.311,-2.311,-2.314,-2.3149,-2.3149,-2.3159,-2.313,-2.312,-2.3101,-2.3188,-2.332,-2.3408,-2.3247,-2.3169,-2.3188,-2.311,-2.3101,-2.3227,-2.3496,-2.3555,-2.3672,-2.3994,-2.4092,-2.4219,-2.4287,-2.4531,-2.4775,-2.4922,-2.5215,-2.5401,-2.544,-2.5537,-2.5498,-2.5615,-2.5684,-2.5684,-2.5684,-2.5684,-2.5684,-2.5684,-2.5684,-2.5684,-2.5684,-2.5596,-2.543,-2.5254,-2.5234,-2.501,-2.4434,-2.3994,-2.3721,-2.3535,-2.3305,-2.3637,-2.4268,-2.4453,-2.4658,-2.5206,-2.5684,-2.5684,-2.5684,-2.5684,-2.5684,-2.5684,-2.5684,-2.5684,-2.3101,-2.3101,-2.3101,-2.3101,-2.3101,-2.3101,-2.3101,-2.3101,-2.3057,-2.3047,-2.3047,-2.3057,-2.3057,-2.3101,-2.3101,-2.3101,-2.3101,-2.3101,-2.3101,-2.3101,-2.3101,-2.3101,-2.3101,-2.3101,-2.3101,-2.3101,-2.3101,-2.3101,-2.3101,-2.3101,-2.3101,-2.3101,-2.311,-2.3101,-2.3101,-2.3101,-2.3101,-2.3101,-2.3101,-2.3101,-2.3101,-2.3101,-2.3101,-2.3101,-2.3101,-2.3101,-2.3101,-2.3101,-2.311,-2.314,-2.3227,-2.3305,-2.3379,-2.3442,-2.35,-2.353,-2.3539,-2.3559,-2.3721,-2.3818,-2.3867,-2.3656,-2.353,-2.353,-2.3539,-2.3627,-2.3779,-2.3926,-2.3994,-2.415,-2.4375,-2.4482,-2.4668,-2.4736,-2.4941,-2.5185,-2.5312,-2.5538,-2.5596,-2.5664,-2.5684,-2.5684,-2.5684,-2.5684,-2.5684,-2.5684,-2.5684,-2.5684,-2.5684,-2.5684,-2.5684,-2.5684,-2.5684,-2.5576,-2.5459,-2.543,-2.5137,-2.4717,-2.4404,-2.4111,-2.374,-2.3584,-2.3926,-2.4219,-2.4424,-2.4746,-2.5323,-2.5684,-2.5684,-2.5684,-2.5684,-2.5684,-2.5684,-2.5684,-2.5684,-2.3052,-2.3042,-2.3033,-2.2993,-2.3071,-2.3057,-2.3096,-2.3057,-2.2882,-2.2882,-2.3047,-2.2838,-2.2838,-2.3013,-2.3047,-2.3057,-2.3101,-2.3101,-2.3101,-2.3101,-2.3101,-2.3101,-2.3101,-2.3101,-2.3101,-2.3101,-2.311,-2.3149,-2.313,-2.3344,-2.3325,-2.3247,-2.3354,-2.3364,-2.3354,-2.3354,-2.3266,-2.3169,-2.3101,-2.3101,-2.3101,-2.3101,-2.3101,-2.312,-2.3169,-2.3262,-2.3247,-2.3286,-2.3286,-2.3374,-2.3603,-2.374,-2.3926,-2.4199,-2.4336,-2.4385,-2.4326,-2.4277,-2.4277,-2.4316,-2.4424,-2.4326,-2.4434,-2.4443,-2.4307,-2.4189,-2.4248,-2.4355,-2.4443,-2.4473,-2.456,-2.4834,-2.5145,-2.5244,-2.543,-2.5557,-2.5577,-2.5664,-2.5664,-2.5684,-2.5684,-2.5684,-2.5684,-2.5684,-2.5684,-2.5684,-2.5684,-2.5684,-2.5684,-2.5684,-2.5684,-2.5684,-2.5684,-2.5684,-2.5606,-2.5528,-2.5421,-2.5117,-2.4912,-2.4666,-2.4219,-2.3838,-2.4014,-2.4228,-2.4424,-2.4844,-2.544,-2.5684,-2.5684,-2.5684,-2.5684,-2.5684,-2.5684,-2.5684,-2.5684,-2.2455,-2.1757,-2.1523,-2.1888,-2.2603,-2.2881,-2.2984,-2.2867,-2.2618,-2.2574,-2.2618,-2.253,-2.2574,-2.2618,-2.2784,-2.2838,-2.2925,-2.3013,-2.3101,-2.312,-2.3218,-2.313,-2.313,-2.3179,-2.313,-2.314,-2.3179,-2.3344,-2.3643,-2.3818,-2.3984,-2.4062,-2.3916,-2.3965,-2.3929,-2.3988,-2.3608,-2.3325,-2.3227,-2.3227,-2.3198,-2.3208,-2.3198,-2.3247,-2.3506,-2.3564,-2.3623,-2.3803,-2.3881,-2.4053,-2.415,-2.4238,-2.4258,-2.4355,-2.4414,-2.4414,-2.4404,-2.4414,-2.4463,-2.4707,-2.4883,-2.4961,-2.5117,-2.4893,-2.4668,-2.4531,-2.4639,-2.4785,-2.4893,-2.4932,-2.5049,-2.5283,-2.543,-2.5527,-2.5606,-2.5625,-2.5684,-2.5684,-2.5684,-2.5684,-2.5684,-2.5684,-2.5684,-2.5684,-2.5684,-2.5684,-2.5684,-2.5684,-2.5684,-2.5684,-2.5684,-2.5684,-2.5684,-2.5684,-2.5684,-2.5615,-2.5596,-2.5499,-2.5312,-2.499,-2.4502,-2.4199,-2.415,-2.4355,-2.4756,-2.5156,-2.5567,-2.5684,-2.5684,-2.5684,-2.5684,-2.5684,-2.5684,-2.5684,-2.5684,-2.1505,-2.0883,-2.0739,-2.0943,-2.1388,-2.1589,-2.1562,-2.1472,-2.1989,-2.2309,-2.2397,-2.2353,-2.2309,-2.2441,-2.2574,-2.2671,-2.2671,-2.3059,-2.3216,-2.3289,-2.3347,-2.3637,-2.3617,-2.3524,-2.3656,-2.3598,-2.3617,-2.3803,-2.4072,-2.4228,-2.4385,-2.4365,-2.4424,-2.4434,-2.4375,-2.4297,-2.4075,-2.3803,-2.3637,-2.3598,-2.3569,-2.3569,-2.3588,-2.3608,-2.3935,-2.4004,-2.4062,-2.4355,-2.4414,-2.4482,-2.4512,-2.4678,-2.4736,-2.4824,-2.4951,-2.4953,-2.501,-2.4982,-2.5031,-2.5195,-2.5303,-2.5391,-2.5557,-2.5362,-2.5177,-2.5088,-2.5185,-2.5293,-2.5342,-2.541,-2.5528,-2.5674,-2.5674,-2.5674,-2.5674,-2.5674,-2.5684,-2.5684,-2.5684,-2.5684,-2.5684,-2.5684,-2.5684,-2.5684,-2.5684,-2.5684,-2.5684,-2.5684,-2.5684,-2.5684,-2.5684,-2.5684,-2.5684,-2.5684,-2.5684,-2.5684,-2.5654,-2.5625,-2.5586,-2.5225,-2.4756,-2.459,-2.459,-2.4853,-2.5234,-2.5479,-2.5684,-2.5684,-2.5684,-2.5684,-2.5684,-2.5684,-2.5684,-2.5684,-2.5684,-2.0313,-2.0192,-2.024,-1.9942,-1.9635,-1.9665,-1.9495,-1.9242,-2.0978,-2.192,-2.192,-2.1876,-2.1752,-2.1735,-2.1889,-2.1961,-2.2052,-2.2372,-2.262,-2.315,-2.3175,-2.3353,-2.3529,-2.4042,-2.3518,-2.3938,-2.4181,-2.3927,-2.4387,-2.4648,-2.4746,-2.4521,-2.4609,-2.4697,-2.4699,-2.4736,-2.4612,-2.4563,-2.4446,-2.4407,-2.4326,-2.4355,-2.4424,-2.4365,-2.4424,-2.4473,-2.4482,-2.4512,-2.4465,-2.4678,-2.4844,-2.5107,-2.5234,-2.5391,-2.5518,-2.5567,-2.5479,-2.5479,-2.546,-2.5528,-2.5577,-2.5625,-2.5674,-2.5615,-2.5479,-2.5411,-2.5527,-2.5547,-2.5566,-2.5566,-2.5645,-2.5684,-2.5684,-2.5684,-2.5684,-2.5684,-2.5684,-2.5684,-2.5684,-2.5684,-2.5684,-2.5684,-2.5684,-2.5684,-2.5684,-2.5684,-2.5684,-2.5684,-2.5684,-2.5684,-2.5684,-2.5684,-2.5684,-2.5684,-2.5684,-2.5684,-2.5684,-2.5664,-2.5635,-2.5449,-2.4961,-2.4941,-2.5039,-2.5195,-2.5342,-2.5518,-2.5684,-2.5684,-2.5684,-2.5684,-2.5684,-2.5684,-2.5684,-2.5577,-2.5684,-1.9492,-1.8621,-1.9007,-1.842,-1.7471,-1.8822,-1.8886,-1.8255,-1.9326,-1.9926,-1.9981,-1.9997,-2.0168,-2.0562,-2.0712,-2.075,-2.0826,-2.1358,-2.1255,-2.1535,-2.193,-2.2435,-2.2138,-2.2512,-2.2639,-2.299,-2.3317,-2.39,-2.461,-2.5071,-2.5343,-2.5333,-2.5284,-2.5226,-2.5235,-2.5245,-2.5235,-2.5206,-2.5196,-2.4914,-2.4609,-2.4463,-2.4424,-2.4551,-2.4668,-2.4883,-2.499,-2.5215,-2.5274,-2.543,-2.546,-2.5518,-2.5547,-2.5635,-2.5674,-2.5684,-2.5684,-2.5684,-2.5684,-2.5684,-2.5684,-2.5684,-2.5684,-2.5684,-2.5674,-2.5684,-2.5684,-2.5684,-2.5684,-2.5684,-2.5684,-2.5684,-2.5684,-2.5684,-2.5684,-2.5684,-2.5684,-2.5684,-2.5684,-2.5684,-2.5684,-2.5684,-2.5684,-2.5684,-2.5684,-2.5684,-2.5684,-2.5684,-2.5684,-2.5684,-2.5684,-2.5684,-2.5684,-2.5684,-2.5684,-2.5684,-2.5684,-2.5684,-2.5664,-2.5449,-2.5156,-2.5185,-2.5225,-2.5254,-2.5361,-2.5383,-2.5421,-2.5586,-2.5586,-2.5323,-2.5177,-2.4971,-2.5177,-2.5177,-2.5479,-1.8306,-1.7677,-1.7817,-1.726,-1.6661,-1.7698,-1.7787,-1.7369,-1.7795,-1.8177,-1.8461,-1.901,-1.9517,-1.969,-1.982,-1.9811,-1.9884,-2.0378,-2.076,-2.085,-2.0974,-2.1599,-2.1565,-2.1523,-2.2212,-2.2655,-2.3244,-2.4007,-2.4601,-2.5363,-2.5635,-2.5635,-2.5635,-2.5586,-2.5635,-2.5635,-2.5577,-2.5664,-2.5577,-2.5276,-2.48,-2.4914,-2.4953,-2.5117,-2.5148,-2.5342,-2.542,-2.5625,-2.5615,-2.5674,-2.5654,-2.5654,-2.5645,-2.5674,-2.5684,-2.5684,-2.5684,-2.5684,-2.5684,-2.5684,-2.5684,-2.5684,-2.5684,-2.5684,-2.5684,-2.5684,-2.5684,-2.5684,-2.5684,-2.5684,-2.5684,-2.5684,-2.5684,-2.5684,-2.5684,-2.5684,-2.5684,-2.5684,-2.5684,-2.5684,-2.5684,-2.5684,-2.5684,-2.5684,-2.5684,-2.5684,-2.5684,-2.5684,-2.5684,-2.5684,-2.5684,-2.5684,-2.5684,-2.5684,-2.5684,-2.5684,-2.5684,-2.5684,-2.5577,-2.5509,-2.5285,-2.5362,-2.541,-2.5141,-2.4947,-2.4809,-2.4913,-2.4873,-2.4412,-2.3859,-2.3908,-2.4057,-2.4362,-2.452,-2.4421,-1.7203,-1.7058,-1.6804,-1.6506,-1.6339,-1.6623,-1.6693,-1.6516,-1.6697,-1.7029,-1.7517,-1.8758,-1.9344,-1.9416,-1.9424,-1.9424,-1.9475,-1.9514,-1.9984,-2.0321,-2.0822,-2.0772,-2.1073,-2.161,-2.1762,-2.2347,-2.3102,-2.3458,-2.3817,-2.4461,-2.4873,-2.5235,-2.5284,-2.5235,-2.5284,-2.5226,-2.4971,-2.4873,-2.4824,-2.5079,-2.5255,-2.5586,-2.5596,-2.5625,-2.5538,-2.5538,-2.5479,-2.5479,-2.5479,-2.5577,-2.5528,-2.5684,-2.5684,-2.5684,-2.5684,-2.5684,-2.5684,-2.5684,-2.5684,-2.5684,-2.5684,-2.5684,-2.5684,-2.5684,-2.5684,-2.5684,-2.5684,-2.5684,-2.5684,-2.5684,-2.5684,-2.5684,-2.5684,-2.5684,-2.5684,-2.5684,-2.5684,-2.5684,-2.5684,-2.5684,-2.5684,-2.5684,-2.5684,-2.5684,-2.5684,-2.5684,-2.5684,-2.5684,-2.5684,-2.5684,-2.5684,-2.5684,-2.5684,-2.5684,-2.5684,-2.5625,-2.5577,-2.5167,-2.506,-2.5226,-2.5206,-2.4604,-2.4419,-2.469,-2.4501,-2.4048,-2.3692,-2.3552,-2.2994,-2.2643,-2.2994,-2.3302,-2.3253,-2.3302,-2.2944,-1.6918,-1.6489,-1.6422,-1.6326,-1.6326,-1.6587,-1.6807,-1.7025,-1.7079,-1.728,-1.7511,-1.7486,-1.7777,-1.8012,-1.7974,-1.8088,-1.8409,-1.8506,-1.8452,-1.8575,-1.9199,-1.9346,-1.9672,-2.0328,-2.0431,-2.1234,-2.219,-2.2693,-2.2935,-2.3094,-2.3203,-2.3352,-2.3253,-2.3253,-2.3203,-2.3302,-2.3452,-2.3502,-2.3502,-2.3502,-2.3908,-2.4461,-2.5577,-2.5372,-2.4864,-2.4559,-2.4393,-2.4393,-2.4393,-2.4648,-2.5216,-2.5577,-2.5684,-2.5684,-2.5684,-2.5684,-2.5684,-2.5684,-2.5684,-2.5684,-2.5684,-2.5684,-2.5684,-2.5684,-2.5684,-2.5684,-2.5684,-2.5684,-2.5684,-2.5684,-2.5684,-2.5684,-2.5684,-2.5684,-2.5684,-2.5684,-2.5684,-2.5684,-2.5684,-2.5684,-2.5684,-2.5684,-2.5684,-2.5684,-2.5684,-2.5684,-2.5684,-2.5684,-2.5684,-2.5684,-2.5684,-2.5528,-2.5528,-2.5684,-2.5684,-2.547,-2.5314,-2.4854,-2.4353,-2.4254,-2.3859,-2.3203,-2.3144,-2.3651,-2.3402,-2.2894,-2.2593,-2.2291,-2.224,-2.2038,-2.2391,-2.2643,-2.2391,-2.2139,-2.1785]},{"header":{"parameterUnit":"m.s-1","parameterCategory":1,"la1":31.0,"la2":29.5877,"lo1":-88.7671,"lo2":-86.6584,"dx":0.0162,"dy":0.0185,"nx":115,"ny":88,"refTime":"2022-11-29T18:00:00:Z","depth":0,"parameterNumber":3,"parameterNumberName":"V-component_of_WINDS"},"data":[0.0,0.0,0.0,0.0,0.0,0.0,0.0,0.0,0.0,0.0,0.0,0.0,0.0,0.0,0.0,0.0,0.0,0.0,0.0,0.0,0.0,0.0,0.0,0.0,0.0,0.0,0.0,0.0,0.0,0.0,0.0,0.0,0.0,0.0,0.0,0.0,0.0,0.0,0.0,0.0,0.0,0.0,0.0,0.0,0.0,0.0,0.0,0.0,0.0,0.0,0.0,0.0,0.0,0.0,0.0,0.0,0.0,0.0,0.0,0.0,0.0,0.0,0.0,0.0,0.0,0.0,0.0,0.0,0.0,0.0,0.0,0.0,0.0,0.0,0.0,0.0,0.0,0.0,0.0,0.0,0.0,0.0,0.0,0.0,0.0,0.0,0.0,0.0,0.0,0.0,0.0,0.0,0.0,0.0,0.0,0.0,0.0,0.0,0.0,0.0,0.0,0.0,0.0,0.0,0.0,0.0,0.0,0.0,0.0,0.0,0.0,0.0,0.0,0.0,0.0,0.0,0.0,0.0,0.0,0.0,0.0,0.0,0.0,0.0,0.0,0.0,0.0,0.0,0.0,0.0,0.0,0.0,0.0,0.0,0.0,0.0,0.0,0.0,0.0,0.0,0.0,0.0,0.0,0.0,0.0,0.0,0.0,0.0,0.0,0.0,0.0,0.0,0.0,0.0,0.0,0.0,0.0,0.0,0.0,0.0,0.0,0.0,0.0,0.0,0.0,0.0,0.0,0.0,0.0,0.0,0.0,0.0,0.0,0.0,0.0,0.0,0.0,0.0,0.0,0.0,0.0,0.0,0.0,0.0,0.0,0.0,0.0,0.0,0.0,0.0,0.0,0.0,0.0,0.0,0.0,0.0,0.0,0.0,0.0,0.0,0.0,0.0,0.0,0.0,0.0,0.0,0.0,0.0,0.0,0.0,0.0,0.0,0.0,0.0,0.0,0.0,0.0,0.0,0.0,0.0,0.0,0.0,0.0,0.0,0.0,0.0,0.0,0.0,0.0,0.0,0.0,0.0,0.0,0.0,0.0,0.0,0.0,0.0,0.0,0.0,0.0,0.0,0.0,0.0,0.0,0.0,0.0,0.0,0.0,0.0,0.0,0.0,0.0,0.0,0.0,0.0,0.0,0.0,0.0,0.0,0.0,0.0,0.0,0.0,0.0,0.0,0.0,0.0,0.0,0.0,0.0,0.0,0.0,0.0,0.0,0.0,0.0,0.0,0.0,0.0,0.0,0.0,0.0,0.0,0.0,0.0,0.0,0.0,0.0,0.0,0.0,0.0,0.0,0.0,0.0,0.0,0.0,0.0,0.0,0.0,0.0,0.0,0.0,0.0,0.0,0.0,0.0,0.0,0.0,0.0,0.0,0.0,0.0,0.0,0.0,0.0,0.0,0.0,0.0,0.0,0.0,0.0,0.0,0.0,0.0,0.0,0.0,0.0,0.0,0.0,0.0,0.0,0.0,0.0,0.0,0.0,0.0,0.0,0.0,0.0,0.0,0.0,0.0,0.0,0.0,0.0,0.0,0.0,0.0,0.0,0.0,0.0,0.0,0.0,0.0,0.0,0.0,0.0,0.0,0.0,0.0,0.0,0.0,0.0,0.0,0.0,0.0,0.0,0.0,0.0,0.0,0.0,0.0,0.0,0.0,0.0,0.0,0.0,0.0,0.0,0.0,0.0,0.0,0.0,0.0,0.0,0.0,0.0,0.0,0.0,0.0,0.0,0.0,0.0,0.0,0.0,0.0,0.0,0.0,0.0,0.0,0.0,0.0,0.0,0.0,0.0,0.0,0.0,0.0,0.0,0.0,0.0,0.0,0.0,0.0,0.0,0.0,0.0,0.0,0.0,0.0,0.0,0.0,0.0,0.0,0.0,0.0,0.0,0.0,0.0,0.0,0.0,0.0,0.0,0.0,0.0,0.0,0.0,0.0,0.0,0.0,0.0,0.0,0.0,0.0,0.0,0.0,0.0,0.0,0.0,0.0,0.0,0.0,0.0,0.0,0.0,0.0,0.0,0.0,0.0,0.0,0.0,0.0,0.0,0.0,0.0,0.0,0.0,0.0,0.0,0.0,0.0,0.0,0.0,0.0,0.0,0.0,0.0,0.0,0.0,0.0,0.0,0.0,0.0,0.0,0.0,0.0,0.0,0.0,0.0,0.0,0.0,0.0,0.0,0.0,0.0,0.0,0.0,0.0,0.0,0.0,0.0,0.0,0.0,0.0,0.0,0.0,0.0,0.0,0.0,0.0,0.0,0.0,0.0,0.0,0.0,0.0,0.0,0.0,0.0,0.0,0.0,0.0,0.0,0.0,0.0,0.0,0.0,0.0,0.0,0.0,0.0,0.0,0.0,0.0,0.0,0.0,0.0,0.0,0.0,0.0,0.0,0.0,0.0,0.0,0.0,0.0,0.0,0.0,0.0,0.0,0.0,0.0,0.0,0.0,0.0,0.0,0.0,0.0,0.0,0.0,0.0,0.0,0.0,0.0,0.0,0.0,0.0,0.0,0.0,0.0,0.0,0.0,0.0,0.0,0.0,0.0,0.0,0.0,0.0,0.0,0.0,0.0,0.0,0.0,0.0,0.0,0.0,0.0,0.0,0.0,0.0,0.0,0.0,0.0,0.0,0.0,0.0,0.0,0.0,0.0,0.0,0.0,0.0,0.0,0.0,0.0,0.0,0.0,0.0,0.0,0.0,0.0,0.0,0.0,0.0,0.0,0.0,0.0,0.0,0.0,0.0,0.0,0.0,0.0,0.0,0.0,0.0,0.0,0.0,0.0,0.0,0.0,0.0,0.0,0.0,0.0,0.0,0.0,0.0,0.0,0.0,0.0,0.0,0.0,0.0,0.0,0.0,0.0,0.0,0.0,0.0,0.0,0.0,0.0,0.0,0.0,0.0,0.0,0.0,0.0,0.0,0.0,0.0,0.0,0.0,0.0,0.0,0.0,0.0,0.0,0.0,0.0,0.0,0.0,0.0,0.0,0.0,0.0,0.0,0.0,0.0,0.0,0.0,0.0,0.0,0.0,0.0,0.0,0.0,0.0,0.0,0.0,0.0,0.0,0.0,0.0,0.0,0.0,0.0,0.0,0.0,0.0,0.0,0.0,0.0,0.0,0.0,0.0,0.0,0.0,0.0,0.0,0.0,0.0,0.0,0.0,0.0,0.0,0.0,0.0,0.0,0.0,0.0,0.0,0.0,0.0,0.0,0.0,0.0,0.0,0.0,0.0,0.0,0.0,0.0,0.0,0.0,0.0,0.0,0.0,0.0,0.0,0.0,0.0,0.0,0.0,0.0,0.0,0.0,0.0,0.0,0.0,0.0,0.0,0.0,0.0,0.0,0.0,0.0,0.0,0.0,0.0,0.0,0.0,0.0,0.0,0.0,0.0,0.0,0.0,0.0,0.0,0.0,0.0,0.0,0.0,0.0,0.0,0.0,0.0,0.0,0.0,0.0,0.0,0.0,0.0,0.0,0.0,0.0,0.0,0.0,0.0,0.0,0.0,0.0,0.0,0.0,0.0,0.0,0.0,0.0,0.0,0.0,0.0,0.0,0.0,0.0,0.0,0.0,0.0,0.0,0.0,0.0,0.0,0.0,0.0,0.0,0.0,0.0,0.0,0.0,0.0,0.0,0.0,0.0,0.0,0.0,0.0,0.0,0.0,0.0,0.0,0.0,0.0,0.0,0.0,0.0,0.0,0.0,0.0,0.0,0.0,0.0,0.0,0.0,0.0,0.0,0.0,0.0,0.0,0.0,0.0,0.0,0.0,0.0,0.0,0.0,0.0,0.0,0.0,0.0,0.0,0.0,0.0,0.0,0.0,0.0,0.0,0.0,0.0,0.0,0.0,0.0,0.0,0.0,0.0,0.0,0.0,0.0,0.0,0.0,0.0,0.0,0.0,0.0,0.0,0.0,0.0,0.0,0.0,0.0,0.0,0.0,0.0,0.0,0.0,0.0,0.0,0.0,0.0,0.0,0.0,0.0,0.0,0.0,0.0,0.0,0.0,0.0,0.0,0.0,0.0,0.0,0.0,0.0,0.0,0.0,0.0,0.0,0.0,0.0,0.0,0.0,0.0,0.0,0.0,0.0,0.0,0.0,0.0,0.0,0.0,0.0,0.0,0.0,0.0,0.0,0.0,0.0,0.0,0.0,0.0,0.0,0.0,0.0,0.0,0.0,0.0,0.0,0.0,0.0,0.0,0.0,0.0,0.0,0.0,0.0,0.0,0.0,0.0,0.0,0.3036,0.0,0.0,0.0,0.2843,0.0,0.0,0.0,0.0,0.0,0.0,0.0,0.0,0.0,0.0,0.0,0.0,0.0,0.0,0.0,0.0,0.0,0.0,0.0,0.0,0.0,0.0,0.0,0.0,0.0,0.0,0.0,0.0,0.0,0.0,0.0,0.0,0.0,0.0,0.0,0.0,0.0,0.0,0.0,0.0,0.0,0.0,0.0,0.0,0.0,0.0,0.0,0.0,0.0,0.0,0.0,0.0,0.0,0.0,0.0,0.0,0.0,0.0,0.0,0.0,0.0,0.0,0.0,0.0,0.0,0.0,0.0,0.0,0.0,0.0,0.0,0.0,0.0,0.0,0.0,0.0,0.0,0.0,0.0,0.0,0.0,0.0,0.0,0.0,0.0,0.0,0.0,0.0,0.0,0.0,0.0,0.0,0.0,0.0,0.0,0.0,0.0,0.0,0.0,0.0,0.0,0.0,0.0,0.0,0.0,0.0,0.0,0.0,0.0,0.0,0.3194,0.3157,0.3001,0.2909,0.2909,0.0,0.0,0.0,0.0,0.0,0.0,0.0,0.0,0.0,0.0,0.0,0.0,0.0,0.0,0.0,0.0,0.0,0.0,0.0,0.0,0.0,0.0,0.0,0.0,0.0,0.0,0.0,0.0,0.0,0.0,0.0,0.0,0.0,0.0,0.0,0.0,0.0,0.0,0.0,0.0,0.0,0.0,0.0,0.0,0.0,0.0,0.0,0.0,0.0,0.0,0.0,0.0,0.0,0.0,0.0,0.0,0.0,0.0,0.0,0.0,0.0,0.0,0.0,0.0,0.0,0.0,0.0,0.0,0.0,0.0,0.0,0.0,0.0,0.0,0.0,0.0,0.0,0.0,0.0,0.0,0.0,0.0,0.0,0.0,0.0,0.0,0.0,0.0,0.0,0.0,0.0,0.0,0.0,0.0,0.0,0.0,0.0,0.0,0.0,0.0,0.0,0.0,0.0,0.0,0.0,0.0,0.0,0.0,0.0,0.0,0.0,0.0,0.3043,0.2957,0.2998,0.0,0.0,0.0,0.0,0.0,0.0,0.0,0.0,0.0,0.0,0.0,0.0,0.0,0.0,0.0,0.0,0.0,0.0,0.0,0.0,0.0,0.0,0.0,0.0,0.0,0.0,0.0,0.0,0.0,0.0,0.0,0.0,0.0,0.0,0.0,0.0,0.0,0.0,0.0,0.0,0.0,0.0,0.0,0.0,0.0,0.0,0.0,0.0,0.0,0.0,0.0,0.0,0.0,0.0,0.0,0.0,0.0,0.0,0.0,0.0,0.0,0.0,0.0,0.0,0.0,0.0,0.0,0.0,0.0,0.0,0.0,0.0,0.0,0.0,0.0,0.0,0.0,0.0,0.0,0.0,0.0,0.0,0.0,0.0,0.0,0.0,0.0,0.0,0.0,0.0,0.0,0.0,0.0,0.0,0.0,0.0,0.0,0.0,0.0,0.0,0.0,0.0,0.0,0.0,0.0,0.0,0.0,0.0,0.0,0.0,0.2957,0.2957,0.2932,0.0,0.3281,0.0,0.0,0.0,0.0,0.0,0.0,0.0,0.0,0.0,0.0,0.0,0.0,0.0,0.0,0.0,0.0,0.0,0.0,0.0,0.0,0.0,0.0,0.0,0.0,0.0,0.0,0.0,0.0,0.0,0.0,0.0,0.0,0.0,0.0,0.0,0.0,0.0,0.0,0.0,0.0,0.0,0.0,0.0,0.0,0.0,0.0,0.0,0.0,0.0,0.0,0.0,0.0,0.0,0.0,0.0,0.0,0.0,0.0,0.0,0.0,0.0,0.0,0.0,0.0,0.0,0.0,0.0,0.0,0.0,0.0,0.0,0.0,0.0,0.0,0.0,0.0,0.0,0.0,0.0,0.0,0.0,0.0,0.0,0.0,0.0,0.0,0.0,0.0,0.0,0.0,0.0,0.0,0.0,0.0,0.0,0.0,0.0,0.0,0.0,0.0,0.0,0.0,0.0,0.0,0.0,0.0,0.0,0.0,0.0,0.0,0.3483,0.3486,0.3309,0.3203,0.0,0.0,0.0,0.0,0.0,0.0,0.0,0.0,0.0,0.0,0.0,0.0,0.0,0.0,0.0,0.0,0.0,0.0,0.0,0.0,0.0,0.0,0.0,0.0,0.0,0.0,0.0,0.0,0.0,0.0,0.0,0.0,0.0,0.0,0.0,0.0,0.0,0.0,0.0,0.0,0.0,0.0,0.0,0.0,0.0,0.0,0.0,0.0,0.0,0.0,0.0,0.0,0.0,0.0,0.0,0.0,0.0,0.0,0.0,0.0,0.0,0.0,0.0,0.0,0.0,0.0,0.0,0.0,0.0,0.0,0.0,0.0,0.0,0.0,0.0,0.0,0.0,0.0,0.0,0.0,0.0,0.0,0.0,0.0,0.0,0.0,0.0,0.0,0.0,0.0,0.0,0.0,0.0,0.0,0.0,0.0,0.0,0.0,0.0,0.0,0.0,0.0,0.0,0.0,0.0,0.0,0.0,0.0,0.0,0.0,0.3906,0.3906,0.3902,0.3682,0.3457,0.3244,0.0,0.0,0.0,0.0,0.0,0.0,0.0,0.0,0.0,0.0,0.0,0.0,0.0,0.0,0.0,0.0,0.0,0.0,0.0,0.0,0.0,0.0,0.0,0.0,0.0,0.0,0.0,0.0,0.0,0.0,0.0,0.0,0.0,0.0,0.0,0.0,0.0,0.0,0.0,0.0,0.0,0.0,0.0,0.0,0.0,0.0,0.0,0.0,0.0,0.0,0.0,0.0,0.0,0.0,0.0,0.0,0.0,0.0,0.0,0.0,0.0,0.0,0.0,0.0,0.0,0.0,0.0,0.0,0.0,0.0,0.0,0.0,0.0,0.0,0.0,0.0,0.0,0.0,0.0,0.0,0.0,0.0,0.0,0.0,0.0,0.0,0.0,0.0,0.0,0.0,0.0,0.0,0.0,0.0,0.0,0.0,0.0,0.0,0.0,0.0,0.0,0.0,0.0,0.0,0.0,0.0,0.0,0.0,0.3928,0.3932,0.3906,0.3932,0.388,0.3781,0.0,0.0,0.0,0.0,0.0,0.0,0.0,0.0,0.0,0.0,0.0,0.0,0.0,0.0,0.0,0.0,0.0,0.0,0.0,0.0,0.0,0.0,0.0,0.0,0.0,0.0,0.0,0.0,0.0,0.0,0.0,0.0,0.0,0.0,0.0,0.0,0.0,0.0,0.0,0.0,0.0,0.0,0.0,0.0,0.0,0.0,0.0,0.0,0.0,0.0,0.0,0.0,0.0,0.0,0.0,0.0,0.0,0.0,0.0,0.0,0.0,0.0,0.0,0.0,0.0,0.0,0.0,0.0,0.0,0.0,0.0,0.0,0.0,0.0,0.0,0.0,0.0,0.0,0.0,0.0,0.0,0.0,0.0,0.0,0.0,0.0,0.0,0.0,0.0,0.0,0.0,0.0,0.0,0.0,0.0,0.0,0.0,0.0,0.0,0.0,0.0,0.0,0.0,0.0,0.0,0.0,0.0,0.0,0.0,0.5006,0.4879,0.4693,0.4488,0.4315,0.4053,0.0,0.0,0.0,0.0,0.0,0.0,0.0,0.0,0.0,0.0,0.0,0.0,0.0,0.0,0.0,0.0,0.0,0.0,0.0,0.0,0.0,0.0,0.0,0.0,0.0,0.0,0.0,0.0,0.0,0.0,0.0,0.0,0.0,0.0,0.0,0.0,0.0,0.0,0.0,0.0,0.0,0.0,0.0,0.0,0.0,0.0,0.0,0.0,0.0,0.0,0.0,0.0,0.0,0.0,0.0,0.0,0.0,0.0,0.0,0.0,0.0,0.0,0.0,0.0,0.0,0.0,0.0,0.0,0.0,0.0,0.0,0.0,0.0,0.0,0.0,0.0,0.0,0.0,0.0,0.0,0.0,0.0,0.0,0.0,0.0,0.0,0.0,0.0,0.0,0.0,0.0,0.0,0.0,0.0,0.0,0.0,0.0,0.0,0.0,0.0,0.0,0.0,0.0,0.0,0.0,0.0,0.0,0.0,0.0,0.5888,0.5763,0.5517,0.5097,0.492,0.4572,0.0,0.0,0.0,0.0,0.0,0.0,0.0,0.0,0.0,0.0,0.0,0.0,0.0,0.0,0.0,0.0,0.0,0.0,0.0,0.0,0.0,0.0,0.0,0.0,0.0,0.0,0.0,0.0,0.0,0.0,0.0,0.0,0.0,0.0,0.0,0.0,0.0,0.0,0.0,0.0,0.0,0.0,0.0,0.0,0.0,0.0,0.0,0.0,0.0,0.0,0.0,0.0,0.0,0.0,0.0,0.0,0.0,0.0,0.0,0.0,0.0,0.0,0.0,0.0,0.0,0.0,0.0,0.0,0.0,0.0,0.0,0.0,0.0,0.0,0.0,0.0,0.0,0.0,0.0,0.0,0.0,0.0,0.0,0.0,0.0,0.0,0.0,0.0,0.0,0.0,0.0,0.0,0.0,0.0,0.0,0.0,0.0,0.0,0.0,0.0,0.0,0.0,0.0,0.0,0.0,0.0,0.0,0.0,0.6422,0.6484,0.6476,0.6229,0.5718,0.5657,0.5278,0.0,0.0,0.0,0.0,0.0,0.0,0.0,0.0,0.0,0.0,0.0,0.0,0.0,0.0,0.0,0.0,0.0,0.0,0.0,0.0,0.0,0.0,0.0,0.0,0.0,0.0,0.0,0.0,0.0,0.0,0.0,0.0,0.0,0.0,0.0,0.0,0.0,0.0,0.0,0.0,0.0,0.0,0.0,0.0,0.0,0.0,0.0,0.0,0.0,0.0,0.0,0.0,0.0,0.0,0.0,0.0,0.0,0.0,0.0,0.0,0.0,0.0,0.0,0.0,0.0,0.0,0.0,0.0,0.0,0.0,0.0,0.0,0.0,0.0,0.0,0.0,0.0,0.0,0.0,0.0,0.0,0.0,0.0,0.0,0.0,0.0,0.0,0.0,0.0,0.0,0.0,0.0,0.0,0.0,0.0,0.0,0.0,0.0,0.0,0.0,0.0,0.0,0.0,0.0,0.0,0.0,0.0,0.0,0.0,0.639,0.6602,0.6514,0.6112,0.5842,0.5507,0.0,0.0,0.0,0.0,0.0,0.0,0.0,0.0,0.0,0.0,0.0,0.0,0.0,0.0,0.0,0.0,0.0,0.0,0.0,0.0,0.0,0.0,0.0,0.0,0.0,0.0,0.0,0.0,0.0,0.0,0.0,0.0,0.0,0.0,0.0,0.0,0.0,0.0,0.0,0.0,0.0,0.0,0.0,0.0,0.0,0.0,0.0,0.0,0.0,0.0,0.0,0.0,0.0,0.0,0.0,0.0,0.0,0.0,0.0,0.0,0.0,0.0,0.0,0.0,0.0,0.0,0.0,0.0,0.0,0.0,0.0,0.0,0.0,0.0,0.0,0.0,0.0,0.0,0.0,0.0,0.0,0.0,0.0,0.0,0.0,0.0,0.0,0.0,0.0,0.0,0.0,0.0,0.0,0.0,0.0,0.0,0.0,0.0,0.0,0.0,0.0,0.0,0.0,0.0,0.0,0.0,0.0,0.0,0.0,0.7142,0.7175,0.7034,0.6658,0.6232,0.5815,0.541,0.0,0.0,0.0,0.0,0.0,0.0,0.0,0.0,0.0,0.0,0.0,0.0,0.0,0.0,0.0,0.0,0.0,0.0,0.0,0.0,0.0,0.0,0.0,0.0,0.0,0.0,0.0,0.0,0.0,0.0,0.0,0.0,0.0,0.0,0.0,0.0,0.0,0.0,0.0,0.0,0.0,0.0,0.0,0.0,0.0,0.0,0.0,0.0,0.0,0.0,0.0,0.0,0.0,0.0,0.0,0.0,0.0,0.0,0.0,0.0,0.0,0.0,0.0,0.0,0.0,0.0,0.0,0.0,0.0,0.0,0.0,0.0,0.0,0.0,0.0,0.0,0.0,0.0,0.0,0.0,0.0,0.0,0.0,0.0,0.0,0.0,0.0,0.0,0.0,0.0,0.0,0.0,0.0,0.0,0.0,0.0,0.0,0.0,0.0,0.0,0.0,0.0,0.0,0.0,0.0,0.0,0.0,0.0,0.8565,0.8221,0.7791,0.7266,0.6795,0.6215,0.0,0.0,0.0,0.0,0.0,0.0,0.0,0.0,0.0,0.0,0.0,0.0,0.0,0.0,0.0,0.0,0.0,0.0,0.0,0.0,0.0,0.0,0.0,0.0,0.0,0.0,0.0,0.0,0.0,0.0,0.0,0.0,0.0,0.0,0.0,0.0,0.0,0.0,0.0,0.0,0.0,0.0,0.0,0.0,0.0,0.0,0.0,0.0,0.0,0.0,0.0,0.0,0.0,0.0,0.0,0.0,0.0,0.0,0.0,0.0,0.0,0.0,0.0,0.0,0.0,0.0,0.0,0.0,0.0,0.0,0.0,0.0,0.0,0.0,0.0,0.0,0.0,0.0,0.0,0.0,0.0,0.0,0.0,0.0,0.0,0.0,0.0,0.0,0.0,0.0,0.0,0.0,0.0,0.0,0.0,0.0,0.0,0.0,0.0,0.0,0.0,0.0,0.0,0.0,0.0,0.0,0.0,0.0,0.0,0.9384,0.959,0.9041,0.7774,0.7431,0.696,0.0,0.0,0.0,0.0,0.0,0.0,0.0,0.0,0.0,0.0,0.0,0.0,0.0,0.0,0.0,0.0,0.0,0.0,0.0,0.0,0.0,0.0,0.0,0.0,0.0,0.0,0.0,0.0,0.0,0.0,0.0,0.0,0.0,0.0,0.0,0.0,0.0,0.0,0.0,0.0,0.0,0.0,0.0,0.0,0.0,0.0,0.0,0.0,0.0,0.0,0.0,0.0,0.0,0.0,0.0,0.0,0.0,0.0,0.0,0.0,0.0,0.0,0.0,0.0,0.0,0.0,0.0,0.0,0.0,0.0,0.0,0.0,0.0,0.0,0.0,0.0,0.0,0.0,0.0,0.0,0.0,0.0,0.0,0.0,0.0,0.0,0.0,0.0,0.0,0.0,0.0,0.0,0.0,0.0,0.0,0.0,0.0,0.0,0.0,0.0,0.0,0.0,0.0,0.0,0.0,0.0,0.0,0.0,0.9799,1.0316,1.0493,1.01,0.908,0.8465,0.7767,0.0,0.0,0.0,0.0,0.0,0.0,0.0,0.0,0.0,0.0,0.0,0.0,0.0,0.0,0.0,0.0,0.0,0.0,0.0,0.0,0.0,0.0,0.0,0.0,0.0,0.0,0.0,0.0,0.0,0.0,0.0,0.0,0.0,0.0,0.0,0.0,0.0,0.0,0.0,0.0,0.0,0.0,0.0,0.0,0.0,0.0,0.0,0.0,0.0,0.0,0.0,0.0,0.0,0.0,0.0,0.0,0.0,0.0,0.0,0.0,0.0,0.0,0.0,0.0,0.0,0.0,0.0,0.0,0.0,0.0,0.0,0.0,0.0,0.0,0.0,0.0,0.0,0.0,0.0,0.0,0.0,0.0,0.0,0.0,0.0,0.0,0.0,0.0,0.0,0.0,0.0,0.0,0.0,0.0,0.0,0.0,0.0,0.0,0.0,0.0,0.0,0.0,0.0,0.0,0.0,0.0,0.0,0.0,1.0549,1.1324,1.1254,1.1053,1.074,0.9688,0.8596,0.0,0.0,0.0,0.0,0.0,0.0,0.0,0.0,0.0,0.0,0.0,0.0,0.0,0.0,0.0,0.0,0.0,0.0,0.0,0.0,0.0,0.0,0.0,0.0,0.0,0.0,0.0,0.0,0.0,0.0,0.0,0.0,0.0,0.0,0.0,0.0,0.0,0.0,0.0,0.0,0.0,0.0,0.0,0.0,0.0,0.0,0.0,0.0,0.0,0.0,0.0,0.0,0.0,0.0,0.0,0.0,0.0,0.0,0.0,0.0,0.0,0.0,0.0,0.0,0.0,0.0,0.0,0.0,0.0,0.0,0.0,0.0,0.0,0.0,0.0,0.0,0.0,0.0,0.0,0.0,0.0,0.0,0.0,0.0,0.0,0.0,0.0,0.0,0.0,0.0,0.0,0.0,0.0,0.0,0.0,0.0,0.0,0.0,0.0,0.0,0.0,0.0,0.0,0.0,0.0,0.0,0.0,0.0,1.1979,1.2207,1.245,1.2286,1.1732,1.0502,0.9363,0.0,0.0,0.0,0.0,0.0,0.0,0.0,0.0,0.0,0.0,0.0,0.0,0.0,0.0,0.0,0.0,0.0,0.0,0.0,0.0,0.0,0.0,0.0,0.0,0.0,0.0,0.0,0.0,0.0,0.0,0.0,0.0,0.0,0.0,0.0,0.0,0.0,0.0,0.0,0.0,0.0,0.0,0.0,0.0,0.0,0.0,0.0,0.0,0.7633,0.0,0.0,0.0,0.0,0.0,0.0,0.0,0.0,0.0,0.0,0.0,0.0,0.0,0.0,0.0,0.0,0.0,0.0,0.0,0.0,0.0,0.0,0.0,0.0,0.0,0.0,0.0,0.0,0.0,0.0,0.0,0.0,0.0,0.0,0.0,0.0,0.0,0.0,0.0,0.0,0.0,0.0,0.0,0.0,0.0,0.0,0.0,0.0,0.0,0.0,0.0,0.0,0.0,0.0,0.0,0.0,0.0,0.0,0.0,1.2389,1.2905,1.3122,1.3055,1.2668,1.1887,1.0675,0.0,0.0,0.0,0.0,0.0,0.0,0.0,0.0,0.0,0.0,0.0,0.0,0.0,0.0,0.0,0.0,0.0,0.0,0.0,0.0,0.0,0.0,0.0,0.0,0.0,0.0,0.0,0.0,0.0,0.0,0.0,0.0,0.0,0.0,0.0,0.0,0.0,0.0,0.0,0.0,0.0,0.0,0.0,0.0,0.0,0.0,0.0,0.0,0.0,0.0,0.0,0.0,0.0,0.0,0.0,0.0,0.0,0.0,0.0,0.0,0.0,0.0,0.0,0.0,0.0,0.0,0.0,0.0,0.0,0.0,0.0,0.0,0.0,0.0,0.0,0.0,0.0,0.0,0.0,0.0,0.0,0.0,0.0,0.0,0.0,0.0,0.0,0.0,0.0,0.0,0.0,0.0,0.0,0.0,0.0,0.0,0.0,0.0,0.0,0.0,0.0,0.0,0.0,0.0,0.0,0.0,0.0,1.183,1.2524,1.3544,1.3591,1.3571,1.3502,1.316,1.1928,0.9728,0.0,0.0,0.0,0.0,0.0,0.0,0.0,0.0,0.0,0.0,0.0,0.0,0.0,0.0,0.0,0.0,0.0,0.0,0.0,0.0,0.0,0.0,0.0,0.0,0.0,0.0,0.0,0.0,0.0,0.0,0.0,0.0,0.0,0.0,0.0,0.0,0.0,0.0,0.8205,0.8907,0.0,0.0,0.0,0.0,0.0,0.0,0.0,0.0,0.9198,0.0,0.0,0.0,0.0,0.0,0.0,0.0,0.0,0.0,0.0,0.0,0.0,0.0,0.0,0.0,0.0,0.0,0.0,0.0,0.0,0.0,0.0,0.0,0.0,0.0,0.0,0.0,0.0,0.0,0.0,0.0,0.0,0.0,0.0,0.0,0.0,0.0,0.0,0.0,0.0,0.0,0.0,0.0,0.0,0.0,0.0,0.0,0.0,0.0,0.0,0.0,0.0,0.0,0.0,0.0,0.0,1.2921,1.3032,1.3487,1.4356,1.4082,1.3791,1.3502,1.313,1.2203,1.072,0.0,0.0,0.0,0.0,0.0,0.0,0.0,0.0,0.0,0.0,0.0,0.0,0.0,0.0,0.0,0.0,0.0,0.0,0.0,0.0,0.0,0.0,0.0,0.0,0.0,0.0,0.0,0.0,0.0,0.0,0.0,0.0,0.0,0.0,0.0,0.0,0.0,0.0,0.0,1.0569,1.1006,0.0,0.0,0.0,0.0,0.0,0.0,0.0,0.0,1.0162,0.0,0.0,0.0,0.0,0.0,0.0,0.0,0.0,0.0,0.0,0.0,0.0,0.0,0.0,0.0,0.0,0.0,0.0,0.0,0.0,0.0,0.0,0.0,0.0,0.0,0.0,0.0,0.0,0.0,0.0,0.0,0.0,0.0,0.0,0.0,0.0,0.0,0.0,0.0,0.0,0.0,0.0,0.0,0.0,0.0,0.0,0.0,0.0,0.0,0.0,0.0,0.0,0.0,0.0,0.0,1.2946,1.3406,1.3897,1.4502,1.4357,1.4258,1.4315,1.3735,1.288,0.0,0.0,0.0,0.0,0.0,0.0,0.0,0.0,0.0,0.0,0.0,0.0,0.0,0.0,0.0,0.0,0.0,0.0,0.0,0.0,0.0,0.0,0.0,0.0,0.0,0.0,0.0,0.0,0.0,0.0,0.0,0.0,0.0,0.0,0.0,0.0,0.0,0.0,0.0,0.0,1.1337,1.1923,1.2558,0.0,0.0,0.0,0.0,0.0,0.0,1.1721,1.1287,0.0,0.0,0.0,0.0,0.0,0.0,0.0,0.0,0.0,0.0,0.0,0.0,0.0,0.0,0.0,0.0,0.0,0.0,0.0,0.0,0.0,0.0,0.0,0.0,0.0,0.0,0.0,0.0,0.0,0.0,0.0,0.0,0.0,0.0,0.0,0.0,0.0,0.0,0.0,0.0,0.0,0.0,0.0,0.0,0.0,0.0,0.0,0.0,0.0,0.0,0.0,0.0,0.0,0.0,0.0,1.3198,1.3756,1.437,1.4999,1.4678,1.4738,1.522,1.4289,1.3341,0.0,0.0,0.0,0.0,0.0,0.0,0.0,0.0,0.0,0.0,0.0,0.0,0.0,0.0,0.0,0.0,0.0,0.0,0.0,0.0,0.0,0.0,0.0,0.0,0.0,0.0,0.0,0.0,0.0,0.0,0.0,0.0,0.0,0.0,0.0,0.0,0.0,0.0,0.0,0.0,0.0,1.287,1.3601,1.3975,0.0,0.0,0.0,0.0,1.334,1.3073,0.0,0.0,0.0,0.0,0.0,0.0,0.0,0.0,0.0,0.0,0.0,0.0,0.0,0.0,0.0,0.0,0.0,0.0,0.0,0.0,0.0,0.0,0.0,0.0,0.0,0.0,0.0,0.0,0.0,0.0,0.0,0.0,0.0,0.0,0.0,0.0,0.0,0.0,0.0,0.0,0.0,0.0,0.0,0.0,0.0,0.0,0.0,0.0,0.0,0.0,0.0,0.0,0.0,0.0,0.0,0.0,1.4907,1.4667,1.5284,1.6724,1.534,1.4909,1.5649,1.4194,1.3059,0.0,0.0,0.0,0.0,0.0,0.0,0.0,0.0,0.0,0.0,0.0,0.0,0.0,0.0,0.0,0.0,0.0,0.0,0.0,0.0,0.0,0.0,0.0,0.0,0.0,0.0,0.0,0.0,0.0,0.0,0.0,0.0,0.0,0.0,0.0,0.0,0.0,0.0,0.0,0.0,0.0,1.4228,1.466,1.5178,1.5428,0.0,0.0,1.6165,1.6041,1.572,0.0,0.0,0.0,0.0,0.0,0.0,0.0,0.0,0.0,0.0,0.0,0.0,0.0,0.0,0.0,0.0,0.0,0.0,0.0,0.0,0.0,0.0,0.0,0.0,0.0,0.0,0.0,0.0,0.0,0.0,0.0,0.0,0.0,0.0,0.0,0.0,0.0,0.0,0.0,0.0,0.0,0.0,0.0,0.0,0.0,0.0,0.0,0.0,0.0,0.0,0.0,0.0,0.0,0.0,0.0,1.413,1.5533,1.5711,1.6463,1.7727,1.6306,1.596,1.6828,1.5026,1.391,0.0,0.0,0.0,0.0,0.0,0.0,0.0,0.0,0.0,0.0,0.0,0.0,0.0,0.0,0.0,0.0,0.0,0.0,0.0,0.0,0.0,0.0,0.0,0.0,0.0,0.0,0.0,0.0,0.0,0.0,0.0,0.0,0.0,0.0,0.0,0.0,0.0,0.0,0.0,0.0,0.0,0.0,1.5797,1.6503,0.0,0.0,0.0,1.7032,1.6277,0.0,0.0,0.0,0.0,0.0,0.0,0.0,0.0,0.0,0.0,0.0,0.0,0.0,0.0,0.0,0.0,0.0,0.0,0.0,0.0,0.0,0.0,0.0,0.0,0.0,0.0,0.0,0.0,0.0,0.0,0.0,0.0,0.0,0.0,0.0,0.0,0.0,0.0,0.0,0.0,0.0,0.0,0.0,0.0,0.0,0.0,0.0,0.0,0.0,0.0,0.0,0.0,0.0,0.0,0.0,0.0,0.0,1.6239,1.6657,1.7514,1.8731,1.7228,1.6974,1.808,1.6226,0.0,0.0,0.0,0.0,0.0,0.0,0.0,0.0,0.0,0.0,0.0,0.0,0.0,0.0,0.0,0.0,0.0,0.0,0.0,0.0,0.0,0.0,0.0,0.0,0.0,0.0,0.0,0.9173,0.0,0.0,0.0,0.0,0.0,0.0,0.0,0.0,0.0,0.0,0.0,0.0,0.0,0.0,1.6348,1.6812,1.7597,1.8097,0.0,0.0,1.7825,1.6825,1.7044,1.6834,0.0,0.0,0.0,0.0,0.0,0.0,0.0,0.0,0.0,0.0,0.0,0.0,0.0,0.0,0.0,0.0,0.0,0.0,0.0,0.0,0.0,0.0,0.0,0.0,0.0,0.0,0.0,0.0,0.0,0.0,0.0,0.0,0.0,0.0,0.0,0.0,0.0,0.0,0.0,0.0,0.0,0.0,0.0,0.0,0.0,0.0,0.0,0.0,0.0,0.0,0.0,0.0,0.0,0.0,1.5841,1.7418,1.7396,1.8304,2.0103,1.7912,1.7578,1.9366,1.7694,1.6428,0.0,0.0,0.0,0.0,0.0,0.0,0.0,0.0,0.0,0.0,0.0,0.0,0.0,0.0,0.0,0.0,0.0,0.0,0.0,0.0,0.0,0.0,0.0,0.0,0.0,0.0,0.0,0.0,0.0,0.0,0.0,0.0,0.0,0.0,0.0,0.0,0.0,0.0,0.0,0.0,0.0,1.6902,1.7533,1.8382,1.8922,0.0,1.891,1.8895,1.8811,1.8799,1.8492,1.7374,0.0,0.0,0.0,0.0,0.0,0.0,0.0,0.0,0.0,0.0,0.0,0.0,0.0,0.0,0.0,0.0,0.0,0.0,0.0,0.0,0.0,0.0,0.0,0.0,0.0,0.0,0.0,0.0,0.0,0.0,0.0,0.0,0.0,0.0,0.0,0.0,0.0,0.0,0.0,0.0,0.0,0.0,0.0,0.0,0.0,0.0,0.0,0.0,0.0,0.0,0.0,0.0,0.0,1.6408,1.819,1.8333,1.9409,2.1339,1.9437,1.8857,1.9936,1.8816,1.7745,0.0,0.0,0.0,0.0,0.0,0.0,0.0,0.0,0.0,0.0,0.0,0.0,0.0,0.0,0.0,0.0,0.0,0.0,0.0,0.0,0.0,0.0,0.0,0.0,0.0,0.0,0.0,0.0,1.1671,1.1619,1.0975,0.0,0.0,0.0,0.0,0.0,0.0,0.0,0.0,0.0,0.0,1.7965,1.8208,1.8832,0.0,0.0,1.9225,1.9237,1.9263,1.917,1.8863,1.8126,1.7518,0.0,0.0,0.0,0.0,0.0,0.0,0.0,0.0,0.0,0.0,0.0,0.0,0.0,0.0,0.0,0.0,0.0,0.0,0.0,0.0,0.0,0.0,0.0,0.0,0.0,0.0,0.0,0.0,0.0,0.0,0.0,0.0,0.0,0.0,0.0,0.0,0.0,0.0,0.0,0.0,0.0,0.0,0.0,0.0,0.0,0.0,0.0,0.0,0.0,0.0,0.0,0.0,1.6908,1.8697,1.9063,2.0189,2.2149,2.0587,2.0096,2.0736,2.01,1.9242,0.0,0.0,0.0,0.0,0.0,0.0,0.0,0.0,0.0,0.0,0.0,0.0,0.0,0.0,0.0,0.0,0.0,0.0,0.0,0.0,0.0,0.0,0.0,0.0,0.0,0.0,0.0,0.0,1.2403,1.2403,1.1689,0.0,0.0,0.0,0.0,0.0,0.0,0.0,0.0,0.0,0.0,1.8732,1.9103,1.9447,1.9701,1.9887,1.9738,1.964,1.964,1.9426,1.9092,1.8557,0.0,0.0,0.0,0.0,0.0,0.0,0.0,0.0,0.0,0.0,0.0,0.0,0.0,0.0,0.0,0.0,0.0,0.0,0.0,0.0,0.0,0.0,0.0,0.0,0.0,0.0,0.0,1.1083,0.0,0.0,1.0841,0.0,0.0,0.0,0.0,0.0,0.0,0.0,0.0,0.0,0.0,0.0,0.0,0.0,0.0,0.0,0.0,0.0,0.0,0.0,0.0,0.0,0.0,1.7388,1.8963,1.9531,2.0579,2.2089,2.1145,2.1043,2.2053,2.1644,2.0944,2.0116,0.0,0.0,0.0,0.0,0.0,0.0,0.0,0.0,0.0,0.0,0.0,0.0,0.0,0.0,0.0,0.0,0.0,0.0,0.0,0.0,0.0,0.0,0.0,0.0,0.0,0.0,1.0536,1.1764,1.272,0.0,0.0,0.0,0.0,0.0,0.0,0.0,0.0,0.0,1.7072,1.8017,1.9066,2.0263,2.0289,2.0404,2.096,2.0551,2.018,2.0168,1.9738,1.921,0.0,0.0,0.0,0.0,0.0,0.0,0.0,0.0,0.0,0.0,0.0,0.0,0.0,0.0,0.0,0.0,0.0,0.0,0.0,0.0,0.0,0.0,0.0,0.0,0.0,0.0,0.0,1.335,1.3326,0.0,0.0,0.0,0.0,0.0,0.0,0.0,0.0,0.0,0.0,0.0,1.7082,1.8279,0.0,0.0,0.0,0.0,0.0,0.0,0.0,0.0,0.0,0.0,0.0,0.0,1.7909,1.9119,2.0165,2.1084,2.1909,2.1503,2.1432,2.1795,2.1898,2.147,2.05,0.0,0.0,0.0,0.0,0.0,0.0,0.0,0.0,0.0,0.0,0.0,0.0,0.0,0.0,0.0,0.0,0.0,0.0,0.0,0.0,0.0,0.0,0.0,0.0,0.0,1.1773,0.0,0.0,0.0,0.0,0.0,0.0,0.0,0.0,0.0,0.0,1.6157,1.7571,1.8175,1.9257,2.0145,2.0561,2.0897,2.1141,0.0,0.0,0.0,0.0,0.0,0.0,0.0,0.0,0.0,0.0,0.0,0.0,0.0,0.0,1.6262,1.5869,1.5389,1.51,1.5214,0.0,0.0,0.0,0.0,0.0,0.0,0.0,0.0,0.0,0.0,0.0,0.0,0.0,0.0,1.5995,1.5931,1.5363,0.0,0.0,0.0,0.0,0.0,0.0,0.0,0.0,1.8931,1.9503,1.912,1.9936,1.9987,1.935,1.8776,1.7539,0.0,0.0,0.0,0.0,0.0,0.0,0.0,0.0,1.8729,1.9556,2.0741,2.1608,2.207,2.203,2.2,2.2,2.2232,2.1862,2.0782,1.9956,1.8645,0.0,0.0,0.0,0.0,0.0,0.0,0.0,0.0,0.0,0.0,0.0,0.0,0.0,0.0,0.0,0.0,0.0,0.0,0.0,0.0,0.0,0.0,0.0,1.3498,0.0,0.0,0.0,0.0,0.0,0.0,0.0,0.0,0.0,1.615,1.7506,1.8734,1.9108,2.0048,2.083,2.1219,0.0,0.0,0.0,0.0,0.0,0.0,0.0,2.0692,2.033,2.0188,1.9996,1.9676,1.9394,1.9221,1.9221,0.0,0.0,1.7654,1.7134,1.6898,1.6911,1.6896,1.6893,1.6906,1.7086,1.7301,0.0,0.0,0.0,0.0,1.8833,0.0,0.0,0.0,1.9154,1.8874,0.0,1.8221,0.0,0.0,0.0,0.0,1.735,1.849,0.0,0.0,2.1162,2.1453,2.1345,2.0777,2.0501,2.064,2.0037,1.9709,1.9529,1.7519,0.0,0.0,0.0,0.0,0.0,0.0,1.9767,2.0241,2.1367,2.2179,2.2647,2.2696,2.2708,2.2696,2.2726,2.2263,2.1186,2.169,2.0526,1.7357,1.7148,0.0,0.0,0.0,0.0,0.0,0.0,0.0,0.0,0.0,0.0,0.0,0.0,0.0,0.0,0.0,0.0,0.0,0.0,0.0,0.0,1.4864,0.0,0.0,0.0,0.0,0.0,0.0,0.0,0.0,0.0,1.907,1.7642,1.8796,1.9784,1.9823,0.0,0.0,0.0,0.0,2.2523,2.3007,2.2656,2.2322,2.2297,2.1845,2.1506,2.1481,0.0,0.0,2.1468,2.1468,2.1405,2.1468,2.1368,2.0815,1.8731,1.8284,1.8162,1.8162,1.8175,1.8125,1.815,1.8598,1.9044,2.2383,0.0,0.0,0.0,0.0,2.0599,2.0948,2.155,2.1363,2.1295,2.1281,2.1104,0.0,0.0,0.0,0.0,0.0,0.0,2.0843,2.1274,2.266,2.331,2.3335,2.3957,2.3621,2.2459,2.2245,2.1982,2.1564,2.0965,1.9773,1.8017,0.0,0.0,0.0,0.0,2.0471,2.1014,2.2172,2.265,2.2413,2.271,2.3017,2.3352,2.3771,2.361,2.2797,2.3048,2.2392,2.0591,1.9767,0.0,0.0,0.0,0.0,0.0,0.0,0.0,0.0,0.0,0.0,0.0,0.0,0.0,0.0,0.0,0.0,0.0,0.0,0.0,1.5517,1.695,1.7678,0.0,0.0,0.0,0.0,0.0,0.0,0.0,0.0,0.0,2.0848,2.0885,2.0914,0.0,0.0,2.1958,2.2259,2.2619,2.292,2.307,2.297,0.0,2.2372,2.2184,2.1945,2.1584,2.1481,2.1481,2.1481,2.1481,2.1481,2.1506,2.1481,2.1255,2.074,2.0525,2.0473,2.0473,2.05,2.0473,2.0498,2.0623,2.0749,2.4087,2.2895,2.207,2.2271,2.3077,2.3077,2.3479,2.4061,2.3507,2.3311,2.3297,2.3059,2.2365,2.1434,2.1337,0.0,0.0,0.0,2.2471,2.3242,2.4075,2.4559,2.4792,2.5052,2.4852,2.4231,2.3771,2.3622,2.3798,2.3071,2.2141,2.0836,0.0,1.9965,2.0636,2.1014,2.1381,2.1702,2.2627,2.3058,2.2987,2.3452,2.3815,2.412,2.45,2.44,2.3781,2.4286,2.3797,2.214,2.1874,2.0594,0.0,0.0,0.0,0.0,0.0,0.0,0.0,0.0,0.0,0.0,0.0,1.2506,1.2312,0.0,0.0,0.0,1.634,1.7331,1.8522,1.9335,0.0,0.0,0.0,0.0,0.0,0.0,0.0,2.1213,2.2182,2.2935,2.3336,2.2886,2.2538,2.2551,2.2698,2.2863,2.3052,0.0,2.3507,2.3446,2.3727,2.377,2.3472,2.3422,2.3278,2.2874,2.2811,2.2811,2.2811,2.2799,2.2811,2.2811,2.2811,2.2811,2.2811,2.2811,2.2472,2.1681,2.1481,2.1481,2.1481,2.1481,2.1543,2.5429,2.5836,2.4689,2.4834,2.5876,2.589,2.6213,2.6718,2.5491,2.4984,2.4994,2.4399,2.3789,2.3155,2.2204,0.0,2.2611,2.3174,2.43,2.5818,2.5371,2.5454,2.5934,2.4983,2.5012,2.5959,2.4932,2.5001,2.595,2.4459,2.3929,2.4341,2.3299,2.2696,2.2549,2.246,2.2492,2.2593,2.3086,2.3629,2.4216,2.4819,2.5139,2.5126,2.5172,2.4942,2.4381,2.5381,2.4932,2.2764,2.3537,2.2842,2.0213,0.0,0.0,0.0,0.0,0.0,0.0,0.0,0.0,0.0,0.0,0.0,0.0,0.0,0.0,1.8226,2.0359,0.0,2.1975,2.1682,0.0,0.0,0.0,2.0024,2.0113,2.1508,2.2535,2.2678,0.0,0.0,2.5253,2.4803,2.4517,2.4693,2.4053,2.3806,2.4374,2.4434,2.4353,2.434,2.4867,2.5268,2.5241,2.5153,2.5001,2.4766,2.484,2.4675,2.4682,2.4662,2.475,2.4682,2.4775,2.477,2.4808,2.4637,2.4148,2.2209,2.1845,2.182,2.192,2.1933,2.2108,2.7101,2.7217,2.6912,2.6721,2.6559,2.6573,2.666,2.6777,2.646,2.6329,2.6341,2.617,2.601,2.585,2.5705,2.5444,2.5135,2.5393,2.5701,2.6123,2.6506,2.7,2.763,2.782,2.7823,2.7607,2.7353,2.7327,2.7499,2.7089,2.6931,2.6946,2.6257,2.5163,2.3757,2.3674,2.4126,2.5036,2.5183,2.5558,2.6193,2.6791,2.7116,2.7116,2.7074,2.6767,2.6193,2.6414,2.6095,2.5031,2.4747,2.4072,2.2962,2.1262,0.0,0.0,0.0,0.0,0.0,0.0,0.0,0.0,0.0,1.6064,1.6168,0.0,1.8401,0.0,2.1556,2.2454,2.2181,2.2452,0.0,0.0,2.2553,2.2807,2.3707,2.3836,2.4032,2.459,2.4978,2.5593,2.6575,2.6638,2.6982,2.7963,2.5899,2.4636,2.5627,2.5826,2.598,2.6377,2.6619,2.6778,2.6698,2.6272,2.5798,2.5584,2.516,2.4833,2.4833,2.48,2.48,2.48,2.48,2.48,2.4845,2.48,2.4682,2.4111,2.4017,2.4042,2.3998,2.4004,2.401,2.8336,2.8307,2.8029,2.7735,2.7413,2.7254,2.7041,2.6791,2.6538,2.6447,2.6447,2.6499,2.6524,2.6524,2.6616,2.6446,2.6109,2.6463,2.6798,2.7119,2.7753,2.8255,2.8609,2.8935,2.9091,2.9028,2.8739,2.871,2.89,2.8612,2.8448,2.8431,2.81,2.7408,2.6325,2.5177,2.5036,2.5891,2.6133,2.6584,2.7244,2.7859,2.8171,2.8172,2.7853,2.7536,2.7215,2.6924,2.6474,2.5821,2.5734,2.5139,2.3972,2.2942,2.1682,0.0,0.0,0.0,0.0,0.0,0.0,0.0,0.0,0.0,0.0,0.0,2.0798,2.2084,2.3524,2.4141,2.3639,2.388,2.4081,2.4096,2.4138,2.4437,2.5116,2.5442,2.5766,2.6194,2.6681,2.7304,2.8071,2.8006,2.8206,2.9198,2.7614,2.657,2.709,2.722,2.7261,2.7291,2.754,2.7625,2.7359,2.6913,2.6556,2.6343,2.603,2.5793,2.5793,2.5793,2.5793,2.5793,2.5793,2.576,2.5681,2.5648,2.5615,2.5581,2.5548,2.5372,2.4933,2.48,2.48,2.9363,2.9304,2.8771,2.8532,2.8417,2.8119,2.7617,2.6945,2.6418,2.6195,2.6293,2.6482,2.6566,2.6592,2.6602,2.6602,2.6667,2.7244,2.782,2.8409,2.9003,2.9286,2.9286,2.9359,2.9714,3.0244,2.9684,2.9714,3.0231,2.9642,2.9346,2.9258,2.9243,2.9258,2.9144,2.6903,2.5923,2.6275,2.6905,2.7509,2.8047,2.851,2.8753,2.8741,2.8081,2.775,2.7735,2.7181,2.6596,2.6043,2.648,2.5974,2.4427,2.4288,2.3509,0.0,2.1221,0.0,0.0,0.0,0.0,0.0,0.0,0.0,0.0,2.233,2.3231,2.4309,2.5437,2.5923,2.5437,2.5505,2.5579,2.5667,2.5741,2.5785,2.5869,2.683,2.7536,2.7665,2.8569,2.9237,2.9448,2.9076,2.8957,2.9537,2.9315,2.8967,2.8829,2.8736,2.8491,2.7781,2.8275,2.8688,2.8166,2.7841,2.7644,2.7351,2.7144,2.7113,2.6913,2.6939,2.6964,2.6952,2.6913,2.6892,2.6748,2.6688,2.6654,2.6514,2.6501,2.6202,2.536,2.5134,2.5001,3.0704,3.0704,3.0601,3.0232,2.973,2.9674,2.8983,2.7892,2.7244,2.7299,2.78,2.8331,2.8552,2.8552,2.8729,2.8797,2.8809,2.9039,2.9212,2.9361,2.9946,3.0229,3.0274,3.0783,3.1111,3.1215,3.1096,3.1067,3.107,3.0937,3.061,3.0063,3.0063,3.0048,3.0033,0.0,0.0,0.0,2.9434,3.0039,3.005,2.9739,2.9581,2.9552,2.8556,0.0,2.8018,2.7442,2.7071,2.6938,2.6545,0.0,0.0,0.0,0.0,0.0,0.0,0.0,0.0,0.0,0.0,0.0,2.423,2.3985,2.3083,2.4058,2.4855,2.5091,2.5328,2.5614,2.6022,2.6528,2.7045,2.7602,2.8078,2.8444,2.8619,2.8854,2.9029,2.9152,2.9376,2.9719,3.0197,3.0188,3.0342,3.0878,3.1012,3.0968,3.0863,3.0367,3.0231,3.0587,3.0541,3.0718,3.0584,2.9964,2.9223,2.8794,2.813,2.763,2.718,2.7024,2.7024,2.7024,2.7024,2.7024,2.6943,2.6943,2.6943,2.6922,2.6922,2.6744,2.6303,2.6172,2.6185,3.1307,3.1248,3.0936,3.0594,0.0,2.9999,2.9671,2.93,2.8607,2.8518,2.8898,2.9226,2.9347,2.9347,2.9471,2.9662,2.9946,3.0001,3.0223,3.0552,3.0881,3.0987,3.1002,3.1346,3.1496,3.1496,3.1496,3.1467,3.1394,3.1424,3.1216,3.0888,3.0873,3.0888,3.0873,3.0589,3.0121,2.9486,3.0132,3.0588,3.0822,3.0588,3.0441,3.0411,2.9571,0.0,0.0,0.0,0.0,0.0,0.0,0.0,0.0,2.6327,0.0,2.537,2.5091,2.4944,2.4997,2.5265,2.5467,2.5529,2.6126,2.6033,2.4989,2.586,2.6589,2.6907,2.7229,2.7556,2.7869,2.817,2.8527,2.8854,2.9166,2.9401,2.9513,2.9767,2.9973,3.0073,3.0342,3.0672,3.0928,3.0972,3.1122,3.1436,3.1496,3.1496,3.1482,3.1219,3.1058,3.1014,3.0673,3.048,3.0419,3.0178,2.9813,2.9254,2.8698,2.8176,2.7822,2.7469,2.7248,2.7248,2.7248,2.7248,2.718,2.7146,2.7113,2.7011,2.7024,2.6943,2.6773,2.6671,2.6555,3.1496,3.1451,3.0898,3.0658,3.0642,3.0148,3.0223,3.0629,3.005,0.0,0.0,2.9891,2.9951,2.9939,2.9939,3.0208,3.0672,3.0687,3.0957,3.1496,3.1496,3.1496,3.1496,3.1496,3.1496,3.1496,3.1496,3.1496,3.1496,3.1496,3.1496,3.1496,3.1496,3.1496,3.1496,3.1496,3.1112,3.0377,3.0333,3.057,3.1087,3.0984,3.0954,3.0969,3.0333,3.0021,3.0007,2.9476,2.9195,2.9195,2.8705,2.8228,2.7654,2.7213,2.6713,2.6202,2.6255,2.6542,2.7091,2.7136,2.7136,2.7126,2.7645,2.7675,2.7016,2.757,2.8184,2.8727,2.9265,2.9636,2.9756,2.9771,2.9831,2.9909,2.9924,2.9939,2.9968,3.0357,3.0658,3.0746,3.1122,3.1496,3.1466,3.1466,3.1496,3.1496,3.1496,3.1496,3.1496,3.1467,3.1292,3.0866,3.0494,2.9981,2.9889,2.9981,2.9813,2.9721,2.9251,2.8853,2.8643,2.8222,2.7894,2.7927,2.7875,2.7842,2.7709,2.7656,2.7469,2.7315,2.7134,2.7092,2.7045,2.693,2.676,3.1496,3.1496,3.1391,3.1361,3.1346,3.1271,3.1286,3.1346,3.1228,3.0898,3.0417,3.0972,3.1241,3.1227,3.1227,3.1286,3.1361,3.1361,3.1421,3.1496,3.1496,3.1496,3.1496,3.1496,3.1496,3.1496,3.1496,3.1496,3.1496,3.1496,3.1496,3.1511,3.1496,3.1511,3.1496,3.1496,3.1422,3.1289,3.1217,3.1116,3.1102,3.0628,3.0389,3.0388,2.9963,2.966,2.966,2.96,2.9525,2.9525,2.9463,2.9331,2.9256,2.9164,2.9089,2.8999,2.9026,2.9097,2.9157,2.9187,2.9187,2.9202,2.9277,2.9026,2.8412,2.8921,2.9367,2.9472,2.9592,2.9804,3.0283,3.0372,3.0597,3.112,3.1212,3.1227,3.1152,3.1241,3.1316,3.1316,3.1421,3.1496,3.1496,3.1496,3.1496,3.1496,3.1496,3.1511,3.1555,3.1496,3.1467,3.138,3.1278,3.1204,3.1132,3.1205,3.0969,3.0419,3.0325,3.0045,2.961,2.9358,2.9218,2.9216,2.9218,2.9208,2.918,2.8712,2.8427,2.8304,2.7921,2.7507,2.7398,2.7317,2.713,3.1496,3.1496,3.1496,3.1496,3.1496,3.1496,3.1496,3.1496,3.1496,3.1331,3.1092,3.1361,3.1496,3.1496,3.1496,3.1496,3.1496,3.1496,3.1496,3.1496,3.1496,3.1496,3.1496,3.1496,3.1496,3.1496,3.1496,3.1496,3.1496,3.1496,3.169,3.2019,3.2378,3.2572,3.2602,3.2572,3.2572,3.2587,3.1811,3.138,3.1307,3.1068,3.0947,3.0933,3.0748,3.0642,3.0642,3.0642,3.0642,3.0642,3.0283,3.0088,3.0073,2.9774,2.9621,2.9621,2.9621,2.9621,2.9621,2.9621,2.9756,3.0043,3.0088,3.0133,3.018,3.0118,3.0088,3.0103,3.0402,3.0746,3.1002,3.1047,3.1167,3.1466,3.1496,3.1496,3.1496,3.1496,3.1496,3.1496,3.1496,3.1496,3.1496,3.1496,3.1496,3.1496,3.1496,3.1615,3.1974,3.2034,3.1884,3.1585,3.1496,3.1675,3.1959,3.2034,3.205,3.2062,3.1816,3.1524,3.112,3.0899,3.0612,3.0594,3.058,3.0594,3.0566,3.0024,2.9629,2.9476,2.8964,2.8499,2.8374,2.8304,2.7911,3.1496,3.1496,3.1496,3.1496,3.1496,3.1496,3.1496,3.1496,3.1496,3.1496,3.1496,3.1496,3.1496,3.1496,3.1496,3.1496,3.1496,3.1496,3.1496,3.1496,3.1496,3.1496,3.1496,3.1496,3.1585,3.1705,3.1735,3.1795,3.1929,3.1944,3.2198,3.2751,3.3245,3.3499,3.3499,3.3499,3.3499,3.344,3.2497,3.1869,3.1735,3.172,3.166,3.1511,3.1496,3.1496,3.1496,3.1496,3.1496,3.1481,3.1002,3.0731,3.0717,3.0283,3.0013,3.0013,3.0028,3.0013,3.0028,3.0028,3.0238,3.0687,3.0731,3.0971,3.1391,3.1017,3.0746,3.0763,3.1167,3.1466,3.1466,3.1481,3.1496,3.1496,3.1496,3.1496,3.1496,3.1496,3.1496,3.1496,3.1496,3.1496,3.1496,3.1496,3.1585,3.172,3.172,3.1989,3.2587,3.2736,3.2452,3.2138,3.1944,3.2168,3.2632,3.2736,3.2901,3.344,3.3055,3.2702,3.2545,3.2222,3.1994,3.194,3.1951,3.1972,3.1915,3.1364,3.0957,3.0835,3.031,2.9766,2.953,2.9179,2.8753,3.1496,3.1496,3.1496,3.1496,3.1496,3.1496,3.1496,3.1496,3.1496,3.1496,3.1496,3.1496,3.1496,3.1496,3.1496,3.1496,3.1496,3.1496,3.1496,3.1496,3.1496,3.1496,3.1525,3.1525,3.1809,3.2333,3.2422,3.2706,3.3185,3.3275,3.3335,3.3395,3.3484,3.3544,3.3529,3.3544,3.3529,3.3499,3.3365,3.3036,3.2467,3.2422,3.2108,3.1511,3.1511,3.1496,3.154,3.1496,3.1511,3.1496,3.1436,3.1406,3.1391,3.1331,3.1301,3.1286,3.1286,3.1331,3.1301,3.1331,3.1301,3.1406,3.1376,3.1391,3.1496,3.1436,3.1406,3.1391,3.1451,3.1496,3.1496,3.1496,3.1496,3.1496,3.1496,3.1496,3.1496,3.1496,3.1496,3.1496,3.1496,3.1496,3.1555,3.163,3.1824,3.2362,3.2392,3.2662,3.3275,3.341,3.3455,3.3335,3.3305,3.332,3.3425,3.341,3.3514,3.3559,3.3514,3.348,3.3492,3.3432,3.3299,3.3311,3.3293,3.3306,3.3184,3.2788,3.2352,3.2186,3.173,3.1104,3.0453,2.9904,2.9297,3.1496,3.1496,3.1496,3.1496,3.1496,3.1496,3.1496,3.1496,3.1496,3.1496,3.1496,3.1496,3.1496,3.1496,3.1496,3.1496,3.1496,3.1496,3.1496,3.1496,3.1496,3.172,3.2064,3.2079,3.2437,3.3051,3.3095,3.323,3.3529,3.3873,3.4099,3.4128,3.4472,3.4681,3.4696,3.4681,3.4681,3.4681,3.4681,3.4352,3.3709,3.329,3.2976,3.2721,3.2706,3.2497,3.2123,3.2079,3.1899,3.154,3.1496,3.1496,3.1496,3.1496,3.1496,3.1496,3.1496,3.1496,3.1496,3.1496,3.1496,3.1496,3.1496,3.1496,3.1496,3.1496,3.1496,3.1496,3.1496,3.1496,3.1496,3.1496,3.1496,3.1496,3.1496,3.1496,3.1496,3.1496,3.1496,3.1496,3.1496,3.169,3.2049,3.2452,3.2766,3.3051,3.3095,3.335,3.3948,3.4083,3.4294,3.4592,3.4681,3.4487,3.4234,3.4114,3.4233,3.4532,3.4681,3.4681,3.4622,3.4666,3.4665,3.4651,3.4577,3.4592,3.4692,3.4062,3.3561,3.3419,3.3016,3.24,3.209,3.1474,3.0954,3.1496,3.1496,3.1496,3.1496,3.1496,3.1496,3.1496,3.1496,3.1496,3.1496,3.1496,3.1496,3.1615,3.1735,3.16,3.1496,3.1525,3.169,3.178,3.1795,3.1944,3.2303,3.2751,3.2796,3.3125,3.3664,3.3769,3.3858,3.4083,3.4533,3.4788,3.4831,3.525,3.5489,3.5489,3.5489,3.5489,3.5489,3.5489,3.525,3.4756,3.4292,3.3873,3.3544,3.3499,3.3275,3.2781,3.2796,3.2482,3.1809,3.178,3.1675,3.1525,3.1496,3.1496,3.1496,3.1496,3.1496,3.1496,3.1496,3.1496,3.1496,3.1496,3.1496,3.1496,3.1496,3.1496,3.1496,3.1496,3.1496,3.1496,3.1496,3.1496,3.1496,3.1496,3.1496,3.1496,3.163,3.178,3.178,3.2034,3.2213,3.2736,3.3155,3.3469,3.3694,3.3784,3.3993,3.4577,3.4803,3.4951,3.5415,3.5474,3.5295,3.4893,3.4788,3.504,3.525,3.54,3.537,3.5489,3.5489,3.5489,3.5115,3.54,3.5444,3.525,3.4806,3.4537,3.4447,3.4027,3.349,3.3356,3.2749,3.2191,3.1496,3.1525,3.1525,3.1585,3.1525,3.1555,3.154,3.163,3.157,3.154,3.16,3.1585,3.1869,3.2407,3.1869,3.1555,3.1615,3.2183,3.2437,3.2527,3.3066,3.341,3.3455,3.3469,3.3799,3.4429,3.4459,3.4741,3.5295,3.54,3.5459,3.5444,3.5474,3.5489,3.5489,3.5489,3.5489,3.5489,3.5489,3.5474,3.5429,3.5385,3.4741,3.3739,3.3575,3.3606,3.344,3.3455,3.3155,3.2497,3.2437,3.2168,3.163,3.154,3.154,3.1539,3.1524,3.1524,3.1582,3.1596,3.1611,3.1582,3.1653,3.1553,3.1726,3.1713,3.173,3.1583,3.1717,3.1674,3.1659,3.1599,3.154,3.157,3.1555,3.1555,3.1585,3.2168,3.2407,3.2572,3.3006,3.3335,3.347,3.3484,3.3919,3.4309,3.4459,3.4651,3.516,3.54,3.5444,3.5459,3.5489,3.5474,3.5444,3.5295,3.5355,3.5489,3.5489,3.5489,3.5489,3.5489,3.5489,3.5489,3.5489,3.5504,3.5504,3.5424,3.5329,3.5133,3.4691,3.4327,3.4308,3.3024,3.2528,3.2781,3.2796,3.2796,3.2781,3.2796,3.2781,3.2781,3.2781,3.2781,3.2796,3.2751,3.2796,3.2931,3.3125,3.2901,3.2796,3.2811,3.3051,3.3125,3.317,3.3395,3.3709,3.4129,3.4144,3.4472,3.5055,3.5145,3.525,3.5459,3.5572,3.5572,3.5537,3.5604,3.5589,3.5522,3.5489,3.5489,3.5489,3.5489,3.5489,3.5489,3.5489,3.525,3.4863,3.5151,3.497,3.4159,3.4516,3.4228,3.3201,3.314,3.3036,3.2796,3.2348,3.2118,3.2083,3.2064,3.2231,3.2544,3.268,3.2718,3.2703,3.2783,3.2819,3.2877,3.2931,3.2957,3.2977,3.3058,3.3079,3.2884,3.2165,3.1675,3.2049,3.2138,3.2317,3.2706,3.3006,3.3186,3.3397,3.3969,3.4361,3.4296,3.4551,3.4958,3.5102,3.513,3.5235,3.5385,3.5489,3.5489,3.5489,3.5489,3.5489,3.5489,3.5489,3.5489,3.5489,3.5489,3.5489,3.5489,3.5489,3.5489,3.5489,3.5489,3.5489,3.5504,3.5537,3.5537,3.5424,3.5019,3.4971,3.5067,3.3885,3.3478,3.3499,3.3499,3.3499,3.3499,3.3499,3.3499,3.3499,3.3499,3.3499,3.3499,3.3499,3.3499,3.3604,3.3784,3.3814,3.3963,3.4098,3.3948,3.3814,3.3844,3.4038,3.4382,3.4741,3.4848,3.5087,3.5512,3.5619,3.5651,3.5604,3.575,3.575,3.5683,3.5718,3.5655,3.5572,3.5537,3.5489,3.5489,3.5489,3.5489,3.5489,3.5489,3.5489,3.5619,3.6305,3.6292,3.5165,3.5322,3.5064,3.4227,3.3922,3.3724,3.3469,3.3261,3.3088,3.3077,3.3268,3.3525,3.3889,3.3889,3.3824,3.3873,3.3969,3.4033,3.4038,3.4261,3.44,3.4419,3.4291,3.4296,3.4055,3.3076,3.248,3.2856,3.2961,3.3126,3.3531,3.3833,3.4135,3.4514,3.497,3.5135,3.499,3.5384,3.5531,3.5522,3.5489,3.5489,3.5489,3.5489,3.5489,3.5489,3.5489,3.5489,3.5489,3.5489,3.5489,3.5489,3.5489,3.5489,3.5489,3.5489,3.5489,3.5489,3.5489,3.5489,3.5489,3.5537,3.5537,3.5522,3.5474,3.5379,3.5184,3.4806,3.4327,3.3574,3.3619,3.3544,3.3649,3.3694,3.3709,3.3589,3.3664,3.3634,3.3724,3.3784,3.3634,3.407,3.4414,3.4566,3.4848,3.5162,3.4758,3.4518,3.4563,3.507,3.534,3.54,3.5385,3.5482,3.5688,3.591,3.5863,3.572,3.5894,3.5973,3.5941,3.5799,3.5752,3.5735,3.5604,3.5504,3.5504,3.5489,3.5489,3.5489,3.5554,3.5619,3.5733,3.6845,3.7189,3.6415,3.5976,3.5673,3.54,3.4941,3.4266,3.3955,3.4178,3.4424,3.4519,3.4993,3.5371,3.5489,3.5098,3.4963,3.5031,3.5002,3.5098,3.5204,3.5571,3.5857,3.5775,3.5419,3.5099,3.506,3.4593,3.406,3.3834,3.388,3.394,3.4091,3.4561,3.5245,3.5732,3.5915,3.5896,3.5737,3.5689,3.5703,3.5604,3.5537,3.5489,3.5522,3.5522,3.5489,3.5489,3.5489,3.5489,3.5489,3.5489,3.5489,3.5489,3.5489,3.5489,3.5489,3.5489,3.5522,3.5539,3.5651,3.5651,3.5572,3.5604,3.5668,3.5668,3.5686,3.5638,3.5365,3.5055,3.471,3.4876,3.4891,3.4876,3.4876,3.4876,3.4876,3.4891,3.4876,3.4876,3.4876,3.4908,3.4958,3.5142,3.5309,3.5465,3.557,3.5623,3.5413,3.5259,3.5239,3.54,3.5489,3.5489,3.5489,3.5587,3.5735,3.5894,3.5973,3.5973,3.6068,3.6116,3.599,3.6053,3.599,3.5894,3.575,3.5653,3.5621,3.5554,3.5489,3.5569,3.6006,3.6244,3.6368,3.7219,3.7777,3.7962,3.7719,3.7318,3.68,3.6682,3.6354,3.592,3.5865,3.5855,3.5785,3.5954,3.6316,3.6713,3.6772,3.6737,3.6832,3.6884,3.6969,3.6984,3.7199,3.736,3.739,3.729,3.7235,3.7206,3.7109,3.6252,3.4805,3.4668,3.4942,3.5231,3.5597,3.5825,3.5976,3.6195,3.6195,3.599,3.5894,3.5878,3.5829,3.5651,3.5522,3.5604,3.5587,3.5489,3.5489,3.5489,3.5489,3.5522,3.5554,3.5554,3.5554,3.5522,3.5489,3.5489,3.5489,3.5539,3.5636,3.5733,3.5765,3.5733,3.575,3.5814,3.5814,3.5799,3.5735,3.5606,3.5397,3.5088,3.5489,3.5489,3.5489,3.5489,3.5489,3.5489,3.5522,3.5572,3.5572,3.5604,3.5686,3.5767,3.5799,3.577,3.5684,3.5688,3.569,3.5476,3.5416,3.5522,3.555,3.5557,3.5604,3.5701,3.5765,3.5878,3.6068,3.6132,3.61,3.6211,3.6274,3.6226,3.6211,3.6133,3.6053,3.5831,3.572,3.5688,3.5587,3.5489,3.5636,3.6228,3.66,3.6752,3.7629,3.833,3.8674,3.8859,3.8684,3.8007,3.7777,3.7479,3.7194,3.7219,3.7277,3.7307,3.7475,3.7786,3.8187,3.8178,3.8196,3.8263,3.8355,3.8371,3.8422,3.8612,3.8831,3.887,3.8688,3.8629,3.8585,3.8374,3.7626,3.6432,3.628,3.6303,3.6554,3.66,3.6476,3.6383,3.6367,3.6336,3.6163,3.6053,3.6037,3.5973,3.5829,3.5716,3.5735,3.5686,3.5621,3.5554,3.5537,3.5554,3.5572,3.5604,3.5604,3.5619,3.5587,3.5522,3.5489,3.5489,3.5522,3.5653,3.5767,3.5878,3.5846,3.5973,3.6022,3.599,3.6048,3.5894,3.5831,3.5782,3.5574,3.5619,3.5619,3.5587,3.5619,3.5619,3.5569,3.5604,3.5688,3.5688,3.5784,3.5941,3.6005,3.6068,3.5916,3.5691,3.5737,3.5787,3.5455,3.5438,3.5689,3.5797,3.5855,3.5887,3.6229,3.6337,3.6211,3.6445,3.643,3.6242,3.6383,3.6492,3.646,3.632,3.6258,3.629,3.5975,3.5896,3.5991,3.5814,3.5733,3.5797,3.643,3.6813,3.6918,3.8185,3.8935,3.9005,3.9454,3.9497,3.8816,3.8318,3.8104,3.8032,3.8362,3.8581,3.8689,3.9226,3.9413,3.9636,3.9263,3.9086,3.9185,3.9185,3.9259,3.9278,3.9572,3.9817,3.9834,3.9516,3.9259,3.9135,3.8876,3.8469,3.839,3.8008,3.7758,3.7429,3.7312,3.7013,3.66,3.6492,3.6429,3.6242,3.6211,3.6148,3.6085,3.6005,3.5941,3.5941,3.5863,3.5752,3.5718,3.5683,3.5668,3.5718,3.575,3.575,3.5765,3.5733,3.5683,3.5651,3.5636,3.5817,3.5933,3.6063,3.6096,3.6327,3.6621,3.6683,3.6743,3.6619,3.6284,3.6281,3.6429,3.6394,3.6951,3.7011,3.6585,3.6352,3.6244,3.5879,3.5703,3.5705,3.5752,3.5911,3.6022,3.6116,3.6476,3.6768,3.6779,3.7013,3.7106,3.6605,3.631,3.6414,3.6511,3.6519,3.6632,3.7144,3.7249,3.6906,3.6937,3.6922,3.6445,3.6476,3.6523,3.6492,3.6538,3.6677,3.6967,3.6753,3.686,3.7145,3.6981,3.6875,3.6981,3.7674,3.8129,3.8258,3.9183,3.9705,3.9731,3.9927,3.9918,3.9644,3.9461,3.9391,3.9401,3.9444,3.9461,3.954,3.9677,3.9798,3.9858,3.9816,3.9799,3.985,3.9799,3.985,3.9893,3.9995,4.0113,4.0087,3.9918,3.9825,3.9825,3.9679,3.9584,3.9523,3.8903,3.8153,3.7608,3.7371,3.7164,3.6631,3.6523,3.646,3.6414,3.632,3.6242,3.6289,3.6163,3.6068,3.6085,3.6022,3.5926,3.5926,3.591,3.591,3.5894,3.5941,3.5941,3.5941,3.591,3.5925,3.591,3.5941,3.626,3.6598,3.6743,3.6824,3.739,3.7899,3.7774,3.7483,3.7512,3.7373,3.7554,3.7669,3.7512,3.7546,3.7605,3.7265,3.7145,3.707,3.6722,3.6631,3.6661,3.6661,3.6783,3.6951,3.7057,3.728,3.7602,3.7448,3.7617,3.7872,3.6987,3.6594,3.68,3.7114,3.734,3.7447,3.7748,3.7576,3.7251,3.7118,3.6846,3.66,3.6708,3.6861,3.6983,3.7148,3.7445,3.7709,3.7458,3.7442,3.7706,3.7589,3.7472,3.756,3.833,3.8701,3.8935,3.9653,4.0113,4.0096,4.0113,4.0062,3.9986,3.9986,4.0011,4.007,3.9961,3.9926,3.9977,3.9952,3.9926,3.9986,4.0062,4.0096,4.0096,4.0113,4.0113,4.007,4.0113,4.0113,4.0113,4.0113,4.0113,4.0113,4.0113,4.0113,3.9969,3.9454,3.8712,3.7883,3.7796,3.7371,3.68,3.6492,3.6492,3.6492,3.6383,3.6414,3.6414,3.6367,3.6289,3.632,3.6195,3.61,3.61,3.6068,3.6022,3.6053,3.6085,3.6163,3.6163,3.6132,3.6132,3.6131,3.6209,3.6558,3.6941,3.7272,3.7723,3.8258,3.8563,3.8319,3.8163,3.8394,3.8437,3.8417,3.8583,3.8455,3.7806,3.7835,3.7892,3.7921,3.7892,3.7851,3.7732,3.793,3.7844,3.7991,3.8137,3.825,3.8193,3.8358,3.7947,3.7838,3.829,3.7277,3.695,3.7271,3.7756,3.8178,3.8444,3.823,3.7911,3.7562,3.6983,3.6831,3.6892,3.7208,3.746,3.7578,3.7982,3.8294,3.8322,3.8108,3.7994,3.8137,3.8108,3.8051,3.8165,3.8734,3.9059,3.9209,3.9688,4.007,4.0113,4.0113,4.0113,4.0113,4.0113,4.0113,4.007,3.9961,3.9986,4.0037,4.0011,3.9986,4.0087,4.0087,4.0113,4.0113,4.0113,4.0113,4.0113,4.0113,4.0113,4.0113,4.0113,4.0113,4.0113,4.0113,4.0113,4.007,4.0003,3.9506,3.8712,3.8351,3.7838,3.6708,3.6523,3.6492,3.6492,3.6492,3.6492,3.6476,3.6429,3.6429,3.6414,3.632,3.6289,3.6258,3.6179,3.6116,3.6179,3.6242,3.632,3.6398,3.6398,3.6351,3.6303,3.6425,3.6808,3.724,3.7904,3.8462,3.889,3.8952,3.8862,3.8954,3.918,3.9013,3.8829,3.91,3.9125,3.9329,3.9382,3.8936,3.8723,3.858,3.8189,3.8003,3.8044,3.8044,3.8246,3.8306,3.8334,3.8601,3.9001,3.8857,3.9106,3.9396,3.8622,3.8441,3.8524,3.8633,3.915,3.9536,3.9444,3.893,3.8379,3.849,3.8084,3.7608,3.7767,3.8124,3.8153,3.8351,3.8546,3.892,3.8838,3.9001,3.9312,3.9276,3.9152,3.9152,3.9391,3.9644,3.967,3.9944,4.007,4.0113,4.0113,4.0113,4.0113,4.0113,4.0113,4.007,4.0045,4.0045,4.0087,4.0087,4.0062,4.0113,4.0113,4.0113,4.0113,4.0113,4.0113,4.0113,4.0113,4.0113,4.0113,4.0113,4.0113,4.0113,4.0113,4.0113,4.0113,4.007,3.9825,3.9135,3.8557,3.778,3.6922,3.6523,3.6492,3.6523,3.6523,3.6523,3.6492,3.6523,3.6523,3.6523,3.6538,3.6445,3.6445,3.6352,3.632,3.6569,3.6693,3.686,3.6937,3.6892,3.6693,3.6631,3.7014,3.7524,3.8108,3.8752,3.9182,3.9505,3.9828,3.9813,3.9905,3.992,3.9782,3.969,3.9828,3.9782,3.9833,3.9858,3.9618,3.9497,3.9411,3.9113,3.8962,3.8962,3.8978,3.9032,3.9119,3.9146,3.9322,3.9601,3.9644,3.9808,3.9851,3.9326,3.8971,3.8954,3.9005,3.9394,3.9977,4.0045,3.9601,3.8849,3.8684,3.8351,3.8124,3.8379,3.8712,3.8767,3.8957,3.9339,3.9523,3.9487,3.9566,3.9755,3.9849,3.9798,3.9807,3.991,3.9986,3.9986,4.0062,4.0113,4.0113,4.0113,4.0113,4.0113,4.0113,4.0113,4.0113,4.0113,4.0113,4.0113,4.0113,4.0113,4.0113,4.0113,4.0113,4.0113,4.0113,4.0113,4.0113,4.0113,4.0113,4.0113,4.0113,4.0113,4.0113,4.0113,4.0113,4.0113,4.0113,3.9841,3.9286,3.8657,3.7966,3.7118,3.6693,3.6754,3.6754,3.6785,3.7058,3.7252,3.7028,3.7013,3.7013,3.6983,3.6723,3.6631,3.6523,3.66,3.6937,3.7222,3.7517,3.7592,3.765,3.7342,3.7119,3.7732,3.84,3.8766,3.8998,3.9644,3.9997,4.0366,4.0489,4.0336,4.0274,4.0428,4.0428,4.0213,4.0182,3.9926,3.9952,4.0062,4.0113,4.0113,4.0045,4.002,4.0045,4.0113,3.9927,4.007,4.0113,3.9969,4.007,4.0045,4.007,3.9943,3.958,3.9317,3.93,3.93,3.9597,4.0028,4.0045,3.985,3.9312,3.9028,3.8684,3.8657,3.9001,3.9339,3.9418,3.9773,3.9944,3.9995,3.9986,3.991,3.9935,3.9935,3.991,3.9935,4.002,4.0087,4.007,4.007,4.0113,4.0113,4.0113,4.0113,4.0113,4.0113,4.0113,4.0113,4.0113,4.0113,4.0113,4.0113,4.0113,4.0113,4.0113,4.0113,4.0113,4.0113,4.0113,4.0113,4.0113,4.0113,4.0113,4.0113,4.0113,4.0113,4.0113,4.0113,4.0113,4.0113,3.985,3.9391,3.8794,3.8238,3.7637,3.7148,3.7028,3.7193,3.7326,3.7693,3.7953,3.7709,3.7549,3.7549,3.7492,3.727,3.7321,3.7353,3.7616,3.7945,3.765,3.7982,3.8096,3.821,3.7969,3.7685,3.8264,3.8825,3.8798,3.9123,3.9835,4.0312,4.0413,4.0489,4.0489,4.0489,4.0489,4.0489,4.0489,4.0524,4.0087,4.0087,4.0113,4.0113,4.0113,4.0113,4.0113,4.0113,4.0113,4.0113,4.0113,4.0113,4.0113,4.0113,4.0113,4.0113,4.0045,3.9859,3.9842,3.9842,3.9842,4.0011,4.0045,4.0096,4.0003,3.9978,3.9705,3.9444,3.9269,3.9644,3.9841,3.9944,4.002,4.0113,4.0113,4.0087,4.0062,4.0037,4.0037,4.002,4.0045,4.007,4.0113,4.0113,4.0113,4.0113,4.0113,4.0113,4.0113,4.0113,4.0113,4.0113,4.0113,4.0113,4.0113,4.0113,4.0113,4.0113,4.0113,4.0113,4.0113,4.0113,4.0113,4.0113,4.0113,4.0113,4.0113,4.0113,4.0113,4.0113,4.0113,4.0113,4.0113,4.0113,4.007,4.0045,3.9825,3.9348,3.8821,3.8339,3.7796,3.7431,3.7738,3.7953,3.8165,3.8407,3.8322,3.8181,3.8153,3.8103,3.7995,3.8144,3.8355,3.8723,3.9118,3.8577,3.8379,3.8463,3.8546,3.849,3.8432,3.8847,3.9136,3.9204,3.9612,4.0352,4.0625,4.0699,4.0768,4.0956,4.0768,4.0558,4.0783,4.0956,4.0681,4.0113,4.0113,4.0113,4.0113,4.0113,4.0113,4.0113,4.0113,4.0113,4.0113,4.0113,4.0113,4.0113,4.0113,4.0113,4.0113,4.0113,4.0113,4.0113,4.0113,4.0113,4.0113,4.0113,4.0113,4.0113,4.007,4.0087,3.9969,3.9705,3.9918,4.0113,4.0113,4.0113,4.0113,4.0113,4.0113,4.0113,4.0113,4.0113,4.0113,4.0113,4.0113,4.0113,4.0113,4.0113,4.0113,4.0113,4.0113,4.0113,4.0113,4.0113,4.0113,4.0113,4.0113,4.0113,4.0113,4.0113,4.0113,4.0113,4.0113,4.0113,4.0113,4.0113,4.0113,4.0113,4.0113,4.0113,4.0113,4.0113,4.0113,4.0113,4.0113,4.0113,4.0113,4.0113,4.0113,3.9969,3.9523,3.9269,3.9011,3.8446,3.8238,3.8518,3.8657,3.8712,3.8794,3.8876,3.8854,3.8816,3.8913,3.8982,3.9215,3.9446,3.9634,3.9942,3.9528,3.9013,3.9001,3.8984,3.893,3.9029,3.9345,3.9632,3.9777,4.0325,4.0971,4.1479,4.1739,4.1608,4.1444,4.1525,4.1558,4.1459,4.136,4.1142,4.0113,4.0113,4.0113,4.0113,4.0113,4.0113,4.0113,4.0113,4.0113,4.0113,4.0113,4.0113,4.0113,4.0113,4.0113,4.0113,4.0113,4.0113,4.0113,4.0113,4.0113,4.0113,4.0113,4.0113,4.0113,4.0113,4.0113,4.0113,4.002,4.0087,4.0113,4.0113,4.0113,4.0113,4.0113,4.0113,4.0113,4.0113,4.0113,4.0113,4.0113,4.0113,4.0113,4.0113,4.0113,4.0113,4.0113,4.0113,4.0113,4.0113,4.0113,4.0113,4.0113,4.0113,4.0113,4.0113,4.0113,4.0113,4.0113,4.0113,4.0113,4.0113,4.0113,4.0113,4.0113,4.0113,4.0113,4.0113,4.0113,4.0113,4.0113,4.0113,4.0113,4.0113,4.0113,4.0087,3.9995,3.9825,3.9747,3.9428,3.8968,3.9001,3.9265,3.9312,3.9348,3.9401,3.947,3.9761,3.9774,4.009,4.0204,4.0397,4.0567,4.0602,4.0656,4.0514,4.0005,3.967,3.9627,3.9575,3.9637,3.9797,4.0087,4.0449,4.106,4.1703,4.2244,4.252,4.2205,4.2109,4.2395,4.2363,4.2078,4.1933,4.1771,4.0113,4.0113,4.0113,4.0113,4.0113,4.0113,4.0113,4.0113,4.0113,4.0113,4.0113,4.0113,4.0113,4.0113,4.0113,4.0113,4.0113,4.0113,4.0113,4.0113,4.0113,4.0113,4.0113,4.0113,4.0113,4.0113,4.0113,4.0113,4.0113,4.0113,4.0113,4.0113,4.0113,4.0113,4.0113,4.0113,4.0113,4.0113,4.0113,4.0113,4.0113,4.0113,4.0113,4.0113,4.0113,4.0113,4.0113,4.0113,4.0113,4.0113,4.0113,4.0113,4.0113,4.0113,4.0113,4.0113,4.0113,4.0113,4.0113,4.0113,4.0113,4.0113,4.0113,4.0113,4.0113,4.0113,4.0113,4.0113,4.0113,4.0113,4.0113,4.0113,4.0113,4.0113,4.0113,4.0113,4.0045,3.9995,3.9944,3.9944,3.9532,3.972,3.9985,3.9969,3.9969,4.002,4.013,4.0408,4.0751,4.1086,4.1715,4.1972,4.1422,4.1354,4.106,4.0965,4.0519,4.0146,4.0087,4.0045,3.9994,4.0117,4.0843,4.1285,4.1831,4.2304,4.2828,4.2923,4.2645,4.2738,4.3031,4.2847,4.2458,4.2395,4.2395,4.0113,4.0113,4.0113,4.0113,4.0113,4.0113,4.0113,4.0113,4.0113,4.0113,4.0113,4.0113,4.0113,4.0113,4.0113,4.0113,4.0113,4.0113,4.0113,4.0113,4.0113,4.0113,4.0113,4.0113,4.0113,4.0113,4.0113,4.0113,4.0113,4.0113,4.0113,4.0113,4.0113,4.0113,4.0113,4.0113,4.0113,4.0113,4.0113,4.0113,4.0113,4.0113,4.0113,4.0113,4.0113,4.0113,4.0113,4.0113,4.0113,4.0113,4.0113,4.0113,4.0113,4.0113,4.0113,4.0113,4.0113,4.0113,4.0113,4.0113,4.0113,4.0113,4.0113,4.0113,4.0113,4.0113,4.0113,4.0113,4.0113,4.0113,4.0113,4.0113,4.0113,4.0113,4.0113,4.0113,4.0113,4.0113,4.007,4.0096,4.018,4.04,4.0553,4.046,4.0417,4.04,4.0612,4.0915,4.1463,4.2054,4.2848,4.3742,4.2873,4.1987,4.1519,4.1187,4.051,4.0146,4.0113,4.007,4.007,4.0392,4.101,4.161,4.2068,4.2613,4.3335,4.3604,4.3604,4.3634,4.371,4.3515,4.332,4.3122,4.3015,4.0113,4.0113,4.0113,4.0113,4.0113,4.0113,4.0113,4.0113,4.0113,4.0113,4.0113,4.0113,4.0113,4.0113,4.0113,4.0113,4.0113,4.0113,4.0113,4.0113,4.0113,4.0113,4.0113,4.0113,4.0113,4.0113,4.0113,4.0113,4.0113,4.0113,4.0113,4.0113,4.0113,4.0113,4.0113,4.0113,4.0113,4.0113,4.0113,4.0113,4.0113,4.0113,4.0113,4.0113,4.0113,4.0113,4.0113,4.0113,4.0113,4.0113,4.0113,4.0113,4.0113,4.0113,4.0113,4.0113,4.0113,4.0113,4.0113,4.0113,4.0113,4.0113,4.0113,4.0113,4.0113,4.0113,4.0113,4.0113,4.0113,4.0113,4.0113,4.0113,4.0113,4.0113,4.0113,4.0113,4.0146,4.0248,4.0417,4.0603,4.0713,4.095,4.1018,4.0925,4.0874,4.0823,4.1052,4.1474,4.2151,4.2912,4.3538,4.4367,4.3899,4.2763,4.1946,4.1416,4.0688,4.0146,4.0113,4.0113,4.0113,4.0333,4.0781,4.1424,4.2185,4.3023,4.3786,4.4215,4.457,4.4338,4.4179,4.4367,4.4265,4.3972,4.3752,4.0113,4.0113,4.0113,4.0113,4.0113,4.0113,4.0113,4.0113,4.0113,4.0113,4.0113,4.0113,4.0113,4.0113,4.0113,4.0113,4.0113,4.0113,4.0113,4.0113,4.0113,4.0113,4.0113,4.0113,4.0113,4.0113,4.0113,4.0113,4.0113,4.0113,4.0113,4.0113,4.0113,4.0113,4.0113,4.0113,4.0113,4.0113,4.0113,4.0113,4.0113,4.0113,4.0113,4.0113,4.0113,4.0113,4.0113,4.0113,4.0113,4.0113,4.0113,4.0113,4.0113,4.0113,4.0113,4.0113,4.0113,4.0113,4.0113,4.0113,4.0113,4.0113,4.0113,4.0113,4.0113,4.0113,4.0113,4.0113,4.0113,4.0113,4.0113,4.0113,4.0113,4.0163,4.0231,4.0383,4.0434,4.0519,4.0722,4.1018,4.1288,4.1559,4.1897,4.1863,4.1593,4.1568,4.1914,4.232,4.3031,4.3741,4.4062,4.453,4.4462,4.3639,4.2455,4.1737,4.1027,4.04,4.0113,4.0113,4.0113,4.04,4.0578,4.1542,4.2388,4.3328,4.4107,4.4395,4.4598,4.4598,4.4598,4.4598,4.4598,4.4338,4.4293,4.0113,4.0113,4.0113,4.0113,4.0113,4.0113,4.0113,4.0113,4.0113,4.0113,4.0113,4.0113,4.0113,4.0113,4.0113,4.0113,4.0113,4.0113,4.0113,4.0113,4.0113,4.0113,4.0113,4.0113,4.0113,4.0113,4.0113,4.0113,4.0113,4.0113,4.0113,4.0113,4.0113,4.0113,4.0113,4.0113,4.0113,4.0113,4.0113,4.0113,4.0113,4.0113,4.0113,4.0113,4.0113,4.0113,4.0113,4.0113,4.0113,4.0113,4.0113,4.0113,4.0113,4.0113,4.0113,4.0113,4.0113,4.0113,4.0113,4.0113,4.0113,4.0113,4.0113,4.0113,4.0113,4.0113,4.0113,4.0113,4.0113,4.0113,4.0113,4.0113,4.013,4.0214,4.0434,4.0663,4.0832,4.0984,4.1322,4.1762,4.1999,4.2202,4.2591,4.2946,4.2608,4.2354,4.276,4.32,4.3826,4.4231,4.4479,4.4513,4.4445,4.3859,4.2692,4.1965,4.1339,4.073,4.018,4.0163,4.018,4.013,4.0502,4.1525,4.2472,4.3244,4.3887,4.4395,4.4598,4.4598,4.4598,4.4598,4.4598,4.4598,4.4598,4.0113,4.0113,4.0113,4.0113,4.0113,4.0113,4.0113,4.0113,4.0113,4.0113,4.0113,4.0113,4.0113,4.0113,4.0113,4.0113,4.0113,4.0113,4.0113,4.0113,4.0113,4.0113,4.0113,4.0113,4.0113,4.0113,4.0113,4.0113,4.0113,4.0113,4.0113,4.0113,4.0113,4.0113,4.0113,4.0113,4.0113,4.0113,4.0113,4.0113,4.0113,4.0113,4.0113,4.0113,4.0113,4.0113,4.0113,4.0113,4.0113,4.0113,4.0113,4.0113,4.0113,4.0113,4.0113,4.0113,4.0113,4.0113,4.0113,4.0113,4.0113,4.0113,4.0113,4.0113,4.0113,4.0113,4.0113,4.0113,4.0113,4.013,4.0163,4.0316,4.0493,4.0696,4.1264,4.1525,4.161,4.1745,4.2151,4.2574,4.2743,4.2895,4.3369,4.3741,4.3572,4.3335,4.3572,4.3859,4.413,4.4462,4.453,4.4479,4.4316,4.3606,4.2794,4.2489,4.21,4.1102,4.0595,4.0333,4.0282,4.0197,4.062,4.1762,4.2591,4.3159,4.3785,4.4445,4.4598,4.4598,4.4598,4.4598,4.4598,4.4598,4.4598,4.0113,4.0113,4.0113,4.0113,4.0113,4.0113,4.0113,4.0113,4.0113,4.0113,4.0113,4.0113,4.0113,4.0113,4.0113,4.0113,4.0113,4.0113,4.0113,4.0113,4.0113,4.0113,4.0113,4.0113,4.0113,4.0113,4.0113,4.0113,4.0113,4.0113,4.0113,4.0113,4.0113,4.0113,4.0113,4.0113,4.0113,4.0113,4.0113,4.0113,4.0113,4.0113,4.0113,4.0113,4.0113,4.0113,4.0113,4.0113,4.0113,4.0113,4.0113,4.0113,4.0113,4.0113,4.0113,4.0113,4.0113,4.0113,4.0113,4.0113,4.018,4.013,4.0113,4.0113,4.0113,4.0113,4.0214,4.0316,4.0282,4.0265,4.0409,4.0747,4.1052,4.1373,4.1897,4.2303,4.2371,4.2675,4.3115,4.3352,4.3453,4.3623,4.413,4.4513,4.4462,4.4412,4.4513,4.4598,4.4598,4.4598,4.4598,4.4547,4.435,4.3842,4.3284,4.3301,4.2844,4.1762,4.1018,4.0713,4.0417,4.0248,4.0925,4.2016,4.254,4.2939,4.3752,4.4598,4.4598,4.4598,4.4598,4.4598,4.4598,4.4598,4.4598,4.0113,4.0113,4.0113,4.0113,4.0113,4.0113,4.0113,4.0113,4.0113,4.0113,4.0113,4.0113,4.0113,4.0113,4.0113,4.0113,4.0113,4.0113,4.0113,4.0113,4.0113,4.0113,4.0113,4.0113,4.0113,4.0113,4.0113,4.0113,4.0113,4.0113,4.0113,4.0113,4.0113,4.0113,4.0113,4.0113,4.0113,4.0113,4.0113,4.0113,4.0113,4.0113,4.0113,4.0113,4.0113,4.0113,4.0113,4.0113,4.0113,4.013,4.013,4.018,4.0197,4.0197,4.0214,4.0163,4.0146,4.0113,4.0265,4.0392,4.0544,4.0367,4.0231,4.0265,4.013,4.0113,4.0333,4.0696,4.0798,4.1001,4.1559,4.1728,4.1948,4.2066,4.2489,4.2912,4.3166,4.3673,4.4107,4.4175,4.4231,4.4164,4.4479,4.4598,4.4598,4.4598,4.4598,4.4598,4.4598,4.4598,4.4598,4.4598,4.4445,4.4045,4.3741,4.3707,4.3318,4.232,4.1559,4.1085,4.0764,4.0468,4.1044,4.2033,4.2354,4.2709,4.3768,4.4598,4.4598,4.4598,4.4598,4.4598,4.4598,4.4598,4.4598,4.0113,4.0113,4.0113,4.0113,4.0113,4.0113,4.0113,4.0113,4.0138,4.0121,4.0121,4.0138,4.0138,4.0113,4.0113,4.0113,4.0113,4.0113,4.0113,4.0113,4.0113,4.0113,4.0113,4.0113,4.0113,4.0113,4.0113,4.0113,4.0113,4.0113,4.0113,4.0113,4.013,4.0113,4.0113,4.0113,4.0113,4.0113,4.0113,4.0113,4.0113,4.0113,4.0113,4.0113,4.0113,4.0113,4.0113,4.0113,4.013,4.018,4.0333,4.0468,4.0493,4.0705,4.0807,4.0857,4.0874,4.0908,4.1085,4.1255,4.1339,4.1077,4.0857,4.0857,4.0874,4.1027,4.1187,4.1441,4.1559,4.183,4.2219,4.2405,4.2726,4.2844,4.32,4.3623,4.3842,4.4344,4.4445,4.4564,4.4598,4.4598,4.4598,4.4598,4.4598,4.4598,4.4598,4.4598,4.4598,4.4598,4.4598,4.4598,4.4598,4.4299,4.4096,4.4045,4.3538,4.2811,4.2269,4.1762,4.1119,4.0849,4.1441,4.1948,4.2303,4.2861,4.3972,4.4598,4.4598,4.4598,4.4598,4.4598,4.4598,4.4598,4.4598,4.0231,4.0214,4.0197,4.0332,4.0265,4.0341,4.0206,4.0138,4.0238,4.0238,4.0121,4.0263,4.0263,4.0163,4.0121,4.0138,4.0113,4.0113,4.0113,4.0113,4.0113,4.0113,4.0113,4.0113,4.0113,4.0113,4.013,4.0197,4.0163,4.0536,4.0502,4.0367,4.0553,4.057,4.0553,4.0553,4.04,4.0231,4.0113,4.0113,4.0113,4.0113,4.0113,4.0146,4.0231,4.029,4.0367,4.0434,4.0434,4.0587,4.0882,4.1119,4.1441,4.1914,4.2151,4.2236,4.2134,4.2049,4.2049,4.2117,4.2303,4.2134,4.232,4.2337,4.21,4.1897,4.1999,4.2185,4.2337,4.2388,4.254,4.3014,4.3443,4.3724,4.4045,4.4265,4.4412,4.4564,4.4564,4.4598,4.4598,4.4598,4.4598,4.4598,4.4598,4.4598,4.4598,4.4598,4.4598,4.4598,4.4598,4.4598,4.4598,4.4598,4.4462,4.4327,4.4141,4.3504,4.3149,4.2615,4.1948,4.1288,4.1593,4.1965,4.2303,4.3031,4.4175,4.4598,4.4598,4.4598,4.4598,4.4598,4.4598,4.4598,4.4598,4.2455,4.2816,4.2934,4.2728,4.2287,4.1492,4.0831,4.0314,4.0387,4.0412,4.0387,4.0436,4.0412,4.0387,4.0271,4.0263,4.0213,4.0163,4.0113,4.0146,4.0316,4.0163,4.0163,4.0248,4.0163,4.018,4.0248,4.0536,4.095,4.1255,4.1542,4.1677,4.1424,4.1508,4.1551,4.1653,4.0993,4.0502,4.0333,4.0333,4.0282,4.0299,4.0282,4.0367,4.0713,4.0815,4.0916,4.1331,4.1467,4.166,4.183,4.1982,4.2016,4.2185,4.2286,4.2286,4.2269,4.2286,4.2371,4.2794,4.3098,4.3234,4.3504,4.3115,4.2726,4.2489,4.2675,4.2929,4.3115,4.3183,4.3386,4.3792,4.4045,4.4215,4.4462,4.4496,4.4598,4.4598,4.4598,4.4598,4.4598,4.4598,4.4598,4.4598,4.4598,4.4598,4.4598,4.4598,4.4598,4.4598,4.4598,4.4598,4.4598,4.4598,4.4598,4.4479,4.4445,4.4276,4.3842,4.3284,4.2439,4.1914,4.183,4.2185,4.2878,4.3572,4.4395,4.4598,4.4598,4.4598,4.4598,4.4598,4.4598,4.4598,4.4598,4.3728,4.4029,4.4097,4.3784,4.3133,4.2486,4.1753,4.1029,4.071,4.0558,4.051,4.0534,4.0558,4.0485,4.0412,4.0379,4.0379,4.0654,4.0722,4.0748,4.0849,4.1044,4.101,4.0951,4.1077,4.0976,4.101,4.1331,4.1694,4.1965,4.2236,4.2202,4.2303,4.232,4.2219,4.2083,4.1805,4.1331,4.1044,4.0976,4.0925,4.0925,4.0959,4.0993,4.1457,4.1576,4.1677,4.2185,4.2286,4.2405,4.2455,4.2743,4.2844,4.2997,4.3217,4.3328,4.3318,4.3379,4.3464,4.3639,4.3826,4.3978,4.4265,4.4039,4.3718,4.3453,4.3623,4.3809,4.3893,4.4012,4.4327,4.4581,4.4581,4.4581,4.4581,4.4581,4.4598,4.4598,4.4598,4.4598,4.4598,4.4598,4.4598,4.4598,4.4598,4.4598,4.4598,4.4598,4.4598,4.4598,4.4598,4.4598,4.4598,4.4598,4.4598,4.4598,4.4547,4.4496,4.4316,4.369,4.2878,4.2591,4.2591,4.3047,4.3707,4.4242,4.4598,4.4598,4.4598,4.4598,4.4598,4.4598,4.4598,4.4598,4.4598,4.4445,4.4436,4.4285,4.3885,4.3209,4.3152,4.2779,4.21,4.1394,4.0903,4.0903,4.0927,4.1125,4.1421,4.1384,4.1302,4.1474,4.1746,4.1879,4.1656,4.2133,4.2347,4.2339,4.2387,4.2211,4.2311,4.2308,4.2183,4.2347,4.2692,4.2861,4.2472,4.2625,4.2777,4.2888,4.2844,4.2736,4.2651,4.2448,4.2381,4.2134,4.2185,4.2303,4.2202,4.2303,4.2388,4.2405,4.2455,4.2482,4.2743,4.3031,4.3487,4.3707,4.3978,4.431,4.4395,4.4242,4.4242,4.4209,4.4327,4.4412,4.4496,4.4581,4.4479,4.4242,4.4124,4.4215,4.4248,4.4282,4.4282,4.453,4.4598,4.4598,4.4598,4.4598,4.4598,4.4598,4.4598,4.4598,4.4598,4.4598,4.4598,4.4598,4.4598,4.4598,4.4598,4.4598,4.4598,4.4598,4.4598,4.4598,4.4598,4.4598,4.4598,4.4598,4.4598,4.4598,4.4564,4.4513,4.4079,4.3234,4.32,4.3369,4.3639,4.3893,4.431,4.4598,4.4598,4.4598,4.4598,4.4598,4.4598,4.4598,4.4637,4.4598,4.6341,4.6087,4.5189,4.4608,4.4212,4.3548,4.3435,4.3534,4.3027,4.2731,4.2727,4.2762,4.3006,4.323,4.318,4.314,4.3298,4.3191,4.3459,4.343,4.3626,4.3677,4.3565,4.3593,4.3373,4.3011,4.2945,4.3116,4.3277,4.3644,4.4005,4.3988,4.3904,4.3802,4.3819,4.3836,4.3819,4.3768,4.3752,4.3261,4.2625,4.2371,4.2303,4.2523,4.2726,4.3098,4.3284,4.3673,4.3887,4.4158,4.4209,4.431,4.4361,4.4513,4.4581,4.4598,4.4598,4.4598,4.4598,4.4598,4.4598,4.4598,4.4598,4.4598,4.4581,4.4598,4.4598,4.4598,4.4598,4.4598,4.4598,4.4598,4.4598,4.4598,4.4598,4.4598,4.4598,4.4598,4.4598,4.4598,4.4598,4.4598,4.4598,4.4598,4.4598,4.4598,4.4598,4.4598,4.4598,4.4598,4.4598,4.4598,4.4598,4.4598,4.4598,4.4598,4.4598,4.4598,4.4564,4.4079,4.3572,4.3623,4.369,4.3741,4.3927,4.441,4.4703,4.4654,4.4654,4.4759,4.4841,4.4934,4.4841,4.4841,4.4692,4.7074,4.6812,4.5818,4.5111,4.4711,4.4501,4.4444,4.4378,4.4462,4.4708,4.4845,4.4381,4.4225,4.4618,4.4517,4.4628,4.466,4.4716,4.4648,4.4713,4.4979,4.5029,4.4959,4.4871,4.4795,4.4463,4.418,4.4215,4.4268,4.4264,4.4513,4.4626,4.4626,4.4654,4.4626,4.4626,4.4637,4.4564,4.4637,4.4111,4.3281,4.3261,4.3328,4.3504,4.3667,4.3893,4.4028,4.4384,4.4479,4.4581,4.4547,4.4547,4.453,4.4581,4.4598,4.4598,4.4598,4.4598,4.4598,4.4598,4.4598,4.4598,4.4598,4.4598,4.4598,4.4598,4.4598,4.4598,4.4598,4.4598,4.4598,4.4598,4.4598,4.4598,4.4598,4.4598,4.4598,4.4598,4.4598,4.4598,4.4598,4.4598,4.4598,4.4598,4.4598,4.4598,4.4598,4.4598,4.4598,4.4598,4.4598,4.4598,4.4598,4.4598,4.4598,4.4598,4.4598,4.4598,4.4637,4.4406,4.4128,4.4039,4.4012,4.4211,4.4433,4.4756,4.4944,4.4988,4.5196,4.5468,4.5442,4.5363,4.5222,4.5159,4.5213,4.6947,4.6709,4.6012,4.5351,4.4892,4.5517,4.5553,4.5223,4.5718,4.647,4.6852,4.5567,4.5024,4.5057,4.5075,4.5075,4.5329,4.5971,4.596,4.6047,4.6359,4.6381,4.6374,4.6342,4.6141,4.5817,4.5463,4.5303,4.5269,4.5169,4.4988,4.4831,4.4803,4.4831,4.4803,4.4814,4.4934,4.4988,4.5015,4.4896,4.4752,4.4654,4.4445,4.4496,4.4682,4.4682,4.4692,4.4692,4.4692,4.4637,4.4665,4.4598,4.4598,4.4598,4.4598,4.4598,4.4598,4.4598,4.4598,4.4598,4.4598,4.4598,4.4598,4.4598,4.4598,4.4598,4.4598,4.4598,4.4598,4.4598,4.4598,4.4598,4.4598,4.4598,4.4598,4.4598,4.4598,4.4598,4.4598,4.4598,4.4598,4.4598,4.4598,4.4598,4.4598,4.4598,4.4598,4.4598,4.4598,4.4598,4.4598,4.4598,4.4598,4.4598,4.4598,4.4609,4.4637,4.4824,4.4862,4.4814,4.478,4.4847,4.4858,4.4888,4.5125,4.5346,4.5511,4.5606,4.5868,4.6042,4.5868,4.5734,4.5759,4.5734,4.5893,4.6324,4.515,4.4966,4.4856,4.4856,4.5571,4.6177,4.6617,4.6764,4.7314,4.7625,4.7239,4.6921,4.7542,4.7598,4.743,4.7034,4.7436,4.7603,4.7765,4.7518,4.7585,4.7493,4.7173,4.7129,4.673,4.6262,4.6017,4.5875,4.5817,4.5784,4.5708,4.5759,4.5759,4.5784,4.5734,4.5657,4.5631,4.5631,4.5631,4.5442,4.5169,4.4637,4.4731,4.4971,4.5115,4.5161,4.5161,4.5161,4.5045,4.4797,4.4637,4.4598,4.4598,4.4598,4.4598,4.4598,4.4598,4.4598,4.4598,4.4598,4.4598,4.4598,4.4598,4.4598,4.4598,4.4598,4.4598,4.4598,4.4598,4.4598,4.4598,4.4598,4.4598,4.4598,4.4598,4.4598,4.4598,4.4598,4.4598,4.4598,4.4598,4.4598,4.4598,4.4598,4.4598,4.4598,4.4598,4.4598,4.4598,4.4598,4.4665,4.4665,4.4598,4.4598,4.4676,4.4742,4.4954,4.5205,4.5258,4.5468,4.5784,4.5792,4.5554,4.5683,4.5918,4.6067,4.6213,4.6238,4.6334,4.6165,4.6042,4.6165,4.6286,4.6454]}]]